GFSSGP_con_mlcape_036.txt.gz
CAPE
0 0 0 0 0 0 0 0 362 388 524 664 508 620 611 618 671 216 498 177 14 8 88 143 180 190 194 262 256 227 222 169 143 45 0 0 0 0 0 0 0 0 0 0 0 0 0 0 0
0 0 0 0 0 0 0 261 528 637 515 466 339 278 393 578 636 675 488 231 86 61 71 190 202 250 344 294 272 240 186 187 88 0 0 0 0 0 0 0 0 0 0 0 0 0 0 0 0
0 0 0 0 0 0 0 647 544 470 484 481 84 35 141 542 647 552 559 424 185 76 174 285 231 317 376 353 305 185 234 98 6 0 0 0 0 0 0 0 0 0 0 0 0 0 0 0 0
0 0 0 0 0 0 288 527 270 215 236 181 152 8 1 369 347 554 533 428 308 196 359 264 269 380 415 440 273 218 171 36 0 0 0 0 0 16 0 0 0 0 0 0 0 0 0 0 0
0 0 0 0 0 0 0 474 249 297 113 120 95 25 0 9 270 503 548 442 305 396 285 248 289 420 428 354 276 207 86 0 0 0 0 0 0 0 0 0 0 0 0 0 0 0 0 0 0
0 0 0 0 0 40 77 441 157 0 30 10 75 4 0 0 0 178 395 371 286 193 167 249 382 533 422 329 214 198 110 0 0 0 0 0 0 0 0 0 0 0 0 0 0 0 0 0 0
0 0 0 0 0 2 130 347 210 231 52 29 0 235 297 0 31 77 93 84 150 94 142 202 492 488 290 146 139 185 91 4 0 0 0 0 0 0 0 0 0 0 0 0 0 0 0 0 0
0 0 0 0 0 282 127 131 1 53 15 221 182 1 192 371 172 1 0 46 20 48 107 248 496 409 139 121 115 108 38 3 0 0 0 0 0 0 1 0 0 0 0 0 0 0 0 0 0
0 0 0 0 38 131 3 125 117 18 24 112 0 413 809 938 46 0 0 0 3 43 115 283 478 281 114 95 90 45 18 1 0 0 0 0 0 30 14 0 0 0 0 0 0 0 0 0 0
0 0 0 35 72 4 0 0 12 58 0 17 512 575 877 202 18 19 11 76 94 76 99 192 403 249 90 12 20 18 2 0 2 0 0 74 325 26 0 0 0 0 0 0 0 0 0 0 0
0 0 0 6 167 11 0 21 10 39 0 81 366 1147 1022 909 722 577 138 122 139 67 242 347 229 194 4 0 27 48 55 203 268 350 357 518 452 178 3 0 0 0 0 0 0 0 0 0 0
0 0 0 25 165 116 58 44 1 0 0 31 1110 1256 1115 978 844 583 442 333 290 288 329 270 137 37 2 31 20 191 499 391 579 617 625 399 545 447 108 38 71 10 4 0 0 0 0 0 0
0 0 0 56 22 70 38 46 64 12 27 580 1474 1298 1108 897 901 800 651 398 188 209 206 169 71 55 5 28 491 476 477 765 703 758 665 580 402 252 90 22 4 0 0 0 0 0 0 0 0
0 0 75 17 0 12 49 4 16 9 58 1080 1231 1080 729 436 586 710 245 187 158 78 81 57 72 132 146 496 410 382 488 564 440 410 486 107 1 20 46 0 0 0 0 0 0 0 0 0 0
0 0 0 0 0 21 8 55 18 13 554 633 520 434 259 283 319 218 160 146 43 0 12 26 122 293 557 531 288 67 1 0 19 191 169 112 28 2 0 0 0 0 0 0 0 0 0 0 0
0 0 0 0 0 6 0 11 40 88 190 244 225 177 106 156 129 102 68 46 55 62 19 178 317 539 261 44 8 4 17 7 0 10 3 0 0 0 0 0 0 0 0 0 0 0 0 0 0
0 0 0 0 0 7 5 0 17 68 170 188 183 99 22 1 4 15 33 50 153 135 170 248 481 243 20 0 0 0 0 0 0 0 0 0 0 0 0 0 0 0 0 0 0 0 0 0 0
0 0 0 0 0 0 1 0 0 12 165 248 210 174 136 17 0 0 0 44 235 330 358 364 475 200 3 0 0 0 0 0 0 0 0 0 0 0 0 0 0 0 0 0 0 0 0 0 0
0 0 0 0 0 0 5 3 0 0 39 236 309 333 312 176 161 132 71 38 150 648 561 513 414 155 0 9 6 5 0 0 0 0 0 0 0 0 0 0 0 0 0 0 0 0 0 0 0
0 0 0 0 0 0 1 2 0 0 9 102 317 378 372 271 269 450 319 138 256 802 714 601 420 180 126 218 112 27 0 0 0 0 0 0 0 0 0 0 0 0 0 0 0 0 0 0 0
0 0 0 7 0 0 9 0 0 0 0 0 149 266 338 367 482 571 483 505 582 941 695 593 491 356 223 326 27 0 0 0 0 0 0 0 0 0 0 0 0 0 0 0 0 0 0 0 0
0 3 1 16 1 0 2 21 0 0 10 23 52 129 247 336 522 647 677 669 799 838 690 676 523 463 536 79 0 0 0 0 0 0 0 0 0 0 0 0 0 0 0 0 0 0 0 0 0
0 3 4 1 6 0 0 0 0 0 16 107 227 229 208 260 417 618 780 849 760 598 557 495 472 578 286 3 0 0 33 6 0 0 0 0 0 0 0 0 0 0 0 0 0 1 14 8 1
32 18 4 5 7 1 1 3 0 0 0 32 216 317 368 446 670 768 854 772 726 602 582 774 487 54 0 0 2 1 0 0 0 0 0 0 0 0 0 0 0 0 0 0 0 0 1 0 3
0 12 29 4 2 16 41 44 28 21 7 0 90 272 355 575 611 665 786 798 852 724 648 175 1 0 0 0 0 0 0 0 0 0 0 0 0 0 0 0 0 0 0 0 0 0 7 23 11
17 0 11 11 0 51 29 41 71 34 4 140 379 457 554 639 665 646 500 183 129 232 273 42 0 0 0 0 0 0 0 0 0 0 0 0 0 0 0 0 0 0 0 0 0 0 5 19 26
8 4 8 13 87 0 0 0 114 11 0 15 415 426 559 467 390 120 2 0 0 0 8 0 0 0 0 0 0 0 0 0 0 0 0 0 0 0 0 0 0 0 0 0 0 0 1 23 6
0 0 35 0 0 0 0 11 79 19 0 5 334 347 421 350 206 1 0 0 0 0 0 0 0 0 0 0 0 0 0 0 0 0 0 0 0 0 0 0 0 0 0 0 0 3 0 1 4
40 0 0 0 42 0 0 1 0 0 0 0 46 371 260 316 80 0 0 0 0 0 0 0 0 0 0 0 0 0 0 0 0 0 0 0 0 0 0 0 0 0 0 0 0 0 0 0 0
1 28 2 0 0 0 0 0 0 0 0 0 0 142 223 207 73 0 0 0 0 0 0 0 0 0 0 0 0 0 0 0 0 0 0 0 0 0 0 0 0 0 0 0 0 0 3 0 0

GFSSGP_con_mlcape_039.txt.gz
CAPE
0 0 0 0 0 0 0 0 673 673 358 455 759 675 697 824 671 372 342 44 41 355 435 369 281 203 223 274 248 155 94 14 0 0 0 0 0 0 0 0 0 0 0 0 0 0 0 0 0
0 0 0 0 0 0 0 0 380 459 590 420 116 390 665 856 904 529 139 57 91 387 338 241 197 281 290 272 192 155 62 4 0 0 0 0 0 0 0 0 0 0 0 0 0 0 0 0 0
0 0 0 0 0 0 0 441 249 625 549 315 79 50 450 876 813 686 139 4 9 168 226 238 251 258 279 216 185 87 15 0 0 0 0 0 0 0 0 0 0 0 0 0 0 0 0 0 0
0 0 0 0 0 0 0 562 499 387 318 306 69 111 160 378 546 671 305 25 21 115 189 224 247 241 257 200 140 35 1 0 0 0 0 0 7 0 0 0 0 0 0 0 0 0 0 0 0
0 0 0 0 0 1 281 527 478 321 213 270 99 2 87 378 754 801 469 110 198 185 193 194 168 262 299 214 100 34 1 0 0 0 0 0 0 0 0 0 0 0 0 0 0 0 0 0 0
0 0 0 0 0 0 387 285 87 14 59 165 133 2 0 85 588 531 386 311 143 84 127 111 119 220 169 147 68 9 0 0 0 0 0 0 0 0 0 0 0 0 0 0 0 0 0 0 0
0 0 0 0 0 185 411 334 217 38 68 112 111 285 9 0 326 258 183 130 15 42 71 72 186 111 142 110 27 0 0 0 0 0 0 0 0 0 0 0 0 0 0 0 0 0 0 0 0
0 0 0 0 0 212 100 82 116 71 59 229 163 226 50 37 0 54 25 2 11 64 10 42 147 109 101 112 20 1 0 0 0 0 0 0 0 0 0 0 0 0 0 0 0 0 0 0 0
0 0 0 0 3 194 317 124 20 45 38 39 391 387 226 6 0 22 1 6 22 66 29 68 120 76 31 39 13 0 0 0 0 0 0 0 0 0 0 0 0 0 0 0 0 0 0 0 0
0 0 0 0 105 69 86 104 66 7 17 367 96 336 2 17 0 1 10 9 1 38 136 111 103 14 16 16 0 0 0 0 0 0 0 0 0 0 0 0 0 0 0 0 0 0 0 0 0
0 0 0 0 190 61 19 0 2 5 0 62 133 108 97 8 0 36 24 0 0 0 82 146 116 1 0 0 0 0 0 0 0 0 3 5 45 0 0 0 0 0 0 0 0 0 0 0 0
0 0 0 183 137 79 4 2 6 0 19 420 434 471 170 187 89 165 87 3 1 46 89 150 93 0 0 0 0 0 9 29 87 268 372 178 220 29 2 0 0 0 0 0 0 0 0 0 0
0 0 91 264 204 34 2 0 0 1 648 1149 918 894 871 677 387 256 132 87 5 73 99 122 31 0 0 7 67 107 317 325 416 372 186 23 18 0 0 0 0 0 0 0 0 0 0 0 0
0 0 88 120 77 23 0 13 0 1 120 777 369 607 779 625 309 223 160 163 145 102 42 15 9 0 34 231 258 299 346 343 343 376 96 0 0 0 0 0 0 0 0 0 0 0 0 0 0
7 1 91 14 7 1 0 4 0 3 216 628 458 823 846 640 595 286 221 97 67 0 0 0 0 76 286 194 128 160 111 70 88 4 15 4 0 0 0 0 0 0 0 0 0 0 0 0 0
0 0 1 1 26 0 0 3 3 1 313 751 749 474 343 515 641 206 120 49 12 0 0 0 93 338 145 62 7 0 0 0 0 0 0 0 0 0 0 0 0 0 0 0 0 0 0 0 0
0 0 0 0 15 1 0 14 0 106 501 457 408 149 153 136 112 105 38 1 0 0 0 59 285 223 52 10 2 0 0 0 0 0 0 0 0 0 0 0 0 0 0 0 0 0 0 0 0
0 0 0 0 15 24 5 0 0 9 128 137 152 41 55 19 32 20 6 0 0 2 70 302 264 102 5 0 0 0 0 0 0 0 0 0 0 0 0 0 0 0 0 0 0 0 0 0 0
0 0 0 0 0 12 0 0 0 0 47 121 80 0 0 0 0 0 0 33 26 67 176 340 219 44 0 0 0 0 0 0 0 0 0 0 0 0 0 0 0 0 0 0 0 0 0 0 0
0 0 0 0 0 0 1 0 0 0 16 126 103 66 8 1 0 0 0 50 121 188 309 314 286 61 0 0 1 0 0 0 0 0 0 0 0 0 0 0 0 0 0 0 0 0 0 0 0
0 0 0 0 0 0 0 0 0 0 0 88 231 233 136 50 36 51 22 215 366 324 405 325 298 122 0 20 26 0 0 0 0 0 0 0 0 0 0 0 0 0 0 0 0 0 0 0 0
0 0 4 4 0 0 2 2 0 0 0 1 244 283 242 135 278 331 244 337 632 566 455 447 359 238 41 114 7 0 0 0 0 0 0 0 0 0 0 0 0 0 0 0 0 0 0 0 0
0 0 0 0 0 0 0 0 0 0 0 1 1 123 223 204 334 451 442 453 709 655 588 525 402 312 149 198 0 0 0 0 0 0 0 0 0 0 0 0 0 0 0 0 0 0 0 0 0
0 8 1 11 0 0 5 0 0 0 0 0 9 65 100 172 404 521 508 581 699 693 607 475 360 243 334 161 0 0 0 0 0 0 0 0 0 0 0 0 0 0 0 0 0 0 0 0 0
1 0 0 0 0 6 11 0 0 0 0 0 0 22 213 323 382 581 657 706 638 532 470 392 363 263 155 0 0 0 0 0 0 0 0 0 0 0 0 0 0 0 0 0 0 0 0 0 0
8 0 0 0 0 0 2 9 0 0 0 0 0 0 241 506 548 654 757 690 578 374 308 366 350 30 0 0 0 0 0 0 0 0 0 0 0 0 0 0 0 0 0 0 0 0 0 0 0
14 2 1 0 0 0 0 3 4 0 41 54 27 1 438 539 548 592 581 568 667 563 350 72 0 0 0 0 0 0 0 0 0 0 0 0 0 0 0 0 0 0 0 0 0 0 0 0 0
8 1 30 1 0 0 0 2 6 0 30 155 289 445 503 553 512 417 210 235 182 82 25 0 0 0 0 0 0 0 0 0 0 0 0 0 0 0 0 0 0 0 0 0 0 0 0 0 0
0 0 1 0 0 9 5 0 1 0 0 24 401 433 529 432 312 115 1 0 0 0 0 0 0 0 0 0 0 0 0 0 0 0 0 0 0 0 0 0 0 0 0 0 0 0 0 0 0
1 76 37 0 0 0 0 0 0 0 0 0 3 325 347 340 188 5 0 0 0 0 0 0 0 0 0 0 0 0 0 0 0 0 0 0 0 0 0 0 0 0 0 0 0 0 0 0 0

GFSSGP_con_mlcape_042.txt.gz
CAPE
0 0 0 0 0 0 0 0 36 278 437 731 872 813 724 882 616 345 210 76 432 647 665 494 298 216 229 245 161 39 10 0 0 0 0 0 0 0 0 0 0 0 0 0 0 0 0 0 0
0 0 0 0 0 0 0 0 0 584 586 329 307 757 798 871 798 504 336 347 446 598 580 427 281 244 259 221 102 36 0 0 0 1 0 6 2 0 0 1 0 0 0 0 0 0 0 0 0
0 0 0 0 0 0 0 152 498 692 610 391 226 380 756 855 919 538 342 475 438 550 457 385 259 262 249 183 80 22 0 0 3 6 10 27 14 1 0 3 4 0 0 0 0 0 0 0 0
0 0 0 0 0 0 0 0 688 686 488 228 187 346 475 512 777 593 333 458 342 398 441 384 348 259 235 138 48 6 0 3 30 46 49 32 9 9 2 1 0 0 0 0 0 0 0 0 0
0 0 0 0 0 0 400 141 341 303 327 300 116 59 467 578 528 286 183 323 473 425 303 168 268 285 125 91 49 23 27 39 42 38 39 13 0 0 0 0 0 0 0 0 0 0 0 0 0
0 0 0 0 0 150 403 328 43 115 192 196 101 98 121 506 598 380 231 323 248 119 67 147 109 122 101 49 37 28 44 54 28 11 0 0 0 0 0 0 0 0 0 0 0 0 0 0 0
0 0 0 0 0 0 278 360 126 81 16 154 57 19 99 354 398 376 165 9 34 71 65 8 16 90 77 15 15 6 4 11 12 0 0 0 0 0 0 0 0 0 0 0 0 0 0 0 0
0 0 0 0 0 0 264 211 248 91 19 187 212 173 0 28 252 168 4 1 0 0 5 33 8 12 72 48 3 0 1 4 0 0 0 0 0 0 0 0 0 0 0 0 0 0 0 0 0
0 0 0 0 0 7 265 147 115 149 72 468 585 312 70 62 59 32 15 2 1 12 24 17 8 39 140 27 0 2 4 0 0 0 0 0 0 0 0 0 0 0 0 0 0 0 0 0 0
0 0 0 0 9 66 186 207 34 20 390 414 190 37 86 42 28 9 22 5 2 0 0 9 63 131 74 16 0 0 2 0 0 0 0 0 0 0 0 0 0 0 0 0 0 0 0 0 0
0 0 0 0 0 30 58 41 21 2 2 124 36 0 8 21 23 1 4 1 0 17 1 102 100 88 15 0 0 0 0 0 0 0 0 0 1 0 0 0 0 0 0 0 0 0 0 0 0
0 0 0 1 61 46 35 4 0 11 14 72 102 62 8 27 50 10 2 1 2 14 102 109 61 3 0 0 0 0 0 0 0 0 1 1 0 0 0 0 0 0 0 0 0 0 0 0 0
0 0 25 145 102 96 65 9 0 265 664 383 224 105 34 66 70 7 0 9 8 13 51 121 19 0 0 0 0 0 0 5 35 71 102 157 12 4 0 0 0 0 0 0 0 0 0 0 0
3 18 151 180 121 39 7 0 0 241 882 618 250 138 104 158 219 55 28 9 13 15 55 222 36 0 0 0 12 22 107 247 149 11 0 0 0 0 0 0 0 0 0 0 0 0 0 0 0
4 57 106 151 52 0 0 0 0 186 634 639 619 462 693 472 397 148 60 4 26 78 169 143 14 0 21 47 129 206 222 225 208 60 0 0 0 0 0 0 0 0 0 0 0 0 0 0 0
0 1 72 97 16 0 0 0 2 1 665 196 75 610 686 544 403 280 205 40 126 116 60 57 32 16 66 47 102 109 34 45 0 0 0 0 0 0 0 0 0 0 0 0 0 0 0 0 0
0 0 0 35 24 8 0 0 2 10 279 308 283 585 610 538 457 287 274 247 195 105 1 1 62 103 74 63 10 0 0 0 0 0 0 0 0 0 0 0 0 0 0 0 0 0 0 0 0
0 0 0 0 17 22 5 1 3 81 185 492 488 360 405 483 556 454 217 166 94 45 4 56 131 104 17 0 0 0 0 0 0 0 0 0 0 0 0 0 0 0 0 0 0 0 0 0 0
4 0 0 0 0 23 10 0 0 118 396 482 332 248 215 402 431 281 113 99 47 0 0 64 122 49 11 0 0 0 0 0 0 0 0 0 0 0 0 0 0 0 0 0 0 0 0 0 0
0 0 0 0 0 26 13 0 2 2 179 354 316 91 81 133 100 96 47 45 17 39 59 51 104 26 9 4 0 0 0 0 0 0 0 0 0 0 0 0 0 0 0 0 0 0 0 0 0
0 0 0 0 0 0 10 0 0 0 0 74 124 62 11 34 33 5 14 7 39 144 168 107 161 84 9 0 0 0 0 0 0 0 0 0 0 0 0 0 0 0 0 0 0 0 0 0 0
0 0 0 0 0 1 0 0 0 0 0 0 53 1 0 0 1 0 18 16 57 174 205 212 181 109 0 0 0 0 0 0 0 0 0 0 0 0 0 0 0 0 0 0 0 0 0 0 0
0 0 0 0 0 0 0 0 0 0 0 0 34 64 2 0 0 0 42 83 81 180 206 218 190 124 38 0 2 0 0 0 0 0 0 0 0 0 0 0 0 0 0 0 0 0 0 0 0
0 0 0 0 0 0 0 0 0 0 0 0 0 36 57 19 1 9 89 258 243 236 247 287 329 333 98 0 3 0 0 0 0 0 0 0 0 0 0 0 0 0 0 0 0 0 0 0 0
0 0 0 0 0 0 0 0 0 0 0 0 0 0 3 34 152 114 184 450 489 425 349 356 425 356 225 47 19 0 0 0 0 0 0 0 0 0 0 0 0 0 0 0 0 0 0 0 0
0 0 0 0 0 0 0 0 2 0 0 0 0 0 0 0 226 329 464 567 658 682 520 476 434 310 138 38 24 0 0 0 0 0 0 0 0 0 0 0 0 0 0 0 0 0 0 0 0
0 0 0 1 0 0 0 0 0 0 0 0 0 0 10 168 289 472 577 580 578 509 465 423 356 181 2 0 0 0 0 0 0 0 0 0 0 0 0 0 0 0 0 0 0 0 0 0 0
0 0 4 4 0 0 0 0 0 0 0 38 14 0 224 430 477 568 592 580 553 492 203 134 177 29 0 0 0 0 0 0 0 0 0 0 0 0 0 0 0 0 0 0 0 0 0 0 0
0 0 0 1 0 0 7 0 0 0 0 0 36 54 309 434 451 544 588 563 465 305 127 11 1 0 0 0 0 0 0 0 0 0 0 0 0 0 0 0 0 0 0 0 0 0 0 0 0
0 0 10 0 0 0 0 0 0 0 0 0 114 221 353 415 331 336 405 415 401 322 21 0 0 0 0 0 0 0 0 0 0 0 0 0 0 0 0 0 0 0 0 0 0 0 0 0 0

GFSSGP_con_mlcape_045.txt.gz
CAPE
0 0 0 0 0 0 0 0 0 7 353 855 942 903 828 862 641 345 270 321 683 856 734 597 351 255 188 138 17 0 0 0 0 0 3 0 0 0 0 0 0 0 0 0 0 0 0 0 0
0 0 0 0 0 0 0 0 0 0 686 736 497 815 821 810 786 469 380 696 860 909 725 532 361 336 258 103 7 0 0 0 0 10 0 0 0 0 0 0 2 0 0 0 0 0 0 0 10
0 0 0 0 0 0 0 0 276 787 515 324 359 666 794 694 643 515 543 682 926 824 600 425 382 355 212 47 2 0 0 2 14 28 4 8 3 2 2 3 1 0 0 0 0 0 0 0 0
0 0 0 0 0 0 0 16 362 586 310 168 344 328 601 613 842 607 638 745 824 720 535 279 296 276 118 38 34 5 7 20 59 65 28 22 8 9 6 0 0 0 0 0 0 0 0 0 0
0 0 0 0 0 0 163 321 619 289 210 120 97 403 498 664 568 740 652 622 610 623 454 230 194 246 199 25 28 48 84 108 138 116 54 30 7 0 0 0 0 0 0 0 0 0 0 0 0
0 0 0 0 0 0 389 435 289 163 152 90 304 224 434 674 615 640 567 538 500 396 175 92 104 77 176 126 37 111 196 226 185 131 36 7 0 0 0 0 0 0 0 0 0 0 0 0 0
0 0 0 0 0 0 41 369 267 69 84 122 62 50 251 585 535 402 309 78 15 6 2 16 0 33 213 168 65 139 223 211 146 52 9 0 0 0 0 0 0 0 0 0 0 0 0 0 0
0 0 0 0 0 0 73 482 291 139 29 260 259 49 142 354 267 27 9 0 0 3 0 0 17 60 126 130 55 71 78 65 84 13 0 0 0 0 0 0 0 0 0 0 0 0 0 0 0
0 0 0 0 0 0 304 347 251 380 369 362 436 146 153 143 14 2 0 0 0 0 14 1 0 55 107 34 4 29 40 42 8 0 0 0 0 0 0 0 0 0 0 0 0 0 0 0 0
0 0 0 0 0 0 319 305 63 239 320 241 221 160 330 120 47 1 1 0 0 0 0 0 0 0 0 0 4 45 37 5 0 0 0 0 0 0 0 0 0 0 0 0 0 0 0 0 0
0 0 0 0 0 0 158 239 35 172 240 233 174 252 192 125 102 71 5 1 0 0 0 8 0 79 128 24 18 25 6 0 0 0 0 0 0 0 0 0 0 0 0 0 0 0 0 0 0
0 0 0 0 0 66 96 26 13 4 61 202 120 172 105 89 71 71 29 4 1 0 0 55 13 106 92 25 4 4 0 0 0 0 0 12 0 0 0 0 0 0 0 0 0 0 0 0 0
0 0 9 0 80 81 40 35 241 375 347 65 8 74 115 111 136 37 25 1 0 0 2 105 100 117 45 2 0 0 0 0 0 2 3 9 4 0 0 0 0 0 0 0 0 0 0 0 0
0 79 222 172 171 94 7 57 44 462 398 120 51 69 166 112 91 20 34 0 0 15 81 111 60 35 2 0 0 0 0 12 108 152 156 117 2 0 0 0 0 0 0 0 0 0 0 0 0
0 177 214 175 70 20 0 0 15 501 251 201 159 153 169 123 59 10 16 9 3 15 96 85 129 14 0 0 0 0 42 151 19 4 1 0 0 0 0 0 0 0 0 0 0 0 0 0 0
30 61 65 208 56 1 0 0 60 615 393 259 158 151 199 245 121 48 23 12 13 19 77 183 229 14 0 0 0 4 175 202 60 0 0 0 0 0 0 0 0 0 0 0 0 0 0 0 0
0 7 25 144 65 0 1 9 38 647 461 268 636 636 563 423 467 181 85 17 2 29 128 191 158 10 0 0 10 79 148 88 0 0 0 0 0 0 0 0 0 0 0 0 0 0 0 0 0
8 0 0 22 42 16 9 23 10 125 499 224 436 603 638 538 521 471 220 119 1 102 129 167 152 2 0 0 21 14 5 0 0 0 0 0 0 0 0 0 0 0 0 0 0 0 0 0 0
1 0 0 0 0 5 24 13 17 42 292 359 174 492 627 565 528 458 370 229 130 136 46 208 151 0 6 34 33 8 0 0 0 0 0 0 0 0 0 0 0 0 0 0 0 0 0 0 0
0 0 0 0 0 0 10 10 0 70 122 394 307 353 344 541 579 488 393 286 213 170 56 31 10 5 42 27 0 0 0 0 0 0 0 0 0 0 0 0 0 0 0 0 0 0 0 0 0
0 0 0 0 0 0 0 0 0 0 98 397 332 371 282 441 501 556 325 275 184 144 114 47 32 40 30 1 0 0 0 0 0 0 0 0 0 0 0 0 0 0 0 0 0 0 0 0 0
0 0 0 0 0 0 0 0 0 0 0 146 453 248 238 204 352 507 243 142 137 138 80 31 42 31 11 0 0 0 0 0 0 0 0 0 0 0 0 0 0 0 0 0 0 0 0 0 0
0 0 0 0 0 0 0 0 0 0 0 0 30 229 127 55 171 296 203 153 93 63 72 15 22 24 15 0 0 0 0 0 0 0 0 0 0 0 0 0 0 0 0 0 0 0 0 0 0
0 0 0 0 0 0 0 0 0 0 0 0 0 24 19 0 25 13 26 14 11 18 22 3 1 2 6 2 0 0 0 0 0 0 0 0 0 0 0 0 0 0 0 0 0 0 0 0 0
0 0 0 0 0 0 0 0 0 0 0 0 0 0 0 0 0 0 29 39 0 8 24 10 14 49 87 38 0 0 0 0 0 0 0 0 0 0 0 0 0 0 0 0 0 0 0 0 0
0 0 0 0 0 0 0 0 0 0 0 0 0 0 0 0 0 0 25 48 48 51 55 85 94 127 167 147 39 0 0 0 0 0 0 0 0 0 0 0 0 0 0 0 0 0 0 0 0
0 0 0 0 0 0 0 0 0 0 1 0 0 0 0 0 3 1 40 149 151 111 75 138 195 233 238 141 50 0 0 0 0 0 0 0 0 0 0 0 0 0 0 0 0 0 0 0 0
0 0 0 0 0 0 0 0 0 1 0 0 0 0 0 0 25 97 141 184 304 328 227 192 203 185 66 19 0 0 0 0 0 0 0 0 0 0 0 0 0 0 0 0 0 0 0 0 0
0 0 0 0 0 0 0 0 0 0 0 0 0 0 59 165 292 298 320 342 410 383 346 365 306 129 18 0 0 0 0 0 0 0 0 0 0 0 0 0 0 0 0 0 0 0 0 0 0
0 0 0 0 0 0 0 0 0 0 0 0 0 23 160 280 315 433 452 449 434 455 396 412 215 25 0 0 0 0 0 0 0 0 0 0 0 0 0 0 0 0 0 0 0 0 0 0 0

GFSSGP_con_mlcape_048.txt.gz
CAPE
0 0 0 0 0 0 0 0 0 0 106 969 1036 1028 800 605 492 267 277 426 849 831 743 580 464 342 88 19 1 0 0 0 0 0 4 0 0 0 0 0 0 0 0 99 154 82 13 85 123
0 0 0 0 0 0 0 0 0 22 531 487 527 725 860 723 481 405 460 729 952 867 712 541 456 310 68 5 0 0 0 0 12 7 4 0 0 0 0 0 0 0 0 1 64 196 264 222 65
0 0 0 0 0 0 0 0 0 656 633 449 519 596 676 606 505 485 619 821 936 824 653 448 383 225 36 0 0 0 3 21 32 42 23 8 2 0 7 2 2 0 0 0 0 0 21 3 0
0 0 0 0 0 0 0 0 103 625 264 221 201 430 509 663 736 735 934 1099 983 868 609 393 309 126 0 0 3 20 64 102 90 60 55 42 23 7 9 0 0 0 0 0 0 0 0 0 0
0 0 0 0 0 0 0 311 603 460 345 71 181 449 510 741 1036 936 1020 888 882 731 511 386 224 90 41 32 48 34 89 186 166 115 99 76 44 30 2 0 0 0 0 0 0 0 0 0 0
0 0 0 0 0 0 0 480 401 314 154 3 32 194 504 763 834 716 589 458 561 523 373 320 134 58 9 7 101 88 156 226 204 173 118 86 31 1 0 0 0 0 0 0 0 0 0 0 0
0 0 0 0 0 0 0 579 467 316 311 243 79 241 408 867 667 422 167 150 26 112 10 8 3 0 40 75 124 164 215 272 193 176 134 32 0 0 0 0 0 0 0 0 0 0 0 0 0
0 0 0 0 0 0 13 597 506 342 290 520 291 106 370 518 344 92 5 0 1 3 2 0 0 66 63 116 113 195 180 258 169 83 28 0 0 0 0 0 0 0 0 0 0 0 0 0 0
0 0 0 0 0 0 170 494 406 637 528 446 428 246 357 242 155 7 2 3 3 3 1 1 7 23 97 104 207 175 179 160 64 31 13 2 0 0 0 0 0 0 0 0 0 0 0 0 0
0 0 0 0 0 0 11 408 430 573 497 409 483 501 348 139 13 0 0 2 4 2 5 0 0 0 2 39 51 118 116 38 9 5 0 0 0 0 0 0 0 0 0 0 0 0 0 0 0
0 0 0 0 0 0 2 334 188 405 333 330 321 487 232 53 10 0 1 1 2 0 0 0 0 0 0 52 61 42 13 2 5 7 0 0 0 0 0 0 0 0 0 0 0 0 0 0 0
0 0 0 0 0 7 175 189 79 209 87 383 356 464 133 84 40 4 1 0 0 0 0 0 0 0 0 78 23 19 2 0 0 0 0 0 0 0 0 0 0 0 0 0 0 0 0 0 0
0 0 1 14 1 108 95 131 379 370 334 420 384 196 95 113 95 46 1 0 0 3 2 0 0 0 49 27 0 6 0 0 0 0 14 13 0 0 0 0 0 0 0 0 0 0 0 0 0
1 145 141 109 201 163 178 316 247 430 223 209 198 136 143 127 125 57 6 0 0 0 0 0 0 9 100 15 0 1 0 0 0 0 1 12 0 0 0 0 0 0 0 0 0 0 0 0 0
2 292 283 230 141 86 73 13 70 503 253 117 112 110 193 188 99 47 35 2 0 0 0 42 137 47 44 0 0 0 0 0 33 53 20 59 3 0 0 0 0 0 0 0 0 0 0 0 0
64 98 131 217 76 0 0 0 189 490 255 123 170 189 246 203 120 25 32 14 4 1 26 101 162 33 12 0 0 0 0 2 4 6 7 0 0 0 0 0 0 0 0 0 0 0 0 0 0
0 13 61 184 91 1 0 0 131 650 320 350 186 228 267 216 150 33 12 3 0 0 25 138 154 82 7 0 0 0 0 39 5 0 0 0 0 0 0 0 0 0 0 0 0 0 0 0 0
11 1 1 17 73 78 18 3 34 604 469 365 174 185 251 281 207 105 52 3 0 0 10 85 110 114 1 0 0 0 0 13 0 0 0 0 0 0 0 0 0 0 0 0 0 0 0 0 0
2 5 0 0 2 0 9 12 0 315 636 437 346 239 298 421 396 313 181 96 0 0 21 64 117 76 0 0 0 0 20 0 0 0 0 0 0 0 0 0 0 0 0 0 0 0 0 0 0
1 0 0 0 0 0 0 0 0 32 379 350 356 269 316 427 596 543 500 300 111 8 9 87 143 80 10 0 0 0 0 0 0 0 0 0 0 0 0 0 0 0 0 0 0 0 0 0 0
2 2 0 0 0 0 0 0 0 0 0 264 338 250 328 348 467 542 494 467 297 122 40 130 170 121 37 1 0 0 0 0 0 0 0 0 0 0 0 0 0 0 0 0 0 0 0 0 0
0 0 0 0 0 0 0 0 0 0 0 28 201 268 255 315 497 564 462 420 337 240 50 157 115 79 26 0 0 0 1 0 0 0 0 0 0 0 0 0 0 0 0 0 0 0 0 0 0
0 0 0 0 0 0 0 0 0 0 0 0 67 339 271 252 341 472 543 421 285 171 102 142 75 16 0 0 0 0 0 0 0 0 0 0 0 0 0 0 0 0 0 0 0 0 0 0 0
0 0 0 0 0 0 0 0 0 0 0 0 0 54 318 173 251 411 498 276 215 92 88 113 100 23 0 0 0 0 0 0 0 0 0 0 0 0 0 0 0 0 0 0 0 0 0 0 0
0 0 0 0 0 0 0 0 0 0 0 0 0 0 13 162 114 204 263 225 154 103 79 86 111 94 0 0 0 0 0 0 0 0 0 0 0 0 0 0 0 0 0 0 0 0 0 0 0
0 0 0 0 0 0 0 0 0 0 0 0 0 0 0 0 3 76 70 116 107 54 71 79 95 61 0 0 0 0 0 0 0 0 0 0 0 0 0 0 0 0 0 0 0 0 0 0 0
0 0 0 0 0 0 0 0 0 0 0 0 0 0 0 0 0 0 0 4 24 48 74 89 84 39 3 0 1 0 0 0 0 0 0 0 0 0 0 0 0 0 0 0 0 0 0 0 0
0 0 0 0 0 0 0 0 0 0 0 0 0 0 0 0 0 0 0 0 10 18 37 39 40 43 31 23 3 0 0 0 0 0 0 0 0 0 0 0 0 0 0 0 0 0 0 0 0
0 0 0 0 0 0 0 0 0 0 0 0 0 0 0 0 0 1 13 32 65 74 70 47 34 57 34 2 0 0 0 0 0 0 0 0 0 0 0 0 0 0 0 0 0 0 0 0 0
0 0 0 0 0 0 0 0 0 0 0 0 0 0 16 73 75 62 85 110 172 162 122 90 75 75 42 0 0 0 0 0 0 0 0 0 0 0 0 0 0 0 0 0 0 0 0 0 0

GFSSGP_con_mlcape_051.txt.gz
CAPE
0 0 0 0 0 0 0 0 0 0 11 857 946 1053 903 716 605 429 459 547 975 764 699 484 472 341 92 3 0 0 0 0 10 25 21 5 0 0 0 0 106 297 255 239 62 266 196 23 0
0 0 0 0 0 0 0 0 0 17 345 412 567 757 888 816 651 557 563 659 977 835 681 599 432 250 91 19 7 11 7 24 33 28 17 14 2 0 0 0 114 353 287 129 224 310 208 0 0
0 0 0 0 0 0 0 0 0 581 622 546 631 655 745 691 717 546 619 1056 1156 882 715 558 303 118 23 6 9 20 54 47 22 26 26 33 17 1 0 0 0 45 262 403 374 233 9 0 0
0 0 0 0 0 0 0 0 375 652 498 496 419 621 710 777 826 918 1055 1175 1085 834 675 381 180 39 3 6 12 35 49 34 26 24 43 39 33 21 0 0 0 0 47 193 116 0 0 0 0
0 0 0 0 0 0 0 81 741 675 542 389 375 498 610 829 1107 1051 1223 995 885 719 568 378 77 0 4 20 48 45 40 54 67 69 68 40 41 16 4 0 0 0 0 0 0 0 0 0 0
0 0 0 0 0 0 1 360 711 624 376 281 352 348 627 841 824 704 716 574 532 510 485 204 11 79 126 81 126 46 68 89 95 109 92 65 39 6 1 0 0 0 0 0 0 0 0 0 0
0 0 0 0 0 0 0 657 697 541 543 414 353 167 640 907 420 401 197 150 54 88 110 177 77 96 156 140 220 183 142 123 137 180 98 39 16 1 0 0 0 0 0 0 0 0 0 0 0
0 0 0 0 0 0 31 650 588 476 668 737 553 310 264 755 222 83 1 1 0 4 0 1 7 3 0 121 230 329 171 151 137 98 36 13 1 0 0 0 0 0 0 0 0 0 0 0 0
0 0 0 0 0 0 136 245 599 789 715 677 577 475 523 226 5 3 2 2 1 1 3 0 0 0 11 86 248 324 259 118 61 26 2 0 3 0 0 0 0 0 0 0 0 0 0 0 0
0 0 0 0 0 0 0 192 713 764 634 589 677 523 356 60 30 3 0 1 2 0 0 6 26 22 31 30 187 232 225 111 24 13 2 0 1 0 0 0 0 0 0 0 0 0 0 0 0
0 0 0 0 0 0 0 277 427 651 527 561 554 523 273 8 1 1 3 3 3 2 3 1 1 0 0 1 20 78 162 49 5 0 0 1 0 0 0 0 0 0 0 0 0 0 0 0 0
0 0 0 0 0 0 86 401 406 478 303 366 741 567 192 16 0 0 4 6 5 5 5 13 0 0 8 46 60 125 58 9 7 12 3 0 0 0 0 0 0 0 0 0 0 0 0 0 0
0 0 0 4 1 115 243 304 330 474 552 607 615 408 253 60 3 1 1 0 0 0 1 0 0 0 0 0 56 37 14 12 10 0 0 0 0 0 0 0 0 0 0 0 0 0 0 0 0
0 189 170 69 146 141 231 498 403 529 570 430 310 265 156 127 33 0 0 0 0 0 0 0 0 0 14 106 27 36 5 0 0 2 30 0 0 0 0 0 0 0 0 0 0 0 0 0 0
0 202 280 230 172 128 232 146 105 395 516 314 240 130 111 85 67 43 2 0 0 0 0 0 0 0 0 132 14 4 0 0 0 0 8 29 0 0 0 0 0 0 0 0 0 0 0 0 0
29 52 101 220 191 15 1 8 122 504 404 250 190 157 102 167 99 60 29 4 1 0 0 0 1 9 15 105 7 0 0 0 0 0 1 18 21 0 0 0 0 0 0 0 0 0 0 0 0
0 13 41 149 132 19 12 3 168 604 264 166 218 193 223 244 159 85 45 2 0 0 0 0 71 155 79 71 2 0 0 0 0 4 14 13 0 0 0 0 0 0 0 0 0 0 0 0 0
1 2 1 20 48 87 45 19 85 591 417 283 276 196 330 226 201 63 74 33 0 0 6 55 181 204 73 27 0 0 0 0 5 0 0 0 0 0 0 0 0 0 0 0 0 0 0 0 0
0 0 1 0 0 0 0 3 9 448 579 425 318 203 279 242 269 85 36 36 0 0 0 38 186 212 136 43 0 0 0 0 2 1 0 0 0 0 0 0 0 0 0 0 0 0 0 0 0
0 0 3 0 0 0 0 2 7 106 326 449 472 247 197 294 369 280 124 49 6 0 0 30 131 189 160 79 3 0 0 0 9 1 0 0 0 0 0 0 0 0 0 0 0 0 0 0 0
0 0 0 0 0 0 0 0 1 2 226 515 512 536 299 268 367 536 406 220 99 20 2 19 73 170 176 77 3 0 0 0 2 0 0 0 0 0 0 0 0 0 0 0 0 0 0 0 0
0 0 0 0 0 0 0 0 0 0 1 56 403 394 433 315 462 661 664 566 436 252 68 22 57 103 133 59 7 0 0 20 3 2 0 0 0 0 0 0 0 0 0 0 0 0 0 0 0
0 0 0 0 0 0 0 0 0 0 0 0 29 262 414 373 407 457 594 659 649 489 288 133 74 86 129 47 25 0 3 11 0 0 0 0 0 0 0 0 0 0 0 0 0 0 0 0 0
0 0 0 0 0 0 0 0 0 0 0 0 0 2 184 393 291 471 643 653 579 459 342 264 176 94 112 55 50 22 0 0 0 0 0 0 0 0 0 0 0 0 0 0 0 0 0 0 0
0 0 0 0 0 0 0 0 0 0 0 0 0 0 0 125 331 319 486 579 564 432 354 287 255 224 124 26 17 7 5 0 0 0 0 0 0 0 0 0 0 0 0 0 0 0 0 0 0
0 0 0 0 0 0 0 0 0 0 0 0 0 0 0 0 88 308 381 500 513 445 381 315 324 336 180 107 49 6 1 0 0 0 0 0 0 0 0 0 0 0 0 0 0 0 0 0 0
0 0 0 0 0 0 0 0 0 0 0 0 0 0 0 0 0 16 184 276 312 287 332 346 314 281 169 131 66 61 0 0 1 0 0 0 0 0 0 0 0 0 0 0 0 0 0 0 0
0 0 0 0 0 0 0 0 0 0 0 0 0 0 0 0 0 0 0 12 75 119 159 180 207 273 205 108 82 22 0 1 2 0 0 0 0 0 0 0 0 0 0 0 0 0 0 0 0
0 0 0 0 0 0 0 0 0 0 0 0 0 0 0 1 0 0 1 4 23 64 104 149 188 253 233 192 111 8 0 2 1 2 1 0 0 0 0 0 0 0 0 0 0 0 0 0 0
0 0 0 0 0 0 0 0 0 0 0 0 0 0 0 11 49 32 45 96 120 99 114 142 166 168 155 70 17 0 1 2 3 3 1 0 0 0 0 0 0 0 0 0 0 0 0 0 0

GFSSGP_con_mlcape_054.txt.gz
CAPE
0 0 0 0 0 0 0 0 0 0 71 772 1356 949 555 1146 1134 558 815 1206 1183 1141 698 458 546 466 359 198 56 22 9 0 0 0 0 0 0 3 16 119 148 192 303 316 182 0 0 0 0
0 0 0 0 0 0 0 0 0 105 567 963 1076 1380 1227 911 983 995 980 923 1302 1124 832 393 443 281 119 33 19 26 8 0 3 0 0 1 13 20 366 335 387 287 362 355 170 0 0 0 0
0 0 0 0 0 0 2 0 0 746 1133 964 1249 1308 1314 970 1235 915 821 1137 1271 966 918 584 365 179 22 20 32 28 28 11 7 11 12 27 15 53 245 417 372 339 506 312 112 0 0 0 0
0 0 0 0 0 0 0 0 236 992 946 1024 1155 1260 1174 1247 1154 1304 1245 1333 1232 919 713 399 258 94 59 44 57 60 53 37 40 58 58 61 28 13 51 238 569 594 406 227 0 0 0 0 0
0 0 0 0 0 0 0 0 485 978 969 913 1011 1111 1204 1343 1062 1273 1377 1135 1083 770 557 273 119 65 93 200 152 93 50 66 86 95 119 70 28 8 17 109 276 337 181 0 0 0 0 0 0
0 0 0 0 0 0 0 30 768 1085 891 844 954 906 1196 1240 1078 713 754 607 604 574 467 172 17 21 157 171 113 58 55 73 107 105 109 75 37 27 23 23 37 5 0 0 0 0 0 0 0
0 0 0 0 0 0 10 643 789 991 858 813 878 771 1270 888 593 403 355 319 195 192 136 4 0 68 65 71 78 92 181 146 136 129 92 61 36 22 8 0 0 0 0 0 0 0 0 0 0
0 0 0 0 0 0 40 491 934 923 1060 1169 1012 853 1023 645 157 159 27 68 1 37 23 10 26 49 69 125 165 75 254 235 173 128 85 58 43 18 0 0 0 0 0 0 0 0 0 0 0
0 0 0 0 0 2 187 50 907 1117 1196 1194 1110 1089 761 263 133 148 27 5 3 3 4 1 0 0 0 2 113 199 169 225 134 63 25 13 14 3 0 0 0 0 0 0 0 0 0 0 0
0 0 1 0 0 0 0 50 529 1164 1165 1170 1175 663 291 135 95 92 20 0 5 4 3 0 0 0 7 58 12 189 172 162 91 50 9 8 16 1 7 0 0 0 0 0 0 0 0 0 0
0 0 0 0 0 0 0 68 747 1034 937 1039 1083 633 318 195 87 1 5 4 4 5 2 5 0 25 30 23 1 12 127 144 84 48 24 20 11 8 2 0 0 0 0 0 0 0 0 0 0
0 0 0 0 0 1 38 692 789 892 921 788 1031 544 316 295 106 3 5 4 2 2 1 0 9 1 0 41 0 0 63 157 70 61 59 32 12 0 0 0 0 0 0 0 0 0 0 0 0
0 0 76 29 34 121 629 737 663 937 1038 1250 797 589 397 418 198 7 3 4 4 3 6 2 14 11 39 37 6 26 118 69 36 56 48 36 12 0 0 0 0 0 0 0 0 0 0 0 0
0 121 389 192 252 468 585 809 797 1036 1104 1065 756 655 433 249 66 33 5 1 1 1 2 0 4 2 5 9 22 72 146 82 93 36 44 29 2 8 1 0 0 0 0 0 0 0 0 0 0
1 163 420 420 423 400 534 477 352 991 1021 921 716 505 462 264 48 41 30 4 0 0 2 0 0 35 38 27 86 105 50 18 9 57 198 59 15 10 0 0 0 0 0 0 0 0 0 0 0
18 185 84 405 420 148 201 51 398 928 980 863 784 588 394 365 119 36 28 6 1 5 6 5 0 24 55 134 127 62 23 14 11 153 294 226 100 6 3 0 0 0 0 0 0 0 0 0 0
13 27 58 162 151 114 139 96 308 954 843 719 666 530 332 289 265 139 85 31 0 2 3 0 0 1 34 211 236 11 48 4 5 135 222 231 353 191 11 0 0 0 0 0 0 0 0 0 0
16 19 45 65 76 138 146 98 86 904 655 540 691 535 577 520 269 218 169 88 59 25 0 0 0 24 155 240 299 82 3 25 98 324 315 249 309 328 95 18 0 0 0 0 0 0 0 0 0
0 6 34 44 33 11 23 49 55 656 779 614 817 577 486 651 503 227 188 102 48 22 15 35 57 110 330 257 145 48 0 31 117 308 345 159 169 144 104 7 0 0 0 0 0 0 0 0 0
2 13 1 22 0 0 27 33 35 295 764 716 737 734 537 685 503 220 237 126 33 12 52 66 88 228 379 280 154 28 0 21 101 218 76 55 21 0 0 0 0 0 0 0 0 0 0 0 0
1 6 1 5 0 0 1 16 33 65 496 752 819 762 455 438 613 509 238 213 163 62 122 229 317 428 564 400 285 69 58 77 114 115 62 5 1 0 0 0 0 0 0 0 0 0 0 0 0
0 3 0 0 0 17 0 15 7 37 78 291 617 872 832 320 501 838 601 322 207 157 94 110 164 275 549 547 283 65 12 14 57 89 19 1 0 0 0 0 0 0 0 0 0 0 0 0 0
8 0 0 0 0 5 4 4 35 0 15 27 122 506 828 833 434 653 944 817 600 362 256 236 250 287 435 579 554 264 48 15 182 284 62 1 0 0 0 0 0 0 0 0 0 0 0 0 0
0 0 0 0 3 0 3 5 35 32 15 11 4 33 362 712 818 590 799 1085 1114 1036 847 672 450 349 429 507 567 597 390 272 390 194 66 12 1 0 0 0 0 0 0 0 0 0 0 0 0
0 4 12 16 11 5 0 0 18 7 0 9 38 77 11 248 740 809 754 949 1161 1230 1296 1118 867 627 546 596 655 714 696 507 421 261 69 3 1 0 0 0 0 0 0 0 0 0 0 0 0
0 14 24 13 13 22 0 1 26 0 0 0 79 21 0 6 197 679 801 917 1069 1209 1322 1188 1007 930 753 749 759 755 661 558 407 168 45 7 0 0 0 0 0 0 0 0 0 0 0 0 0
0 0 5 6 0 0 1 0 0 0 0 0 12 41 1 0 114 272 559 853 1075 1191 1187 1200 1156 1063 1010 750 855 715 469 332 290 133 12 3 0 0 0 0 0 0 0 0 0 0 0 0 0
0 2 1 7 13 5 8 0 3 0 0 0 0 7 176 80 34 83 256 574 881 1068 1054 1115 1123 1070 1058 915 826 663 476 398 270 54 2 2 0 0 0 0 0 0 0 0 0 0 0 0 0
0 0 0 18 8 14 6 1 0 0 0 0 0 3 34 213 154 168 128 167 329 578 703 832 911 965 980 926 861 718 691 543 143 3 2 2 0 0 0 0 0 0 0 0 0 0 0 0 1
37 24 3 13 7 6 14 0 0 0 0 0 0 0 115 323 455 341 384 385 391 453 534 649 748 822 865 913 902 823 330 10 3 2 1 1 1 0 0 0 0 0 0 0 0 0 0 1 0

GFSSGP_con_mlcape_057.txt.gz
CAPE
0 0 0 0 0 0 0 10 12 10 35 64 224 53 94 29 373 208 318 1552 1553 1142 795 934 1041 1030 892 681 426 218 82 9 3 0 0 1 18 37 93 226 429 305 160 0 0 0 0 0 0
0 0 0 0 0 1 5 3 6 9 171 212 702 605 701 542 1049 1211 713 1640 1691 1300 794 890 898 867 721 502 303 155 47 22 0 0 24 50 63 118 168 299 425 406 159 0 0 0 0 0 0
0 0 0 0 0 0 2 3 7 165 493 354 494 728 1027 1077 1237 1140 1180 1345 1559 1283 615 834 684 593 450 312 198 106 89 5 1 45 67 82 443 471 463 387 456 445 141 0 0 0 0 0 0
0 0 0 0 0 11 7 3 11 321 547 656 512 247 1206 1442 1476 1464 1332 1566 1586 1220 548 403 377 315 268 217 157 141 46 2 23 84 70 256 502 561 646 438 494 402 131 0 0 0 0 0 0
0 0 0 1 1 15 0 0 11 302 465 707 525 327 997 1598 1454 1438 1757 1457 1539 848 624 431 141 171 211 153 170 120 29 31 82 111 95 135 248 486 590 578 479 240 33 0 0 0 0 0 0
0 0 0 3 1 0 3 15 99 571 67 714 521 678 1670 1745 1127 1001 1604 1301 543 327 202 167 82 103 82 134 129 87 70 87 145 100 106 88 136 326 448 391 194 63 0 0 0 0 0 0 0
0 0 1 7 9 3 13 369 467 453 202 390 578 590 1551 1171 607 500 853 490 383 328 115 53 49 79 90 68 40 68 153 172 168 120 108 89 75 127 172 155 84 9 0 0 0 0 0 0 0
0 0 2 4 4 10 78 283 727 786 609 880 842 977 1082 942 352 206 251 64 229 174 24 16 4 70 50 74 65 113 158 183 148 108 70 76 58 58 40 15 15 15 4 0 0 0 0 0 0
0 0 6 13 6 29 35 85 542 1081 852 793 1465 1548 1188 749 414 366 232 49 1 5 1 6 10 1 7 39 64 73 220 270 136 81 50 35 25 8 15 15 5 6 0 0 0 0 0 0 0
0 6 13 0 7 13 0 0 148 964 1011 1077 1502 843 588 651 838 525 242 45 3 1 1 1 5 10 25 10 39 60 134 205 101 64 76 45 43 50 50 27 0 0 0 0 0 0 0 0 0
0 0 2 9 1 0 1 5 209 805 481 48 1316 762 507 371 260 211 6 3 5 5 1 0 0 0 0 0 0 0 46 159 62 86 93 127 141 86 48 6 0 0 0 0 0 0 0 0 0
0 1 2 10 0 3 80 222 621 669 888 906 1385 838 496 401 200 43 6 4 4 3 1 0 0 6 3 6 2 31 121 143 111 142 135 162 120 113 47 0 0 0 0 0 0 0 0 0 0
0 0 4 42 5 32 252 606 617 740 1058 1361 991 871 831 682 483 17 3 4 2 1 4 0 3 9 1 0 0 0 46 29 18 64 146 119 84 121 59 31 0 0 0 0 0 0 0 0 0
4 0 34 70 14 55 194 472 442 847 1385 1108 932 784 557 516 196 3 5 3 3 3 7 1 0 0 2 3 20 26 68 72 76 112 160 157 171 115 82 47 1 0 0 0 0 0 0 0 0
0 0 45 115 97 118 207 128 40 988 1232 1037 777 688 549 372 137 30 1 4 3 0 0 0 0 1 4 18 12 16 130 152 122 93 189 155 156 182 54 28 14 0 0 0 0 0 0 0 0
0 5 38 0 49 81 66 19 1 812 853 725 482 110 607 374 122 53 10 6 3 1 1 1 0 0 5 1 8 60 141 70 4 41 138 191 123 111 66 45 9 0 0 0 0 0 0 0 0
1 2 0 45 117 42 24 32 213 581 537 519 580 330 407 580 229 77 61 17 8 4 0 0 0 13 9 28 30 90 113 74 23 24 255 437 224 117 99 41 38 14 0 0 0 0 0 0 0
5 11 22 32 0 20 66 98 34 502 506 543 650 613 494 606 380 141 83 27 13 0 0 0 2 1 24 48 102 32 34 63 4 11 212 401 478 562 201 98 92 31 0 0 0 0 0 0 0
0 0 15 21 0 53 37 19 31 266 520 453 776 656 647 770 515 224 97 43 17 3 0 0 0 20 35 33 24 13 0 0 0 45 297 577 420 475 498 408 200 21 0 0 0 0 0 0 0
0 16 20 47 13 1 4 42 2 101 506 484 653 884 430 690 527 316 204 129 92 24 0 0 0 3 13 9 3 4 0 0 17 80 250 477 412 385 402 355 189 15 0 0 0 0 0 0 0
0 16 32 30 13 1 0 0 0 17 350 482 526 753 507 543 514 375 286 194 147 89 20 0 33 54 73 103 75 50 19 4 8 73 205 339 185 41 43 55 54 1 0 0 0 0 0 0 0
12 19 6 2 6 18 2 26 0 11 75 364 471 516 579 387 638 526 385 343 209 128 131 122 141 167 237 310 234 153 41 5 5 91 171 250 28 2 2 2 1 17 2 0 0 0 0 0 1
7 1 4 4 15 29 37 7 10 0 3 44 186 416 514 349 529 616 467 443 412 263 224 256 326 388 428 494 350 307 176 54 43 106 188 223 37 2 0 0 0 10 0 0 0 0 0 0 0
0 0 1 13 9 21 34 11 3 2 1 10 18 142 401 566 318 592 733 593 492 474 436 379 351 342 344 421 574 483 384 233 53 73 545 264 97 6 5 4 0 0 0 0 0 0 0 0 0
0 3 19 30 32 18 17 10 17 1 6 0 10 48 87 380 613 426 625 913 832 742 653 622 525 496 458 480 569 652 667 653 513 386 661 378 199 48 2 2 0 0 0 0 1 0 0 0 0
0 15 34 19 63 121 24 0 28 3 0 0 0 57 113 125 376 676 596 740 1035 1148 1222 1056 988 930 706 663 761 879 958 897 997 756 720 621 385 114 0 0 0 0 0 0 0 0 0 0 0
5 13 26 35 75 41 90 39 16 0 0 0 0 62 141 96 136 405 744 721 942 1245 1497 1682 1572 1364 1157 980 917 960 921 1228 1135 956 802 502 299 8 0 1 1 0 0 0 0 0 0 0 0
0 28 23 17 25 29 70 97 55 0 0 0 0 0 154 149 115 266 488 804 954 1196 1444 1707 1822 1608 1455 1195 1045 1159 1308 1009 801 587 361 171 22 0 2 0 0 0 0 0 0 0 0 0 0
0 7 23 47 33 44 93 81 29 0 0 0 0 0 0 185 310 253 355 534 865 1128 1483 1740 1752 1694 1522 1370 1391 1101 797 707 622 427 212 73 1 2 2 0 0 0 0 0 0 0 0 0 0
13 6 20 34 74 74 45 124 17 0 0 0 0 0 36 168 289 449 431 385 599 985 1296 1433 1516 1559 1523 1497 1361 1042 803 583 352 150 5 0 0 1 2 0 1 0 0 0 0 0 0 0 0

GFSSGP_con_mlcape_063.txt.gz
CAPE
0 0 0 0 0 0 0 0 0 28 121 215 254 127 68 148 559 411 148 99 175 189 1 398 470 998 1018 878 590 397 275 184 119 26 46 374 520 355 53 0 0 0 0 0 0 0 0 0 0
0 0 0 0 0 0 0 0 0 18 180 259 215 198 71 538 624 620 464 126 44 5 0 0 283 702 977 876 599 355 354 231 198 90 337 606 480 146 8 0 0 0 0 0 0 0 0 0 0
0 0 0 0 0 0 0 0 0 16 268 305 214 194 698 329 207 229 632 633 127 0 160 338 362 883 873 714 506 428 289 180 155 177 594 626 506 118 7 0 0 0 0 0 0 0 0 0 0
0 0 0 0 0 0 0 0 0 0 137 178 388 245 229 255 968 916 1228 1359 526 11 1021 795 690 828 822 698 545 423 164 112 159 251 657 748 589 154 23 23 0 0 0 0 0 0 0 0 0
0 0 0 0 0 0 0 0 24 54 240 140 233 220 27 403 575 780 898 1228 1056 1077 941 696 733 758 666 532 478 215 174 224 225 359 710 786 617 167 59 32 0 0 0 0 0 0 0 0 0
0 0 0 0 0 0 0 0 68 96 149 143 41 69 25 232 321 429 690 1112 842 433 227 145 346 574 495 486 320 217 294 335 457 523 717 767 598 189 55 19 0 0 0 0 0 0 0 0 0
0 0 0 0 0 0 5 9 53 128 74 4 0 1 0 1 213 341 575 804 448 69 29 7 0 0 1 14 104 163 309 315 523 479 602 647 489 124 34 3 0 0 0 0 0 0 0 0 0
0 0 0 0 0 0 2 4 66 12 2 37 25 20 0 0 133 346 573 552 349 97 5 1 0 0 0 20 0 33 70 226 349 453 475 424 229 103 15 0 0 0 0 0 0 0 0 0 0
0 0 0 0 0 0 1 4 0 63 220 223 186 566 228 84 195 332 335 389 230 79 11 3 2 2 1 1 0 0 136 186 209 173 153 136 89 29 0 0 0 0 0 0 0 0 0 0 0
0 0 0 0 0 0 0 0 27 120 73 0 12 140 485 305 292 203 158 167 160 65 5 5 2 1 0 1 0 0 13 41 83 46 69 22 57 28 3 2 0 0 0 0 0 0 0 0 0
0 0 0 0 0 0 0 1 41 20 0 0 38 240 507 349 96 46 36 13 8 1 2 1 3 2 1 2 0 0 0 0 15 26 29 45 54 20 7 0 0 0 0 0 0 0 0 0 0
0 0 0 0 0 0 0 0 0 0 0 1 168 401 262 220 38 0 1 1 1 0 1 2 2 0 0 0 0 0 0 22 36 25 25 20 19 1 0 0 0 0 0 0 0 0 0 0 0
0 0 0 0 0 2 8 0 0 0 0 0 214 386 357 177 0 0 0 2 2 3 2 1 0 0 0 0 0 0 0 37 43 54 60 32 3 0 0 0 0 0 0 0 0 0 0 0 0
0 0 0 0 0 0 0 1 0 0 1 41 398 578 302 9 0 1 1 2 2 2 2 1 2 0 0 0 0 0 0 4 30 31 83 108 53 2 0 0 0 0 0 0 0 0 0 0 0
0 0 0 0 0 0 0 0 8 0 0 247 102 176 59 0 0 0 1 2 1 2 1 2 2 0 0 0 0 0 2 1 2 27 85 152 146 32 15 13 10 0 0 0 0 0 0 0 0
0 0 0 0 0 0 0 0 9 0 0 42 178 193 63 24 3 0 0 1 1 1 1 1 1 0 0 0 0 0 0 0 0 29 109 115 115 136 71 81 36 6 0 0 0 0 0 0 0
0 0 0 0 0 0 0 0 0 0 0 1 0 26 122 29 6 0 0 0 0 0 1 1 0 0 0 0 0 0 0 0 0 48 87 55 95 137 41 36 11 0 0 0 0 0 0 0 0
0 0 0 1 4 0 1 1 0 0 0 1 0 16 158 91 36 0 0 0 0 0 0 0 0 0 0 0 0 0 0 3 13 0 25 12 3 106 53 36 60 0 0 0 0 0 0 0 0
0 0 0 0 17 4 0 2 38 0 0 6 43 13 215 109 59 0 0 0 0 0 0 0 0 0 0 0 0 0 0 0 0 0 0 27 56 64 65 83 67 15 0 0 0 0 0 0 0
0 0 0 0 6 0 9 2 35 28 32 13 99 40 273 179 70 19 0 0 0 0 0 0 0 0 0 0 0 0 0 0 0 0 0 53 123 142 100 54 74 63 17 0 0 0 0 0 0
0 0 0 0 5 0 0 0 32 40 10 1 61 5 257 190 37 23 0 0 0 0 0 0 0 0 0 0 0 0 0 0 2 0 0 2 55 97 183 206 90 57 37 1 0 0 0 0 0
0 0 0 0 6 0 0 0 9 33 46 152 230 256 294 210 44 4 0 0 0 0 0 0 0 0 0 0 0 0 0 0 0 0 0 2 152 200 223 205 175 60 56 17 0 0 0 0 0
0 0 0 0 0 0 0 0 6 10 3 40 504 512 284 351 133 1 0 0 0 0 0 0 0 0 0 0 0 0 0 0 0 0 0 2 52 105 127 148 115 84 37 1 0 0 0 0 0
0 0 0 0 0 0 0 0 0 0 0 2 177 485 232 299 251 102 0 0 0 0 0 0 0 0 0 0 0 0 0 0 0 0 0 0 60 99 110 98 55 21 2 1 0 0 0 0 0
0 0 0 0 0 0 2 10 0 0 0 0 3 252 169 1 412 251 66 0 0 0 0 0 0 0 0 0 0 0 6 0 0 0 0 29 94 113 66 32 9 1 0 0 0 0 0 0 0
0 0 0 0 0 0 0 0 4 2 0 0 1 8 57 205 327 360 243 90 36 3 0 0 0 0 0 0 0 0 12 88 37 3 0 8 40 61 59 27 3 0 0 0 0 0 0 0 0
0 0 0 0 4 0 0 0 0 0 0 0 0 0 34 347 383 417 367 228 127 71 19 0 0 0 0 2 19 60 18 39 148 74 37 51 88 105 95 38 4 0 0 0 0 0 0 0 0
0 0 2 8 14 0 0 14 6 0 0 0 0 0 37 113 304 477 454 368 267 156 65 17 14 10 8 34 64 95 302 245 189 227 195 152 78 135 58 0 0 0 0 0 0 0 0 0 0
0 0 0 0 0 1 0 0 0 0 0 0 0 0 36 109 37 84 357 457 336 264 192 138 72 92 115 89 102 154 189 259 126 184 81 8 0 0 4 0 0 0 0 0 0 0 0 0 0
0 0 0 0 0 19 4 0 0 0 0 0 0 0 0 32 119 115 89 282 460 332 332 361 250 224 260 243 174 254 183 189 176 0 116 2 0 0 0 0 0 0 0 0 0 0 0 0 0

GFSSGP_con_mlcape_066.txt.gz
CAPE
0 0 0 0 0 0 0 0 0 0 0 128 225 120 231 498 494 405 615 710 799 1265 1615 1376 1195 689 846 736 380 302 264 183 262 513 569 448 230 98 26 0 0 0 0 0 0 0 0 0 12
0 0 0 0 0 0 0 0 0 0 0 198 188 249 460 556 460 429 471 574 766 907 639 1360 1298 645 427 389 500 320 290 194 338 602 618 419 217 61 10 1 0 0 0 0 0 0 0 0 0
0 0 0 0 0 0 0 0 0 2 128 222 179 331 597 515 645 485 756 1043 407 184 53 259 1093 680 354 223 582 495 437 364 659 814 612 421 192 64 19 1 0 0 0 0 0 0 0 0 0
0 0 0 0 0 0 0 0 0 4 113 132 372 333 175 717 1132 982 883 1125 717 150 66 112 313 569 448 43 243 518 162 267 649 817 591 386 137 30 2 0 0 0 0 0 0 0 0 0 0
0 0 0 0 0 0 0 0 22 129 121 97 204 128 155 423 416 523 567 1072 747 478 846 666 458 38 303 430 332 108 125 253 737 785 553 341 89 22 6 0 0 0 0 0 0 0 0 0 0
0 0 0 0 0 0 0 17 138 130 117 55 56 37 1 43 11 247 472 1064 894 484 196 20 10 0 14 267 314 7 2 180 739 751 507 302 108 17 0 0 0 0 0 0 0 0 0 0 0
0 0 0 0 0 0 0 74 56 14 7 7 4 1 0 0 1 187 351 538 501 246 18 6 1 0 2 0 87 239 123 356 546 536 447 279 46 0 0 0 0 0 0 0 0 0 0 0 0
0 0 0 0 0 0 0 32 42 3 4 7 0 32 7 9 81 167 184 227 151 77 7 2 3 0 0 0 1 92 109 308 375 306 279 131 0 0 0 0 0 0 0 0 0 0 0 0 0
0 0 0 0 0 0 0 0 57 74 32 58 119 224 252 100 205 310 242 210 148 11 0 0 2 0 0 0 0 0 89 196 206 210 143 48 0 0 0 0 0 0 0 0 0 0 0 0 0
0 0 0 0 0 0 8 6 58 30 11 0 0 100 194 259 219 192 152 111 79 31 2 2 2 1 0 2 3 0 0 85 102 97 45 14 0 0 0 0 0 0 0 0 0 0 0 0 0
0 0 0 0 0 0 0 5 28 1 0 0 0 26 308 252 142 121 50 15 7 5 3 0 2 2 2 2 2 24 1 0 9 63 60 22 0 0 0 0 0 0 0 0 0 0 0 0 0
0 0 0 0 0 0 0 0 0 0 0 0 1 77 187 141 81 18 0 0 1 0 2 2 1 1 1 4 0 0 0 0 0 9 52 3 0 0 0 0 0 0 0 0 0 0 0 0 0
0 0 0 0 0 0 0 6 2 0 0 32 72 128 94 52 2 0 0 1 2 0 2 1 1 0 0 0 0 0 0 0 0 0 4 2 0 0 0 0 0 0 0 0 0 0 0 0 0
0 0 0 0 0 0 0 0 0 0 0 21 171 120 22 0 0 0 0 0 2 1 0 3 1 0 0 0 0 0 0 0 0 5 1 0 0 0 0 0 0 0 0 0 0 0 0 0 0
0 0 0 0 0 0 0 0 0 0 2 137 143 246 19 0 0 0 0 0 2 1 1 1 2 0 0 0 0 0 3 0 8 13 0 0 0 0 0 0 0 0 0 0 0 0 0 0 0
0 0 0 0 0 0 0 0 0 0 26 3 50 152 0 0 0 0 0 2 1 1 1 1 1 0 0 0 0 6 0 0 26 59 46 4 3 0 0 0 0 0 0 0 0 0 0 0 0
0 0 0 0 0 0 0 0 0 0 0 0 24 19 0 0 0 0 0 1 1 1 2 2 1 0 0 0 0 4 0 0 23 40 70 59 73 36 9 20 25 3 0 0 0 0 0 0 0
0 0 0 0 0 1 12 7 0 0 0 0 0 20 18 24 1 0 0 0 0 1 1 1 1 0 0 0 0 0 0 0 4 4 36 42 58 90 45 45 26 0 0 0 0 0 0 0 0
0 0 0 0 0 7 21 3 0 0 0 3 7 16 17 46 0 0 0 0 0 0 1 0 0 0 0 0 0 0 0 0 0 0 11 30 6 76 47 37 39 10 0 0 0 0 0 0 0
0 0 0 0 0 12 7 1 0 0 0 3 34 22 46 42 9 0 0 0 0 0 0 0 0 0 0 0 0 0 0 0 0 0 0 0 1 6 69 51 28 9 0 0 0 0 0 0 0
0 0 0 0 0 0 0 0 5 0 0 0 10 50 60 78 17 0 0 0 0 0 0 0 0 0 0 0 0 0 0 0 0 0 0 0 0 23 39 51 20 13 9 1 0 0 0 0 0
0 0 0 0 0 0 0 0 0 0 0 1 0 40 111 97 6 0 0 0 0 0 0 0 0 0 0 0 0 0 0 0 0 0 0 0 0 57 68 48 32 3 9 1 0 0 0 0 0
0 0 0 0 0 0 0 0 0 0 0 0 13 71 127 84 77 0 0 0 0 0 0 0 0 0 0 0 0 0 0 0 0 0 0 0 0 11 45 70 68 55 31 2 2 0 0 0 0
0 0 0 0 0 0 0 0 0 0 0 0 13 55 84 114 107 22 0 0 0 0 0 0 0 0 0 0 0 0 0 0 0 0 0 0 0 0 12 48 63 48 30 5 0 0 0 0 0
0 0 0 0 0 0 0 0 0 0 0 0 5 105 91 132 59 38 0 0 0 0 0 0 0 0 0 0 0 0 0 0 0 0 0 0 0 9 47 70 60 30 21 2 0 0 0 0 0
0 0 0 0 0 0 0 0 0 0 0 0 26 160 212 233 152 7 0 0 0 0 0 0 0 0 0 0 0 0 0 0 0 0 0 0 0 1 23 7 7 6 9 0 0 0 0 0 0
0 0 0 0 0 0 0 0 0 0 0 0 0 137 245 208 257 111 1 0 0 0 0 0 0 0 0 0 0 0 0 0 2 0 0 0 0 0 0 7 0 6 0 0 0 0 0 0 0
0 0 0 0 0 0 0 0 0 0 0 0 0 0 48 94 38 170 156 20 0 0 0 0 0 0 0 0 0 0 0 4 18 50 4 0 0 4 15 8 1 0 0 0 0 0 0 0 0
0 0 0 0 2 0 0 0 0 0 0 0 0 0 0 7 94 121 352 240 87 3 0 0 0 0 0 0 0 0 5 43 43 25 16 3 3 60 11 0 0 0 0 0 0 0 0 0 0
0 0 0 0 0 0 0 0 0 0 0 0 0 0 0 4 17 131 339 371 253 130 50 17 0 0 0 0 0 14 44 132 184 177 29 37 0 6 0 0 0 0 0 0 0 0 1 0 0

GFSSGP_con_mlcape_069.txt.gz
CAPE
0 0 0 0 0 0 0 0 0 0 0 11 30 50 146 308 285 255 484 482 701 1642 1416 1360 919 617 510 478 551 746 854 882 707 627 480 309 220 143 39 2 0 4 3 8 11 7 13 4 0
0 0 0 0 0 0 0 0 0 0 0 4 50 162 374 342 481 592 756 843 723 1206 1541 1454 1151 920 475 125 116 180 935 916 786 590 419 336 233 130 10 0 0 14 8 6 4 4 4 7 2
0 0 0 0 0 0 0 0 0 0 0 44 45 273 407 427 649 591 664 814 981 923 854 1592 1265 685 433 300 173 64 342 877 752 517 430 293 190 96 2 0 0 5 6 3 0 0 0 0 0
0 0 0 0 0 0 0 0 0 0 0 6 115 153 136 633 996 951 886 805 1006 867 512 559 1234 594 613 394 207 148 140 661 758 503 385 303 200 79 0 0 0 2 2 0 0 0 0 0 0
0 0 0 0 0 0 0 0 0 0 7 19 79 35 100 534 552 470 567 722 1173 767 375 186 150 1 0 0 291 290 94 650 749 463 339 289 184 27 0 0 0 0 0 0 0 0 0 0 0
0 0 0 0 0 0 0 0 18 15 20 12 27 18 35 208 25 405 566 957 808 512 364 98 0 0 2 0 0 123 11 584 678 377 338 274 145 1 0 0 0 0 0 0 0 0 0 0 0
0 0 0 0 0 0 0 7 34 14 0 0 21 1 0 0 72 400 512 347 212 71 34 0 0 0 0 0 0 188 1 12 525 276 232 167 60 0 0 0 0 0 0 0 0 0 0 0 0
0 0 0 0 0 0 0 19 11 7 1 20 11 0 0 19 158 303 236 142 42 8 1 2 2 0 0 0 0 18 2 423 395 274 187 87 6 0 0 0 0 0 0 0 0 0 0 0 0
0 0 0 0 0 0 0 0 19 38 23 16 67 81 167 73 169 238 209 154 77 33 17 1 1 0 0 0 0 0 1 398 332 245 133 46 0 0 0 0 0 0 0 0 0 0 0 0 0
0 0 0 0 0 0 0 0 10 0 0 0 0 0 113 129 124 102 140 105 71 30 1 1 1 0 0 4 0 0 0 53 165 146 82 13 0 0 0 0 0 0 0 0 0 0 0 0 0
0 0 0 0 0 0 0 0 5 0 0 0 0 0 45 119 49 33 2 24 2 2 1 2 2 1 3 1 4 3 1 1 61 90 50 8 0 0 0 0 0 0 0 0 0 0 0 0 0
0 0 0 0 0 0 0 0 0 0 0 0 0 11 60 72 79 13 0 0 1 1 0 1 2 3 2 1 0 3 35 38 47 54 27 0 0 0 0 0 0 0 0 0 0 0 0 0 0
0 0 0 0 0 0 0 0 0 0 0 0 1 57 34 44 19 0 0 0 0 1 1 1 1 1 0 3 0 0 0 7 5 30 35 1 0 0 0 0 0 0 0 0 0 0 0 0 0
0 0 0 0 0 0 0 0 0 0 0 0 25 40 10 0 0 0 0 0 0 0 1 2 1 1 0 0 0 0 0 0 3 13 0 0 0 0 0 0 0 0 0 0 0 0 0 0 0
0 0 0 0 0 0 0 0 0 0 0 0 48 19 0 0 0 0 0 0 2 0 1 1 1 1 0 0 0 0 1 0 4 1 0 0 0 0 0 0 0 0 0 0 0 0 0 0 0
0 0 0 0 0 0 0 0 0 0 0 0 46 58 0 7 0 0 0 1 0 1 1 2 3 2 0 0 0 0 0 0 1 5 5 1 0 0 0 0 0 0 0 0 0 0 0 0 0
0 0 0 0 0 0 0 0 0 0 0 1 0 27 2 0 0 0 0 1 0 0 1 1 1 2 1 0 0 0 0 15 20 24 7 3 0 0 0 0 0 0 0 0 0 0 0 0 0
0 0 0 0 0 0 0 0 0 0 0 0 0 10 0 0 0 0 0 0 1 0 2 1 1 1 0 0 0 0 0 42 52 32 11 2 0 0 0 0 0 0 0 0 0 0 0 0 0
0 0 0 0 0 0 0 0 0 0 0 0 0 0 0 0 0 0 0 0 2 1 1 1 0 0 0 0 0 2 7 14 38 66 76 73 50 42 17 41 45 15 4 0 0 0 0 0 0
0 0 0 0 0 0 0 0 0 0 0 0 0 0 0 0 0 0 0 0 0 1 1 1 0 0 0 0 0 0 0 0 0 5 26 45 52 68 95 56 55 25 1 0 0 0 0 0 0
0 0 0 0 0 0 0 0 0 0 0 0 0 0 0 0 0 0 0 0 0 0 0 0 0 0 0 0 0 0 0 0 0 0 2 5 25 49 32 80 37 26 3 6 0 0 0 0 0
0 0 0 0 0 0 0 0 0 0 0 0 0 0 0 0 0 0 0 0 0 0 0 0 0 0 0 0 0 0 0 0 0 0 0 0 0 0 21 36 60 54 18 9 0 0 0 0 0
0 0 0 0 0 0 0 0 0 0 0 0 0 0 0 0 0 0 0 0 0 0 0 0 0 0 0 0 0 0 0 0 0 0 0 0 0 0 0 31 21 20 9 22 2 0 0 0 0
0 0 0 0 0 0 0 0 0 0 0 0 0 0 0 1 0 0 0 0 0 0 0 0 0 0 0 0 0 0 0 0 0 0 0 0 0 0 0 0 12 24 20 9 2 0 0 0 0
0 0 0 0 0 0 0 0 0 0 0 0 0 0 0 6 9 0 0 0 0 0 0 0 0 0 0 0 0 0 0 0 0 0 0 0 0 0 0 0 1 6 29 19 8 0 0 0 0
0 0 0 0 0 0 0 0 0 0 0 0 0 0 0 2 34 6 0 0 0 0 0 0 0 0 0 0 0 0 0 0 0 0 0 0 0 0 0 6 1 0 0 2 5 0 0 0 0
0 0 0 0 0 0 0 0 0 0 0 0 0 0 0 0 43 39 7 0 0 0 0 0 0 0 0 0 0 0 0 0 0 0 0 0 0 0 0 0 1 2 6 4 10 0 0 0 0
0 0 0 0 0 0 0 0 0 0 0 0 0 2 1 13 56 57 17 9 0 0 0 0 0 0 0 0 0 0 0 0 0 0 0 0 0 0 0 0 0 0 0 0 0 0 0 0 0
0 0 0 0 0 0 0 0 0 0 0 0 0 0 1 19 70 118 112 15 0 0 0 0 0 0 0 0 0 0 0 0 0 0 0 0 0 0 0 4 2 2 0 0 0 0 0 0 0
0 0 0 0 0 0 0 0 0 0 0 0 0 0 0 6 17 63 184 119 0 0 0 0 0 0 0 0 0 0 0 0 0 0 0 2 49 4 0 33 0 0 0 0 0 0 0 0 0

GFSSGP_con_mlcape_072.txt.gz
CAPE
0 0 0 0 0 0 0 0 0 0 0 0 0 9 27 116 137 92 400 556 685 1664 1494 1275 804 445 854 659 451 969 1028 948 893 824 717 589 486 367 160 94 59 12 2 6 8 8 8 7 6
0 0 0 0 0 0 0 0 0 0 0 0 42 48 92 163 300 446 726 729 831 1431 1404 1224 1048 977 1067 815 397 635 922 822 877 735 571 441 336 213 95 95 63 33 12 8 9 11 4 0 0
0 0 0 0 0 0 0 0 0 0 0 0 0 54 210 234 495 527 595 772 984 1153 1129 1112 1195 1010 1077 1090 981 968 549 583 535 496 434 311 185 133 152 104 62 73 73 111 55 16 3 0 0
0 0 0 0 0 0 0 0 0 0 0 0 0 3 14 346 764 764 768 694 822 1152 780 793 528 242 454 388 396 465 1015 824 685 525 359 203 135 94 168 98 76 36 8 4 5 8 17 0 0
0 0 0 0 0 0 0 0 0 0 0 0 15 14 16 373 606 399 467 671 907 1180 622 373 126 11 60 50 10 27 474 597 541 503 340 178 147 74 126 112 37 3 0 0 3 4 0 0 0
0 0 0 0 0 0 0 0 0 0 0 2 1 3 0 89 91 202 624 801 988 1044 625 164 168 5 0 0 0 0 202 397 336 344 310 210 134 57 100 56 1 0 0 0 0 0 0 0 0
0 0 0 0 0 0 0 0 0 0 0 0 0 1 0 1 41 354 519 558 492 404 249 34 28 13 0 0 0 1 105 82 174 225 366 157 85 63 9 1 0 0 0 0 0 0 0 0 0
0 0 0 0 0 0 0 0 0 0 0 6 5 4 0 0 162 288 237 220 128 75 11 0 0 0 0 0 0 0 70 200 9 114 271 165 69 29 0 0 0 0 0 0 0 0 0 0 0
0 0 0 0 0 0 0 0 0 0 0 1 28 70 89 93 140 215 118 88 53 5 3 0 3 2 0 0 0 0 53 73 70 208 192 149 27 0 0 0 0 0 0 0 0 0 0 0 0
0 0 0 0 0 0 0 0 0 0 0 0 0 0 81 138 143 138 147 87 46 14 0 0 0 0 0 0 0 14 73 33 43 64 119 88 0 0 0 0 0 0 0 0 0 0 0 0 0
0 0 0 0 0 0 0 0 0 0 0 0 0 0 36 92 70 53 87 127 50 27 1 1 1 2 2 0 0 1 8 29 74 40 117 1 0 0 0 0 0 0 0 0 0 0 0 0 0
0 0 0 0 0 0 0 0 0 0 0 0 0 0 19 35 19 15 0 5 10 0 0 1 2 1 3 3 0 0 5 32 13 11 47 0 0 0 0 0 0 0 0 0 0 0 0 0 0
0 0 0 0 0 0 0 0 0 0 0 0 0 4 13 18 11 0 0 0 1 2 0 1 2 4 1 2 0 0 9 6 26 23 9 0 0 0 0 0 0 0 0 0 0 0 0 0 0
0 0 0 0 0 0 0 0 0 0 0 0 0 10 34 15 0 1 2 3 1 9 9 1 3 2 0 0 1 1 12 21 38 36 0 0 0 0 0 0 0 0 0 0 0 0 0 0 0
0 0 0 0 0 0 0 0 0 0 0 0 0 9 44 25 0 0 0 1 1 4 3 1 2 2 2 0 3 2 23 24 22 27 13 0 0 0 0 0 0 0 0 0 0 0 0 0 0
0 0 0 0 0 0 0 0 0 0 0 0 0 23 46 19 0 0 0 0 0 0 0 0 2 1 0 0 0 0 7 10 11 21 14 0 0 0 0 0 0 0 0 0 0 0 0 0 0
0 0 0 0 0 0 0 0 0 0 0 0 0 10 70 30 0 0 0 0 0 0 1 2 2 1 1 0 0 0 3 2 5 5 11 1 0 0 0 0 0 0 0 0 0 0 0 0 0
0 0 0 0 0 0 0 0 0 0 0 0 0 0 6 21 3 0 0 0 0 0 1 1 1 1 1 0 0 3 12 18 0 0 0 0 0 0 0 0 0 0 0 0 0 0 0 0 0
0 0 0 0 0 0 0 0 0 0 0 0 0 0 0 0 0 0 0 1 0 1 1 1 0 1 0 0 0 1 0 2 0 0 3 0 0 0 0 0 0 0 0 0 0 0 0 0 0
0 0 0 0 0 0 0 0 0 0 0 0 0 0 0 0 0 0 0 0 1 0 0 0 1 0 0 0 0 0 0 0 0 1 0 5 0 0 1 2 14 19 28 3 0 0 0 0 0
0 0 0 0 0 0 0 0 0 0 0 0 0 0 0 0 0 0 0 0 2 0 0 0 0 0 0 0 0 0 0 0 1 17 19 31 46 26 42 39 51 72 48 25 0 0 0 0 0
0 0 0 0 0 0 0 0 0 0 0 0 0 0 0 0 0 0 0 0 0 1 0 0 0 0 0 0 0 0 0 0 0 0 0 5 27 34 72 90 71 61 26 12 0 0 0 0 0
0 0 0 0 0 0 0 0 0 0 0 0 0 0 0 0 0 0 0 0 0 0 0 0 0 0 0 0 0 0 0 0 0 0 0 0 0 0 4 13 36 33 44 26 10 0 0 0 0
0 0 0 0 0 0 0 0 0 0 0 0 0 0 0 0 0 0 0 0 0 0 0 0 0 0 0 0 0 0 0 0 0 0 0 0 0 0 0 0 0 11 38 54 43 14 6 0 0
0 0 0 0 0 0 0 0 0 0 0 0 0 0 0 0 0 0 0 0 0 0 0 0 0 0 0 0 0 0 0 0 0 0 0 0 0 0 0 0 0 0 10 34 47 36 23 3 0
0 0 0 0 0 0 0 0 0 0 0 0 0 0 0 0 0 0 0 0 0 0 0 0 0 0 0 0 0 0 0 0 0 0 0 0 0 0 0 0 0 1 4 15 11 13 0 0 0
0 0 0 0 0 0 0 0 0 0 0 0 0 0 0 0 0 0 0 0 0 0 0 0 0 0 0 0 0 0 0 0 0 0 0 0 0 0 0 0 0 0 0 0 3 5 0 0 0
0 0 0 0 0 0 0 0 0 0 0 0 0 0 0 0 0 0 0 0 0 0 0 0 0 0 0 0 0 0 0 0 0 0 0 0 0 0 0 0 0 0 0 0 0 5 2 0 0
0 0 0 0 0 0 0 0 0 0 0 0 0 0 0 0 0 0 0 0 0 0 0 0 0 0 0 0 0 0 0 0 0 0 0 0 0 0 0 0 0 0 0 0 0 0 0 0 0
0 0 0 0 0 0 0 0 0 0 0 0 0 0 0 0 0 0 10 2 0 0 0 0 0 0 0 0 0 0 0 0 0 0 0 0 0 0 0 0 5 0 0 0 0 0 0 0 0

GFSSGP_con_mlcape_075.txt.gz
CAPE
0 0 0 0 0 0 0 0 0 0 0 0 0 0 7 32 61 43 342 471 664 1501 1552 1260 1198 1063 1113 1380 1498 1362 1302 1180 988 937 844 767 669 590 498 360 277 198 73 27 18 17 20 9 4
0 0 0 0 0 0 0 0 0 0 0 0 10 50 66 63 193 320 707 681 761 1726 1723 1412 1258 1137 1023 1302 1508 1586 1465 1163 897 820 942 829 601 457 348 195 125 40 3 2 4 10 19 13 11
0 0 0 0 0 0 0 0 0 0 0 0 0 16 131 118 285 368 593 533 887 1182 1514 1249 1112 934 773 883 1442 1624 1525 1311 981 841 898 768 478 342 210 130 114 48 7 5 10 21 17 9 0
0 0 0 0 0 0 0 0 0 0 0 0 9 13 27 152 474 554 555 577 731 1000 1203 1035 959 801 621 614 847 996 1445 1316 1097 943 827 595 385 264 148 84 74 17 5 30 16 7 1 0 0
0 0 0 0 0 0 0 0 0 0 0 0 3 0 0 110 443 236 300 445 703 951 1049 722 884 649 568 469 425 448 653 706 870 915 713 447 361 195 84 75 124 177 281 137 18 2 0 0 0
0 0 0 0 0 0 0 0 0 0 0 0 0 0 0 34 106 124 350 491 760 782 554 655 590 429 190 141 95 102 314 48 169 541 524 341 302 102 71 65 13 3 5 0 37 0 0 0 0
0 0 0 0 0 0 0 0 0 0 0 0 0 0 0 1 8 222 266 296 384 382 319 279 307 240 144 104 4 0 104 361 232 292 423 211 155 80 107 8 0 0 0 4 1 0 0 0 0
0 0 0 0 0 0 0 0 0 0 0 0 0 0 0 0 43 148 120 176 155 52 55 75 79 67 50 13 0 2 14 246 274 227 239 96 119 113 44 0 0 64 46 0 0 0 0 0 0
0 0 0 0 0 0 0 0 0 0 0 0 0 3 17 28 89 72 69 103 71 60 32 9 2 1 0 0 0 0 5 107 181 207 117 37 50 40 8 0 0 82 0 0 0 0 0 0 0
0 0 0 0 0 0 0 0 0 0 0 0 0 11 24 28 88 83 57 98 89 58 30 10 6 0 0 0 0 0 0 171 140 107 70 11 9 8 0 0 0 57 0 0 0 0 0 0 0
0 0 0 0 0 0 0 0 0 0 0 0 0 0 0 23 56 82 44 48 55 36 13 39 2 0 0 0 0 0 0 71 27 44 48 0 2 0 0 0 0 18 0 0 0 0 0 0 0
0 0 0 0 0 0 0 0 0 0 0 0 0 0 0 12 3 0 2 6 18 3 10 0 0 1 2 0 0 2 0 6 19 32 12 4 0 0 0 0 0 0 1 8 2 0 0 0 0
0 0 0 0 0 0 0 0 0 0 0 0 0 0 0 19 0 0 0 0 2 7 7 2 1 1 0 0 0 8 3 2 0 35 0 0 0 0 0 0 0 0 0 0 0 0 0 0 0
0 0 0 0 0 0 0 0 0 0 0 0 0 0 0 4 9 0 0 0 3 11 6 6 2 1 0 0 0 2 4 2 0 3 1 0 0 0 0 0 0 0 0 0 0 0 0 0 0
0 0 0 0 0 0 0 0 0 0 0 0 0 1 23 18 0 0 0 1 0 1 13 26 6 1 0 0 0 1 9 4 2 4 3 0 0 0 0 0 0 0 0 0 0 0 0 0 0
0 0 0 0 0 0 0 0 0 0 0 0 0 14 43 27 8 2 1 0 1 0 12 6 3 1 1 2 5 4 5 17 0 12 0 0 0 0 0 0 0 0 0 0 0 0 0 0 0
0 0 0 0 0 0 0 0 0 0 0 0 0 11 65 43 1 2 1 1 0 0 1 1 1 1 2 2 8 1 0 0 0 4 0 0 0 0 0 0 0 0 0 0 0 0 0 0 0
0 0 0 0 0 0 0 0 0 0 0 0 0 0 33 58 15 0 1 0 0 1 1 2 2 2 1 1 1 0 2 12 11 13 0 0 0 0 0 0 0 0 0 0 0 0 0 0 0
0 0 0 0 0 0 0 0 0 0 0 0 0 0 4 18 20 3 2 1 1 1 2 2 1 1 1 1 3 0 0 1 3 10 0 0 0 0 0 0 0 0 5 0 0 0 0 0 0
0 0 0 0 0 0 0 0 0 0 0 0 0 0 0 0 0 1 2 2 3 2 1 2 1 1 2 0 5 1 0 0 14 8 5 2 0 0 0 0 0 0 6 1 0 0 0 0 0
0 0 0 0 0 0 0 0 0 0 0 0 0 0 0 0 0 0 0 0 2 1 2 2 0 1 1 0 0 0 0 1 1 1 7 1 0 0 0 0 0 0 0 7 4 1 2 0 0
0 0 0 0 0 0 0 0 0 0 0 0 0 0 0 0 0 0 0 0 1 1 0 3 2 1 1 0 0 0 1 0 1 0 0 0 0 0 0 0 0 3 33 57 53 22 16 0 0
0 0 0 0 0 0 0 0 0 0 0 0 0 0 0 0 0 0 0 0 0 0 1 1 1 1 1 2 0 0 1 0 0 0 0 1 0 0 1 10 31 45 50 100 84 44 14 0 0
0 0 0 0 0 0 0 0 0 0 0 0 0 0 0 0 0 0 0 0 0 1 2 1 2 2 0 0 0 0 0 0 0 0 0 0 0 1 23 38 60 113 121 134 141 97 36 16 0
0 0 0 0 0 0 0 0 0 0 0 0 0 0 0 0 0 0 0 0 0 0 0 0 2 2 1 0 0 0 0 0 0 0 0 0 0 2 12 7 6 10 21 61 78 99 42 29 12
0 0 0 0 0 0 0 0 0 0 0 0 0 0 0 0 0 0 0 0 0 0 0 0 0 1 1 0 0 0 0 0 0 0 0 0 0 0 0 0 1 2 0 0 14 27 44 36 4
0 0 0 0 0 0 0 0 0 0 0 0 0 0 0 0 0 0 0 0 0 0 0 0 0 0 0 0 0 0 0 0 0 0 0 0 0 0 0 0 0 0 0 0 11 21 38 24 6
0 0 0 0 0 0 0 0 0 0 0 0 0 0 0 0 0 0 0 0 0 0 0 0 0 0 0 0 0 0 0 0 0 0 0 0 0 0 0 0 0 0 0 0 10 18 30 9 0
0 0 0 0 0 0 0 0 0 0 0 0 0 0 0 0 0 0 0 0 0 0 0 0 0 0 0 0 0 0 0 0 0 0 0 0 0 0 0 0 0 0 0 0 5 17 14 2 6
0 0 0 0 0 0 0 0 0 0 0 0 0 0 0 0 0 0 0 0 0 0 0 0 0 0 0 0 0 0 0 0 0 0 0 0 0 0 0 0 0 0 0 1 1 4 1 1 0

GFSSGP_con_mlcape_078.txt.gz
CAPE
0 0 0 0 0 0 0 0 0 0 0 0 0 0 5 47 24 35 775 901 1046 1579 1456 1276 1228 1149 1254 1833 1699 1441 1441 1387 1175 946 792 849 919 966 967 648 452 258 168 277 134 34 13 5 0
0 0 0 0 0 0 0 0 0 0 0 0 0 32 60 32 227 596 981 965 1051 1656 1794 1421 1345 1161 1418 1777 1834 1694 1664 1420 1194 1036 988 1178 1097 1009 967 672 529 297 121 140 35 12 17 7 0
0 0 0 0 0 0 0 0 0 0 0 0 1 38 100 68 420 733 1006 858 1234 1319 2144 1617 1336 1253 1236 1209 1733 1722 1648 1462 1276 1181 1136 1169 1070 893 769 483 260 113 83 66 20 15 9 1 0
0 0 0 0 0 0 0 0 0 0 0 0 1 19 88 295 684 796 912 895 949 935 1715 1458 1344 1171 864 485 927 672 1370 1474 1292 1309 1231 1117 966 801 531 224 62 13 5 7 15 17 8 0 0
0 0 0 0 0 0 0 0 0 0 0 0 27 2 34 147 688 619 670 751 940 1242 1317 1185 1131 768 537 548 610 409 693 965 1059 1114 1183 1043 960 733 463 211 52 17 2 4 8 12 4 0 0
0 0 0 0 0 0 0 0 0 0 0 12 2 0 16 109 355 503 637 748 889 1156 1150 1262 777 629 418 161 328 373 692 507 818 541 868 986 881 644 405 147 94 68 13 0 5 2 0 0 0
0 0 0 0 0 0 0 0 0 0 0 0 0 0 0 34 83 396 227 315 503 762 879 1054 1135 627 314 133 244 465 592 679 510 372 364 531 603 528 271 254 200 97 66 0 0 0 0 0 0
0 0 0 0 0 0 0 0 0 0 0 0 0 0 0 27 189 319 331 227 157 208 238 492 785 483 291 152 0 96 328 232 150 108 112 230 317 311 210 159 195 129 80 0 0 0 0 0 0
0 0 0 0 0 0 0 0 0 0 0 0 10 2 85 112 295 352 236 77 16 12 53 49 53 204 213 106 50 2 26 177 99 82 38 167 231 164 145 106 128 73 0 0 0 0 0 0 0
0 0 0 0 0 0 0 0 0 0 0 0 7 40 124 198 286 293 308 90 25 12 0 5 16 46 43 15 39 105 101 143 166 128 112 118 114 109 152 160 130 47 0 0 0 0 0 0 0
0 0 0 0 0 0 0 0 0 0 0 0 0 0 87 138 169 282 313 321 167 117 3 3 2 25 5 1 0 0 66 100 98 109 3 83 82 137 147 183 127 8 0 0 0 0 0 0 0
0 0 0 0 0 0 0 0 0 0 0 0 0 0 14 69 129 223 249 275 273 335 180 28 1 5 2 0 0 4 29 48 106 26 0 8 42 93 138 149 59 1 0 0 0 0 0 0 0
0 0 0 0 0 0 0 0 0 0 0 0 0 0 8 45 134 153 155 173 163 124 222 114 44 11 19 15 11 3 0 6 2 2 0 5 33 25 47 100 116 31 8 0 0 0 0 0 0
0 0 0 0 0 0 0 0 0 0 0 0 0 0 22 50 164 139 105 11 0 59 4 41 6 4 6 8 14 3 1 3 1 0 1 10 22 22 4 4 25 71 81 26 1 0 0 0 0
0 0 0 0 0 0 0 0 0 0 0 0 0 5 53 89 179 158 69 18 2 4 12 4 19 7 2 6 3 4 4 2 1 0 0 7 14 4 0 0 0 3 28 5 0 0 0 0 0
0 0 0 0 0 0 0 0 0 0 0 0 5 20 77 115 167 124 18 0 3 4 14 6 22 3 5 6 6 4 2 2 1 0 0 0 5 0 0 0 0 0 0 0 0 0 0 0 0
0 0 0 0 0 0 0 0 0 0 0 0 0 46 76 177 175 126 22 5 2 1 13 14 6 1 1 2 3 4 4 1 2 0 0 0 0 0 0 0 0 0 0 0 0 0 0 0 0
0 0 0 0 0 0 0 0 0 0 0 0 0 22 81 150 177 109 8 2 0 0 8 28 2 1 2 2 7 3 3 1 0 0 0 0 0 0 0 0 0 0 0 0 0 0 0 0 0
0 0 0 0 0 0 0 0 0 0 0 0 0 0 38 94 258 76 16 1 0 2 10 9 0 2 2 2 5 2 4 4 0 0 0 0 0 0 7 9 0 0 0 0 0 0 0 0 0
0 0 0 0 0 0 0 0 0 0 0 0 0 0 20 65 217 37 1 0 0 3 6 4 2 2 3 11 12 4 3 15 0 0 0 0 0 0 0 0 4 5 11 0 0 0 0 1 0
0 0 0 0 0 0 0 0 0 0 0 0 0 0 0 50 125 35 0 0 0 2 3 3 3 2 4 7 19 8 2 19 5 0 0 0 0 0 0 1 6 1 8 6 1 0 0 12 0
0 0 0 0 0 0 0 0 0 0 0 0 0 0 0 1 59 66 0 0 0 0 2 3 3 3 2 1 5 6 3 1 1 0 0 0 0 0 1 0 1 0 22 31 60 31 37 70 61
0 0 0 0 0 0 0 0 0 0 0 0 0 0 0 0 10 32 11 0 0 0 1 5 6 4 3 1 4 5 5 3 2 0 0 0 0 7 0 2 1 18 85 81 129 99 73 105 127
0 0 0 0 0 0 0 0 0 0 0 0 0 0 0 0 0 41 39 0 0 0 3 4 1 3 10 3 1 2 2 2 2 1 3 0 0 0 0 0 21 24 63 100 195 247 207 188 120
0 0 0 0 0 0 0 0 0 0 0 0 0 0 0 0 0 19 42 2 0 0 0 2 2 2 4 5 3 4 1 0 0 0 1 0 0 0 0 0 0 14 44 98 153 120 150 139 110
0 0 0 0 0 0 0 0 0 0 0 0 0 0 0 0 0 0 28 13 0 0 0 0 0 1 4 1 8 3 2 0 0 6 4 0 0 0 0 0 0 9 36 78 61 68 86 183 155
0 0 0 0 0 0 0 0 0 0 0 0 0 0 0 0 0 1 15 25 5 0 0 0 0 0 1 3 5 6 9 6 4 8 4 0 0 0 0 9 13 43 53 42 48 55 112 123 145
4 0 0 0 1 0 0 0 0 0 0 0 0 0 0 0 0 2 19 38 21 0 0 0 0 0 0 0 3 1 3 6 6 8 4 3 1 0 3 12 14 18 35 51 45 35 35 53 105
0 0 0 0 0 0 0 0 0 0 0 0 0 0 0 0 12 2 20 24 28 18 0 0 0 0 0 0 0 0 0 1 3 2 1 1 2 0 0 0 7 10 10 8 16 13 19 41 67
0 0 0 0 0 0 0 0 0 0 0 0 0 0 0 0 14 70 63 34 29 29 13 0 0 0 0 0 0 0 0 0 0 0 0 0 0 0 0 0 0 0 0 0 0 0 18 50 22

GFSSGP_con_mlcape_081.txt.gz
CAPE
0 0 0 0 0 0 0 0 0 0 0 0 0 0 0 0 0 45 1069 1269 1515 1695 1571 1262 1008 1108 1330 1816 1574 1269 1175 1391 1256 1013 765 824 1038 1074 974 846 730 484 492 547 450 274 103 20 2
0 0 0 0 0 0 0 0 0 0 0 0 0 0 0 2 23 182 931 1311 1409 1794 1627 1687 1079 1087 1266 1696 1712 1468 1360 1469 1319 1070 989 1088 1234 1193 1085 744 624 426 410 442 281 154 37 3 0
0 0 0 0 0 0 0 0 0 0 0 0 0 0 3 20 131 599 1214 1203 1558 1743 1942 1826 1278 1139 1123 1619 1725 1560 1349 1342 1206 1136 1151 1258 1314 1117 1031 713 539 351 385 323 195 54 7 0 0
0 0 0 0 0 0 0 0 0 0 0 0 0 0 2 97 479 836 1112 1074 1294 1529 1987 1602 1250 969 1062 1440 1361 1326 1001 805 1209 1202 1268 1356 1348 1262 1033 757 518 396 315 169 73 9 4 0 0
0 0 0 0 0 0 0 0 0 0 0 0 0 0 0 97 719 810 871 904 1142 1619 1695 1918 1312 1120 965 828 555 476 365 393 654 1104 1320 1231 1342 1060 755 580 482 283 202 105 15 6 0 0 0
0 0 0 0 0 0 0 0 0 0 0 0 0 0 0 258 324 697 858 882 1049 1346 1623 1639 1237 875 471 318 115 106 24 0 295 743 739 968 1053 753 468 280 155 97 73 31 1 1 0 0 0
0 0 0 0 0 0 0 0 0 0 0 0 2 0 5 41 226 632 384 543 705 1019 1431 1548 1303 790 249 47 19 93 61 10 257 382 436 424 545 545 309 183 171 115 0 0 0 0 0 0 0
0 0 0 0 0 0 0 0 0 0 0 0 0 0 0 95 247 404 483 488 594 629 893 1405 954 614 279 82 23 97 222 169 177 400 280 238 300 338 221 184 161 82 0 0 0 0 0 0 0
0 0 0 0 0 0 0 0 0 0 0 0 0 0 5 79 341 357 442 224 258 27 124 351 557 605 232 166 49 57 88 236 152 261 213 121 165 135 194 161 163 77 0 0 0 0 0 0 0
0 0 0 0 0 0 0 0 0 0 0 0 0 0 86 58 229 357 440 267 221 157 12 23 206 142 100 155 194 180 233 333 272 165 174 129 115 109 193 207 205 96 0 0 0 0 0 0 0
0 0 0 0 0 0 0 0 0 0 0 0 0 0 3 165 159 265 379 406 282 266 143 15 1 87 178 53 113 132 205 287 352 257 74 19 77 114 43 188 166 102 0 0 0 0 0 0 0
0 0 0 0 0 0 0 0 0 0 0 0 0 0 0 47 85 127 227 355 302 360 152 2 2 3 66 45 24 113 94 132 146 144 108 88 54 11 111 135 108 82 0 0 0 0 0 0 0
0 0 0 0 0 0 0 0 0 0 0 0 0 0 0 11 56 111 199 233 344 293 382 54 12 0 1 5 8 0 80 111 133 77 93 5 6 27 35 47 152 47 0 0 0 0 0 0 0
0 0 0 0 0 0 0 0 0 0 0 0 0 0 0 21 53 109 257 278 221 153 122 149 35 11 21 27 45 9 4 14 36 2 2 23 0 29 6 4 69 102 29 1 0 1 0 0 0
0 0 0 0 0 0 0 0 0 0 0 0 0 0 0 42 79 121 220 269 178 151 72 13 18 0 9 10 1 2 3 3 1 0 2 1 0 37 32 48 97 202 110 81 22 0 0 0 0
0 0 0 0 0 0 0 0 0 0 0 0 0 0 0 49 115 152 242 230 179 118 7 22 12 13 18 7 2 3 2 1 1 2 1 0 0 7 11 56 89 184 155 79 27 3 0 0 0
0 0 0 0 0 0 0 0 0 0 0 0 0 0 2 50 193 221 235 143 95 23 0 10 31 17 30 34 2 4 0 2 1 0 0 0 0 0 0 17 71 81 64 28 39 13 0 0 0
0 0 0 0 0 0 0 0 0 0 0 0 0 0 0 41 197 285 253 116 88 19 0 3 18 5 12 1 6 1 5 2 0 0 0 0 0 0 10 8 17 29 2 2 8 5 0 0 0
0 0 0 1 0 0 0 0 0 0 0 0 0 0 1 0 106 391 292 149 59 0 0 7 5 1 2 1 4 1 2 3 0 0 0 0 2 14 11 15 9 4 0 0 0 0 0 0 0
0 0 0 0 0 0 0 0 0 0 0 0 0 0 0 1 21 393 334 202 48 0 0 1 13 4 3 4 6 2 0 2 0 0 0 0 6 16 56 38 49 0 0 0 0 0 1 0 0
0 0 0 0 0 0 0 0 0 0 0 0 0 0 0 0 2 330 302 218 63 0 0 3 3 4 6 3 9 3 1 3 0 0 0 0 12 30 57 70 45 12 52 39 43 47 45 77 3
0 0 0 0 0 0 0 0 0 0 0 0 0 0 0 0 0 179 267 142 93 12 0 4 2 5 3 4 2 2 2 1 0 0 0 0 3 20 42 50 38 62 111 77 75 101 75 48 33
0 0 0 0 0 0 0 0 0 0 0 0 0 0 0 0 0 47 271 123 57 23 0 1 4 2 2 3 1 1 4 1 4 0 0 0 0 0 2 30 48 39 44 120 95 36 48 26 62
0 0 0 0 0 0 0 0 0 0 0 0 0 0 0 0 0 11 212 100 58 23 0 0 4 6 2 8 6 4 1 14 4 0 0 0 0 0 11 15 3 8 31 83 112 116 84 78 114
0 0 0 0 0 0 0 0 0 0 0 0 0 0 0 0 0 0 95 105 40 15 0 0 1 2 7 5 2 7 10 0 0 0 0 0 0 0 0 2 3 0 4 76 118 102 70 93 88
0 0 0 0 1 2 0 0 0 0 0 0 0 0 0 0 0 0 35 127 53 13 1 0 0 2 3 1 5 6 15 6 0 0 0 0 0 0 0 0 0 1 5 22 118 73 73 218 123
0 0 0 0 0 0 1 0 0 0 0 0 0 0 0 0 0 0 9 186 69 22 1 0 0 0 3 1 4 6 13 9 6 3 0 0 0 0 0 0 0 0 4 13 61 35 22 98 21
0 0 0 0 0 3 2 3 6 0 0 0 0 0 0 0 0 0 4 163 134 78 9 0 0 1 1 3 4 4 9 9 10 6 2 0 6 0 0 0 0 1 0 6 25 22 27 40 48
0 0 0 1 0 1 1 0 0 0 0 0 3 1 0 0 0 0 50 116 194 152 39 5 0 0 4 5 4 5 7 8 12 16 8 11 18 6 3 3 0 1 5 18 16 21 37 37 50
0 0 0 0 0 4 1 0 0 0 0 0 16 0 0 0 0 50 43 126 181 233 149 63 0 0 0 1 0 6 37 18 7 5 10 15 11 5 0 4 0 0 6 14 0 11 15 16 35

GFSSGP_con_mlcape_084.txt.gz
CAPE
0 0 0 0 0 0 0 0 0 0 0 0 0 0 0 0 0 262 1002 1425 1515 1779 1322 1005 817 831 1281 1683 1421 1231 1219 1210 1193 825 706 849 925 938 767 702 601 684 665 642 545 362 252 239 136
0 0 0 0 0 0 0 0 0 0 0 0 0 0 0 0 11 519 1451 1261 1484 1888 1815 1640 972 995 1190 1747 1638 1359 1279 1294 1203 922 765 1038 1087 1004 925 885 687 567 741 649 447 276 142 113 67
0 0 0 0 0 0 0 0 0 0 0 0 0 0 0 12 136 522 1074 1283 1523 1821 1874 1927 1165 933 1188 1604 1729 1479 1314 1337 1245 845 1031 1204 1193 1004 801 823 689 641 730 515 406 180 46 0 0
0 0 0 0 0 0 0 0 0 0 0 0 0 0 0 1 38 761 1083 994 1364 1577 2090 1493 1199 871 1029 1365 1726 1523 1279 1266 1295 911 1005 1332 1229 1057 799 674 505 561 572 568 402 70 0 0 0
0 0 0 0 0 0 0 0 0 0 0 0 0 0 4 219 726 782 816 876 1134 1602 1811 1689 1215 1053 1043 1111 1238 805 504 86 28 311 848 1348 1255 868 654 565 417 382 465 342 90 11 0 0 0
0 0 0 0 0 0 0 0 0 0 0 0 0 0 10 424 412 670 852 950 1167 1300 1709 1864 1342 1091 824 721 532 329 83 5 1 12 15 854 1168 857 745 517 405 327 298 68 7 0 0 0 0
0 0 0 0 0 0 0 0 0 0 0 0 0 0 0 156 481 836 622 632 727 877 1325 1201 1500 882 372 153 131 66 46 0 0 1 6 716 748 761 557 397 301 291 95 1 0 0 0 0 0
0 0 0 0 0 0 0 0 0 0 0 0 0 0 0 238 527 457 522 559 545 612 904 1153 1167 939 429 85 54 5 49 0 2 5 41 315 208 379 314 208 220 113 0 0 0 0 0 0 0
0 0 0 0 0 0 0 0 0 0 0 0 0 0 0 156 385 306 495 254 275 12 69 577 757 528 322 232 86 1 30 94 39 2 72 155 184 231 134 260 123 36 0 0 0 0 0 0 0
0 0 0 0 0 0 0 0 0 0 0 0 0 0 1 0 174 198 566 603 168 110 6 146 546 423 284 180 12 0 3 70 83 0 84 115 148 107 97 154 100 20 0 0 0 0 0 0 0
0 0 0 0 0 0 0 0 0 0 0 0 0 0 0 53 17 35 108 376 289 107 106 5 83 125 31 44 115 106 129 177 255 103 111 88 117 78 69 71 96 36 0 0 0 0 0 0 0
0 0 0 0 0 0 0 0 0 0 0 0 0 0 0 0 0 15 38 247 311 253 75 31 3 24 150 16 4 21 37 112 169 143 77 74 17 39 3 28 86 19 0 0 0 0 0 0 0
0 0 0 0 0 0 0 0 0 0 0 0 0 0 0 0 0 5 25 374 378 160 175 66 10 1 1 7 0 3 29 25 74 153 56 14 4 6 21 60 52 16 0 0 0 0 0 0 0
0 0 0 0 0 0 0 0 0 0 0 0 0 0 0 0 0 0 21 106 276 168 318 144 119 3 0 0 1 4 1 28 77 68 172 38 6 1 17 52 35 5 0 0 0 0 0 0 0
0 0 0 0 0 0 0 0 0 0 0 0 0 0 0 0 0 0 32 132 184 67 361 156 65 9 2 13 1 3 2 1 20 23 83 1 6 3 11 12 31 30 13 0 1 0 0 0 0
0 0 0 0 0 0 0 0 0 0 0 0 0 0 0 0 0 0 10 93 203 50 128 130 38 2 13 3 1 0 1 0 0 0 37 1 3 3 0 0 0 72 115 45 11 3 0 0 0
0 0 0 0 0 0 0 0 0 0 0 0 0 0 0 0 0 4 92 120 118 32 6 52 0 6 13 9 3 1 2 2 2 1 0 1 1 0 0 0 5 36 78 56 24 1 0 0 0
0 0 0 0 0 0 0 0 0 0 0 0 0 0 0 1 0 92 175 153 97 0 0 16 0 3 12 16 2 3 2 2 1 1 1 2 0 0 0 0 1 6 30 53 25 9 0 0 0
0 0 0 0 0 0 0 0 0 0 0 0 0 0 0 2 15 189 242 163 66 10 0 0 2 3 3 2 2 2 1 1 0 0 0 0 0 0 0 0 1 10 27 19 15 2 0 0 0
0 0 0 0 0 0 0 0 0 0 0 0 0 0 0 0 5 251 356 236 104 0 0 0 2 3 3 3 2 1 1 1 0 0 0 1 0 0 0 0 0 9 20 43 26 1 0 0 0
0 0 0 0 0 0 0 0 0 0 0 0 0 0 0 0 3 255 485 331 143 0 0 0 3 2 2 3 1 2 1 0 0 0 0 0 0 0 0 0 0 4 1 9 7 0 0 0 0
0 0 0 0 0 0 0 0 0 0 0 0 0 0 0 0 0 170 496 384 226 0 0 0 0 2 2 6 0 1 1 0 0 0 0 0 0 0 0 0 0 20 16 23 0 0 0 12 0
0 0 0 0 0 0 0 0 0 0 0 0 0 0 0 0 0 45 514 405 289 17 0 0 0 4 3 8 1 1 1 0 0 0 0 0 0 4 5 2 9 10 67 39 32 33 41 70 51
0 0 0 0 0 0 0 0 0 0 0 0 0 0 0 0 0 0 531 341 187 20 0 0 0 3 3 4 1 1 0 0 0 0 0 0 0 7 7 27 31 32 51 54 65 72 75 44 56
0 0 0 0 0 0 0 0 0 0 0 0 0 0 0 0 0 0 316 315 136 29 0 0 1 1 1 8 3 1 0 0 0 0 0 0 0 0 0 1 17 24 42 77 90 38 34 40 20
0 0 0 0 0 0 0 0 0 0 0 0 0 0 0 0 0 0 154 312 145 67 0 0 0 2 1 8 3 9 0 0 0 0 0 0 0 0 0 0 0 2 18 32 39 16 18 19 14
0 0 0 0 0 0 0 0 1 0 0 0 0 0 0 0 0 0 10 282 150 69 0 0 0 1 0 1 4 5 4 1 0 0 0 0 0 0 0 0 0 0 1 0 0 5 7 5 13
0 0 0 0 0 0 0 0 0 0 0 0 0 1 1 0 0 0 0 330 213 83 38 0 0 0 0 0 2 3 9 2 0 0 0 0 0 0 0 0 0 0 0 0 0 3 21 25 33
0 0 0 7 0 0 0 0 0 0 0 0 0 0 0 0 0 0 0 345 308 204 113 4 0 0 0 0 0 2 5 11 4 4 0 0 0 0 0 0 0 0 0 0 1 4 7 23 14
0 0 0 0 7 1 0 0 0 0 0 0 0 0 0 0 0 29 25 76 418 347 230 91 0 0 0 0 0 0 4 3 8 9 8 0 0 0 0 0 0 0 0 0 0 2 0 0 12

GFSSGP_con_mlcape_087.txt.gz
CAPE
0 0 0 0 0 0 0 0 0 0 0 0 0 0 0 0 17 74 1142 1036 1471 1272 1020 897 1046 1517 1492 1310 1202 1144 1059 1165 748 672 681 591 556 564 506 441 456 664 699 682 506 195 293 385 233
0 0 0 0 0 0 0 0 0 0 0 0 0 0 0 102 589 1118 1223 1418 1655 1455 1122 892 797 1134 1658 1562 1346 1267 1229 1329 934 668 672 866 744 735 655 576 711 769 808 758 668 506 365 295 94
0 0 0 0 0 0 0 0 0 0 0 0 0 0 0 55 579 1055 1253 1427 1672 1695 1527 1259 931 903 1321 1558 1548 1414 1387 1390 1144 932 1005 970 929 856 908 826 642 651 734 768 734 435 423 101 22
0 0 0 0 0 0 0 0 0 0 0 0 0 0 0 122 188 884 1000 1432 1322 1690 1659 1326 1105 1000 1292 1473 1558 1581 1443 1320 811 528 620 1368 1111 1130 927 650 558 629 719 856 517 439 110 15 5
0 0 0 0 0 0 0 0 0 0 0 0 0 0 1 719 906 888 775 1045 1379 1596 1603 1213 1006 979 1205 1535 1596 1660 1512 692 70 27 22 169 961 1046 898 562 549 585 622 665 282 60 0 1 0
0 0 0 0 0 0 0 0 0 0 0 0 0 0 5 648 406 746 788 836 1200 1449 1589 1436 1132 1060 1095 1267 1566 1089 607 456 246 26 0 0 302 803 725 500 496 507 583 297 59 0 0 0 0
0 0 0 0 0 0 0 0 0 0 0 0 0 0 132 416 523 575 507 649 607 827 1083 997 1027 887 778 707 674 423 322 188 58 4 0 0 0 472 561 437 465 521 307 66 0 0 0 0 0
0 0 0 0 0 0 0 0 0 0 0 0 0 0 5 444 528 317 73 54 186 459 585 810 836 509 163 62 124 124 50 13 0 0 0 0 0 213 353 335 360 283 107 10 0 0 0 0 0
0 0 0 0 0 0 0 0 0 0 0 0 0 0 0 406 286 131 54 124 37 0 69 534 802 530 229 14 0 44 15 0 0 0 16 0 48 188 211 279 316 192 60 14 2 0 0 0 0
0 0 0 0 0 0 0 0 0 0 0 0 0 0 46 234 155 16 105 222 90 30 0 110 500 392 274 204 38 5 5 18 21 0 22 10 136 85 109 125 184 111 40 0 0 0 0 0 0
0 0 0 0 0 0 0 0 0 0 0 0 0 0 0 42 37 57 217 353 181 9 0 7 313 364 249 127 0 0 10 15 18 0 6 101 78 96 45 71 76 52 1 0 0 0 0 0 0
0 0 0 0 0 0 0 0 0 0 0 0 0 0 0 0 5 0 3 298 95 7 0 0 49 67 162 139 75 84 63 67 48 1 49 38 86 38 44 26 34 2 0 0 0 0 0 0 0
0 0 0 0 0 0 0 0 0 0 0 0 0 0 0 0 0 0 0 158 124 50 0 0 0 47 102 35 9 17 26 61 63 19 35 48 27 5 12 10 1 5 0 0 0 0 0 0 0
0 0 0 0 0 0 0 0 0 0 0 0 0 0 0 0 0 0 36 109 129 74 9 0 0 6 12 2 0 1 2 0 39 35 26 13 10 4 3 12 0 0 0 0 0 0 0 0 0
0 0 0 0 0 0 0 0 0 0 0 0 0 0 0 0 0 0 0 60 72 156 55 6 0 0 2 0 1 1 1 0 0 21 7 7 5 1 0 8 0 0 0 0 0 0 0 0 0
0 0 0 0 0 0 0 0 0 0 0 0 0 0 0 0 0 0 0 17 3 80 108 33 20 0 9 19 8 0 0 0 1 17 47 12 5 2 4 5 0 0 0 0 0 0 0 0 0
0 0 0 0 0 0 0 0 0 0 0 0 0 0 0 0 0 0 0 8 6 24 83 24 0 0 0 13 0 0 0 0 0 0 23 18 9 0 12 2 0 0 0 0 3 1 2 0 0
0 0 0 0 0 0 0 0 0 0 0 0 0 0 0 0 0 0 0 0 0 0 11 0 0 0 3 1 0 0 1 0 0 0 0 2 2 3 16 0 1 17 0 1 6 5 0 0 0
0 0 0 0 0 0 0 0 0 0 0 0 0 0 0 0 0 0 0 0 0 0 0 0 0 0 0 1 0 2 0 1 2 2 0 1 1 0 1 0 0 2 8 9 0 0 0 0 4
0 0 0 0 0 0 0 0 0 0 0 0 0 0 0 0 0 0 15 8 0 0 0 0 0 0 0 1 1 1 1 2 1 1 1 0 1 2 0 0 1 2 0 1 0 0 0 4 0
0 0 0 0 0 0 0 0 0 0 0 0 0 0 0 0 0 9 25 16 0 0 0 0 0 0 0 2 1 1 1 1 1 1 0 0 0 0 0 0 0 1 0 1 0 0 0 1 0
0 0 0 5 0 0 0 0 0 0 0 0 0 0 0 0 0 29 42 11 0 0 0 0 0 0 0 4 0 1 1 0 0 0 0 0 0 0 0 0 0 0 0 3 0 0 0 1 0
0 0 4 1 0 0 0 0 0 0 0 0 0 0 0 0 0 41 86 50 0 0 0 0 0 0 1 2 1 0 0 0 0 0 0 0 0 0 0 0 0 0 0 0 0 0 3 0 0
0 1 7 2 0 0 0 0 0 0 0 0 0 0 0 0 0 31 156 65 0 0 0 0 0 1 3 1 0 0 0 0 0 0 0 0 0 0 0 0 0 0 0 0 0 5 0 2 2
9 4 0 0 0 0 0 0 0 0 0 0 0 0 0 0 0 72 189 153 0 0 0 0 0 0 5 1 0 0 0 0 0 0 0 0 0 0 0 0 0 0 1 0 1 0 5 1 77
1 2 0 0 0 0 0 0 0 0 0 0 0 0 0 0 0 51 233 146 23 0 0 0 0 0 2 3 0 1 0 0 0 0 0 0 0 0 0 0 0 0 2 15 22 11 12 38 45
0 0 0 0 0 0 0 0 0 0 0 0 0 0 0 0 2 96 234 132 21 0 0 0 0 0 1 4 0 0 0 0 0 0 0 0 0 0 0 0 0 0 4 5 36 34 32 33 10
0 2 1 0 0 0 0 0 0 0 0 0 0 0 0 0 0 34 107 131 34 0 0 0 0 0 0 2 4 2 0 0 0 0 0 0 0 0 0 0 0 0 0 0 2 24 26 15 1
0 0 2 0 2 11 1 0 0 0 0 0 0 0 0 0 3 0 179 170 67 0 0 0 0 0 0 0 3 3 5 0 0 0 0 0 0 0 0 0 0 0 0 0 0 1 5 12 6
0 1 6 0 0 1 0 0 0 0 0 0 0 0 0 0 20 33 111 213 108 53 1 0 0 0 0 0 0 1 2 3 0 0 0 0 0 0 0 0 0 0 0 0 0 0 0 0 0

GFSSGP_con_mlcape_090.txt.gz
CAPE
0 0 0 0 0 0 0 0 0 0 0 0 0 0 0 0 0 1 742 1107 1205 988 1194 1529 1303 1157 1158 1066 935 842 785 758 813 687 669 706 684 683 627 639 662 776 936 860 686 606 611 526 430
0 0 0 0 0 0 0 0 0 0 0 0 0 0 0 8 593 791 894 1260 1214 1041 972 1164 1457 1361 1298 1198 1073 986 995 866 866 789 716 708 643 596 616 657 703 767 805 711 291 582 471 509 292
0 0 0 0 0 0 0 0 0 0 0 0 0 0 0 0 645 743 1013 1300 1443 1198 1010 825 1104 1374 1396 1335 1309 1099 1207 974 936 909 887 872 805 777 545 780 989 973 749 441 378 502 445 263 199
0 0 0 0 0 0 0 0 0 0 0 0 0 0 0 233 836 851 1408 1631 1608 1396 1303 973 907 1220 1413 1465 1434 1446 1388 1227 1103 1027 1054 1130 1164 899 801 762 899 964 784 681 510 471 214 147 50
0 0 0 0 0 0 0 0 0 0 0 0 0 0 0 501 588 976 1288 1506 1651 1574 1412 1122 1030 1133 1431 1606 1628 1584 1614 1380 1020 769 626 278 336 364 894 772 834 835 763 587 401 132 79 45 24
0 0 0 0 0 0 0 0 0 0 0 0 0 0 0 746 508 781 1098 1200 1400 1431 1262 1044 991 1096 1486 1661 1763 1703 1421 862 560 221 110 1 49 244 414 577 803 671 521 435 283 164 50 52 0
0 0 0 0 0 0 0 0 0 0 0 0 0 0 128 660 500 526 714 998 1191 1394 1303 1013 1012 941 1023 1375 1639 1568 1167 464 153 112 76 16 51 28 144 336 477 434 355 242 221 52 31 4 0
0 0 0 0 0 0 0 0 0 0 0 0 0 0 0 337 445 425 498 527 639 858 690 637 598 621 580 636 1145 978 774 425 151 104 33 29 3 0 0 193 340 433 261 110 57 13 13 0 0
0 0 0 0 0 0 0 0 0 0 0 0 0 0 0 301 362 234 30 0 0 93 396 640 489 222 211 154 297 366 305 154 42 13 0 0 0 0 32 158 238 276 127 50 0 0 0 0 0
0 0 0 0 0 0 0 0 0 0 0 0 0 0 0 254 282 137 17 0 0 17 33 418 430 192 56 11 1 0 0 0 0 0 5 0 0 0 11 133 184 160 37 21 0 0 0 0 0
0 0 0 0 0 0 0 0 0 0 0 0 0 0 8 204 223 65 0 0 19 0 0 101 316 281 186 71 0 0 0 0 0 0 27 6 5 27 130 80 69 55 12 0 0 0 0 0 0
0 0 0 0 0 0 0 0 0 0 0 0 0 0 31 83 101 9 7 64 68 0 0 0 97 179 127 54 12 0 0 0 0 4 1 25 46 26 31 48 48 25 0 0 0 0 0 0 0
0 0 0 0 0 0 0 0 0 0 0 0 0 0 0 0 13 1 66 116 132 12 0 0 53 60 127 87 74 30 9 32 0 1 1 65 65 22 26 30 8 7 0 0 0 0 0 0 0
0 0 0 0 0 0 0 0 0 0 0 0 0 0 0 0 0 0 30 87 157 5 0 0 1 4 59 52 63 31 2 37 10 0 0 58 34 29 18 8 3 0 0 0 0 0 0 0 0
0 0 0 0 0 0 0 0 0 0 0 0 0 0 0 0 0 0 1 48 92 13 0 0 0 4 20 46 8 0 0 1 37 1 4 8 8 11 10 3 3 0 0 0 0 0 0 0 0
0 0 0 0 0 0 0 0 0 0 0 0 0 0 0 0 0 0 5 43 77 9 0 0 0 0 0 0 3 1 0 0 11 24 12 2 2 1 5 3 0 0 0 0 0 0 0 0 0
0 0 0 0 0 0 0 0 0 0 0 0 0 0 0 0 0 0 25 36 49 30 7 0 0 0 0 0 1 3 0 0 1 19 30 8 5 2 8 1 0 0 0 0 0 0 0 0 0
0 0 0 0 0 0 0 0 0 0 0 0 0 0 0 0 0 0 14 29 56 40 28 9 4 0 0 0 0 0 0 0 0 0 3 24 21 2 2 6 0 0 0 0 0 0 0 0 0
0 0 0 0 0 0 0 0 0 0 0 0 0 0 0 0 0 0 5 4 63 38 21 7 0 0 0 0 0 0 0 0 0 0 0 23 4 6 2 1 1 0 0 0 0 0 0 0 0
0 0 0 0 0 0 0 0 0 0 0 0 0 0 0 0 0 0 18 0 37 32 6 0 0 0 0 0 0 0 0 1 0 0 0 4 11 4 16 1 0 0 0 0 10 2 0 3 4
0 0 0 0 0 0 0 0 0 0 0 0 0 0 0 0 0 0 2 0 7 22 1 0 0 0 0 0 0 0 1 0 1 0 0 2 1 1 2 1 0 0 0 0 1 0 17 16 2
0 0 0 0 0 0 0 0 0 0 0 0 0 0 0 0 0 0 0 0 7 11 0 0 0 0 0 0 0 0 0 0 1 0 0 1 2 1 2 1 0 0 1 0 0 11 20 25 18
0 0 0 0 1 2 0 1 0 0 0 0 0 0 0 0 0 0 0 0 0 0 0 0 0 0 0 0 0 0 0 0 0 0 0 0 0 0 2 1 1 0 0 0 0 0 9 13 8
0 0 0 5 15 1 0 0 0 0 0 0 0 0 0 0 0 0 0 0 0 0 0 0 0 0 0 0 0 0 1 0 0 0 0 0 0 0 0 0 0 0 0 0 2 0 7 18 12
2 6 0 0 1 0 0 0 0 0 0 0 0 0 0 0 0 0 0 6 0 0 0 0 0 0 0 0 0 0 0 0 0 0 0 0 0 0 0 0 0 0 0 0 0 0 0 16 16
0 1 0 0 0 1 0 0 0 0 0 0 0 0 0 0 0 13 3 26 0 0 0 0 0 0 0 0 0 0 0 0 0 0 0 0 0 0 0 0 0 0 0 0 0 0 0 6 17
1 0 0 0 0 0 0 0 0 0 0 0 0 0 0 0 0 22 61 27 0 0 0 0 0 0 0 0 0 0 0 0 0 0 0 0 0 0 0 0 0 0 0 0 0 0 0 5 5
0 4 0 0 0 0 0 0 33 0 0 0 0 0 0 0 0 52 114 91 27 0 0 0 0 0 0 0 1 0 0 0 0 0 0 0 0 0 0 0 0 0 0 0 0 2 5 6 7
0 0 0 2 1 0 0 29 2 0 0 0 0 0 0 4 29 49 164 147 27 0 0 0 0 0 0 0 0 0 0 0 0 0 0 0 0 0 0 0 0 0 0 0 0 3 18 24 18
0 3 1 0 0 0 0 0 0 0 0 0 0 0 0 0 0 42 185 160 49 15 0 0 0 0 0 0 0 0 0 0 0 0 0 0 0 0 0 0 0 0 0 0 0 0 0 0 0

GFSSGP_con_mlcape_093.txt.gz
CAPE
0 0 0 0 0 0 0 0 0 0 0 0 0 0 0 0 0 0 262 888 1118 926 1160 1100 1107 1047 895 732 630 686 816 740 667 886 1217 1197 1183 1260 1226 1158 1162 1165 866 713 747 817 803 756 608
0 0 0 0 0 0 0 0 0 0 0 0 0 0 0 0 276 6 421 1049 1138 996 1159 1168 1164 1192 1083 902 755 746 887 945 891 864 975 1120 1150 1151 1132 1092 1105 1072 966 892 894 880 766 592 482
0 0 0 0 0 0 0 0 0 0 0 0 0 0 0 0 468 161 687 1049 909 970 1170 1304 1174 1165 1157 1017 895 879 994 1063 992 1014 1135 1132 1081 1046 1041 960 1029 1093 1055 948 994 876 604 467 320
0 0 0 0 0 0 0 0 0 0 0 0 0 0 0 311 400 651 970 1220 1090 973 975 1162 1302 1276 1356 1298 1149 1127 1157 1132 1151 1033 1164 1122 1062 1001 929 981 1056 1110 825 751 936 617 420 301 168
0 0 0 0 0 0 0 0 0 0 0 0 0 0 0 563 845 888 987 1354 1219 1069 946 890 1221 1436 1499 1525 1524 1440 1444 1294 1083 1103 1133 1202 1022 944 924 752 769 854 832 699 684 448 338 171 40
0 0 0 0 0 0 0 0 0 0 0 0 0 0 3 493 855 989 1296 1416 1416 1279 1169 909 983 1383 1668 1714 1677 1660 1577 1371 1195 1047 725 742 416 242 205 242 547 686 623 467 371 305 221 66 21
0 0 0 0 0 0 0 0 0 0 0 0 0 0 6 560 720 979 1166 1465 1369 1327 1261 986 1024 1131 1497 1615 1724 1651 1374 982 729 485 477 393 67 41 21 86 349 399 401 355 295 213 108 20 1
0 0 0 0 0 0 0 0 0 0 0 0 0 0 0 461 574 767 912 1057 1177 1161 1132 947 840 795 809 1116 1573 1376 974 519 353 203 141 245 121 87 26 4 189 313 298 302 217 156 5 0 0
0 0 0 0 0 0 0 0 0 0 0 0 0 0 0 423 464 575 611 628 706 758 812 597 483 455 445 574 968 947 481 459 372 169 88 62 58 46 73 66 53 58 169 172 186 80 0 0 0
0 0 0 0 0 0 0 0 0 0 0 0 0 0 0 363 487 427 332 191 188 144 213 421 307 230 109 217 495 385 327 247 81 46 29 4 2 1 0 20 51 30 105 100 112 2 0 0 0
0 0 0 0 0 0 0 0 0 0 0 0 0 0 6 144 329 294 259 37 0 0 29 248 274 82 22 14 34 46 42 7 0 0 0 0 0 0 1 13 67 91 95 61 39 0 0 0 0
0 0 0 0 0 0 0 0 0 0 0 0 0 0 0 0 182 204 173 1 0 2 2 33 227 166 30 3 0 0 0 0 0 0 0 3 1 0 21 36 86 46 13 30 2 0 0 0 0
0 0 0 0 0 0 0 0 0 0 0 0 0 0 0 0 34 217 172 31 3 24 0 0 67 155 73 18 4 0 0 0 0 0 0 10 21 14 66 51 25 4 2 1 0 0 0 0 0
0 0 0 0 0 0 0 0 0 0 0 0 0 0 0 0 0 74 218 69 43 64 8 0 0 20 8 25 18 2 4 9 1 0 0 36 19 29 24 55 27 1 4 3 0 0 0 0 0
0 0 0 0 0 0 0 0 0 0 0 0 0 0 0 0 4 3 10 48 88 108 17 0 0 0 0 30 7 18 62 85 5 1 0 42 34 17 24 51 40 11 0 0 0 0 0 0 0
0 0 0 0 0 0 0 0 0 0 0 0 0 0 0 0 0 0 11 29 84 97 15 0 0 0 0 7 0 0 1 71 68 1 3 38 61 25 25 32 11 0 0 0 0 0 0 0 0
0 0 0 0 0 0 0 0 0 0 0 0 0 0 0 0 0 0 10 13 50 89 19 0 0 0 0 0 0 0 4 11 33 36 12 14 45 24 22 9 1 0 0 0 0 0 0 0 0
0 0 0 0 0 0 0 0 0 0 0 0 0 0 0 0 0 0 0 0 49 45 18 0 0 0 0 0 0 0 0 6 1 4 9 15 21 22 22 2 0 0 0 0 0 0 0 0 0
0 0 0 0 0 0 0 0 0 0 0 0 0 0 0 0 0 0 0 22 60 55 24 0 0 0 0 0 0 1 0 0 0 0 0 1 26 3 6 2 0 0 0 0 0 0 0 0 0
0 0 0 0 0 0 0 0 0 0 0 0 0 0 0 0 0 0 0 45 100 91 22 5 0 0 0 0 0 0 0 0 0 0 0 0 0 3 2 3 1 0 0 0 0 0 0 0 0
0 0 0 0 0 0 0 0 0 0 0 0 0 0 0 0 0 0 0 51 98 90 30 10 0 0 0 0 0 0 0 0 0 0 0 0 4 12 7 1 1 0 0 0 0 0 0 0 0
0 0 0 0 0 0 0 0 0 0 0 0 0 0 0 0 0 0 0 38 91 79 19 4 0 0 0 0 0 0 0 0 0 0 0 2 2 15 28 3 2 1 0 0 0 0 5 29 1
0 0 0 0 0 0 0 0 0 0 0 0 0 0 0 0 0 0 0 16 72 35 27 2 0 0 0 0 0 0 0 0 0 0 0 0 0 1 0 3 1 1 0 0 0 6 13 43 21
0 0 0 0 0 0 0 0 0 0 0 0 0 0 0 0 0 0 0 0 13 11 14 0 0 0 0 0 0 0 0 0 0 0 0 0 0 1 1 1 2 1 0 0 0 5 17 38 41
0 0 0 0 0 0 0 0 0 0 0 0 0 0 0 0 0 0 0 0 0 12 14 0 0 0 0 0 0 0 0 0 0 0 0 0 0 0 0 2 1 0 0 0 6 0 7 11 7
0 7 0 0 0 0 0 0 0 0 0 0 0 0 0 0 0 0 0 0 0 14 10 0 0 0 0 1 0 0 0 0 0 0 0 0 0 0 0 0 1 0 2 0 0 0 0 0 0
0 2 5 0 0 0 0 0 0 0 0 0 0 0 0 0 0 0 0 0 0 1 1 0 0 0 0 0 0 0 0 0 0 0 0 0 0 0 0 0 0 0 0 0 0 0 0 0 0
0 0 1 0 0 1 0 0 0 0 0 0 0 0 0 0 0 0 0 0 0 0 0 0 0 0 0 0 0 0 0 0 0 0 0 0 0 0 0 0 0 0 0 0 0 0 0 0 0
0 2 1 1 0 1 0 10 38 2 0 0 0 0 0 0 1 44 23 0 0 0 0 0 0 0 0 0 0 0 0 0 0 0 0 0 0 0 0 0 0 0 0 0 0 0 0 0 0
2 0 6 0 0 1 1 0 0 1 0 0 0 0 0 0 13 148 74 11 0 0 0 0 0 0 0 0 1 0 0 0 0 0 0 0 0 0 0 0 0 0 0 0 0 0 0 0 0

GFSSGP_con_mlcape_096.txt.gz
CAPE
0 0 0 0 0 0 0 0 0 0 0 0 0 0 0 0 0 0 69 810 748 727 835 1039 1154 1062 850 781 631 593 1034 1378 1533 1451 1338 1290 1285 1264 1244 1218 1236 1196 1197 1122 1183 1053 884 915 761
0 0 0 0 0 0 0 0 0 0 0 0 0 0 0 0 0 0 272 831 1042 787 867 954 1079 1046 937 845 815 765 873 1452 1660 1678 1583 1544 1437 1305 1212 1250 1106 1066 1082 1137 1051 1043 964 821 683
0 0 0 0 0 0 0 0 0 0 0 0 0 0 0 0 63 0 313 794 1066 1009 966 964 1100 1095 963 792 732 911 924 1000 1546 1684 1669 1573 1523 1412 1302 1330 1140 930 926 1125 1128 1038 954 766 610
0 0 0 0 0 0 0 0 0 0 0 0 0 0 0 198 261 60 524 853 1014 983 1070 1033 1131 1224 1227 1064 930 947 1069 875 1016 1457 1504 1644 1609 1561 1353 1204 1059 985 1026 1011 1014 936 784 631 435
0 0 0 0 0 0 0 0 0 0 0 0 0 0 0 292 625 586 491 773 732 892 961 1152 1176 1192 1333 1308 1248 1261 1385 1296 1134 1016 1145 926 432 551 862 926 748 641 727 982 917 781 636 466 275
0 0 0 0 0 0 0 0 0 0 0 0 0 0 0 205 670 888 778 863 938 785 844 918 1337 1352 1439 1497 1435 1395 1242 1165 1006 914 1024 696 284 23 367 357 401 441 478 579 827 614 498 275 139
0 0 0 0 0 0 0 0 0 0 0 0 0 0 0 132 687 945 925 1161 1127 966 956 832 989 1355 1505 1564 1555 1486 1393 1218 1030 873 1003 458 301 225 91 82 51 105 326 546 615 497 364 172 73
0 0 0 0 0 0 0 0 0 0 0 0 0 0 0 0 613 928 1184 1262 1278 1141 1124 1036 880 968 1144 1377 1598 1555 1265 1004 756 688 692 293 112 59 10 0 1 20 256 345 477 362 204 73 16
0 0 0 0 0 0 0 0 0 0 0 0 0 0 0 98 640 792 890 1023 1079 1037 1043 928 874 724 687 822 1129 1191 804 526 403 373 368 52 0 0 1 0 6 119 151 191 388 192 84 19 8
0 0 0 0 0 0 0 0 0 0 0 0 0 0 0 284 518 431 449 358 610 698 764 712 521 383 341 460 634 643 494 200 249 176 125 29 0 20 61 33 105 127 142 164 177 70 3 0 0
0 0 0 0 0 0 0 0 0 0 0 0 0 0 0 64 391 437 424 340 153 377 464 507 268 135 144 198 131 360 487 173 143 68 2 0 0 7 32 38 74 115 114 147 91 15 0 0 0
0 0 0 0 0 0 0 0 0 0 0 0 0 0 0 0 115 149 234 277 151 169 157 200 161 89 60 14 40 184 214 55 5 0 0 0 0 0 6 16 41 83 92 87 1 0 0 0 0
0 0 0 0 0 0 0 0 0 0 0 0 0 0 0 0 0 83 197 259 124 10 0 56 98 105 27 0 0 0 0 6 1 0 0 0 0 0 2 9 32 76 89 35 1 0 0 0 0
0 0 0 0 0 0 0 0 0 0 0 0 0 0 0 0 0 3 51 140 88 0 0 0 38 66 41 0 0 0 0 0 0 0 0 0 2 3 8 10 48 10 15 7 0 0 0 0 0
0 0 0 0 0 0 0 0 0 0 0 0 0 0 0 0 0 0 0 25 95 0 0 0 0 15 45 0 0 0 0 0 0 1 0 0 2 1 12 5 11 2 5 5 0 0 0 0 0
0 0 0 0 0 0 0 0 0 0 0 0 0 0 0 0 0 0 12 29 55 19 0 0 0 0 0 0 0 0 1 9 12 0 2 3 1 2 3 6 19 0 0 1 0 0 0 0 0
0 0 0 0 0 0 0 0 0 0 0 0 0 0 0 0 0 0 0 4 50 57 5 9 0 0 0 0 0 0 0 5 41 12 4 9 14 2 4 23 8 4 1 0 0 0 0 0 0
0 0 0 0 0 0 0 0 0 0 0 0 0 0 0 0 0 0 0 0 22 31 2 14 0 0 0 0 0 0 0 0 16 52 22 13 27 10 0 6 0 0 0 0 0 0 0 0 0
0 0 0 0 0 0 0 0 0 0 0 0 0 0 0 0 0 0 0 0 0 23 3 26 5 0 0 0 0 0 0 0 0 7 23 35 24 19 9 1 0 0 0 0 0 0 0 0 0
0 0 0 0 0 0 0 0 0 0 0 0 0 0 0 0 0 0 0 0 0 23 16 28 11 0 0 0 1 0 2 1 0 0 1 4 4 18 16 1 1 1 0 0 0 0 0 0 0
0 0 0 0 0 0 0 0 0 0 0 0 0 0 0 0 0 0 0 0 0 6 6 50 14 0 0 0 0 1 1 1 0 0 0 0 0 0 42 1 2 2 0 0 0 0 0 0 0
0 0 0 0 0 0 0 0 0 0 0 0 0 0 0 0 0 0 0 0 0 25 42 31 7 0 1 1 1 0 0 0 0 0 0 0 0 0 2 2 1 2 1 0 0 0 0 0 0
0 0 0 0 0 0 0 0 0 0 0 0 0 0 0 0 0 0 0 0 2 103 85 31 6 0 0 1 0 0 0 0 0 0 0 0 0 0 6 4 1 1 0 0 0 0 0 0 10
0 0 0 0 0 0 0 0 0 0 0 0 0 0 0 0 0 0 0 0 6 63 20 5 7 3 1 1 0 0 0 0 0 0 0 0 4 7 13 5 1 2 1 0 0 0 0 0 11
0 0 0 0 0 0 0 0 0 0 0 0 0 0 0 0 0 0 0 0 2 31 16 4 0 3 1 1 0 0 0 0 0 0 0 0 1 2 1 1 1 1 1 0 0 0 0 14 16
0 0 0 0 0 0 0 0 0 0 0 0 0 0 0 0 0 0 0 0 0 5 2 2 0 0 0 0 0 0 0 0 0 0 0 0 0 0 1 0 1 1 1 2 1 0 0 20 15
0 0 0 0 0 0 0 0 0 0 0 0 0 0 0 0 0 0 0 0 0 0 0 2 0 0 0 0 0 0 0 0 0 0 0 0 0 0 0 1 1 1 1 1 0 1 1 0 7
0 0 0 0 0 0 0 0 0 0 0 0 0 0 0 0 0 0 0 0 0 0 0 1 1 0 1 0 0 0 0 0 0 0 0 0 0 0 0 0 0 1 0 3 2 2 0 0 0
0 0 0 0 0 4 0 7 50 1 0 0 0 0 0 0 0 0 0 0 0 0 0 0 1 0 0 0 1 0 0 0 0 0 0 0 0 0 0 0 0 0 0 0 2 0 0 0 0
1 0 0 1 0 1 2 0 0 0 0 0 0 0 0 0 23 4 0 0 0 1 1 0 1 2 1 1 0 0 0 0 0 0 0 0 0 0 0 0 0 0 0 0 0 0 0 0 0

GFSSGP_con_mlcape_099.txt.gz
CAPE
0 0 0 0 0 0 0 0 0 0 0 0 0 0 0 0 0 0 14 803 660 816 1034 971 1016 968 643 492 631 1054 1525 1613 1536 1485 1410 1427 1424 1405 1393 1287 1381 1385 1401 1366 1402 1326 1276 1085 905
0 0 0 0 0 0 0 0 0 0 0 0 0 0 0 0 0 0 251 762 804 891 919 1145 1003 956 761 517 550 921 1441 1732 1645 1571 1512 1559 1567 1552 1422 1328 1416 1450 1392 1439 1364 1353 1228 1057 934
0 0 0 0 0 0 0 0 0 0 0 0 0 0 0 0 0 0 264 830 947 867 902 1153 1052 936 879 616 536 785 1217 1388 1733 1745 1688 1747 1704 1561 1419 1120 1056 1339 1295 1347 1328 1334 1176 1000 818
0 0 0 0 0 0 0 0 0 0 0 0 0 0 0 7 5 1 317 1001 1149 991 1015 1006 1076 1080 979 894 733 761 1188 1375 1579 1832 1803 1845 1616 1485 1104 893 721 1119 1170 1167 1258 1243 985 906 679
0 0 0 0 0 0 0 0 0 0 0 0 0 0 0 69 370 320 437 931 724 1054 928 899 1041 1155 1188 1070 1050 1028 911 1431 1737 1847 1793 1620 767 755 442 357 369 653 967 1028 1047 1073 895 726 535
0 0 0 0 0 0 0 0 0 0 0 0 0 0 0 141 518 463 642 698 993 967 1101 1194 1092 1160 1272 1250 1178 1173 1154 1027 1297 1225 1200 1134 763 401 31 183 315 493 565 557 632 882 739 580 388
0 0 0 0 0 0 0 0 0 0 0 0 0 0 0 12 659 904 718 732 942 1027 1035 1196 1420 1250 1246 1280 1235 1197 1181 1191 822 779 962 707 477 277 201 243 396 367 280 288 347 757 526 418 245
0 0 0 0 0 0 0 0 0 0 0 0 0 0 0 0 694 1018 925 978 1103 1039 1083 1027 1376 1553 1575 1615 1373 1340 1335 1142 967 521 573 459 208 151 28 358 333 106 106 227 261 485 311 280 158
0 0 0 0 0 0 0 0 0 0 0 0 0 0 0 7 734 966 589 702 916 1082 1207 1171 1104 1214 1450 1589 1495 1403 1324 1100 941 638 614 401 284 116 375 242 114 79 101 104 46 323 163 141 81
0 0 0 0 0 0 0 0 0 0 0 0 0 0 0 17 595 875 340 154 521 806 1153 1320 1187 1096 1079 1108 1216 1180 1012 702 593 627 589 525 305 231 95 8 2 43 51 98 204 184 82 82 19
0 0 0 0 0 0 0 0 0 0 0 0 0 0 0 0 285 758 789 450 390 713 898 1008 930 893 782 632 618 709 677 436 221 320 261 119 24 1 0 1 20 107 19 154 147 82 133 145 75
0 0 0 0 0 0 0 0 0 0 0 0 0 0 0 0 0 142 577 679 435 367 769 666 602 601 566 478 399 387 437 407 124 88 94 55 13 1 0 64 118 92 162 87 53 120 91 33 0
0 0 0 0 0 0 0 0 0 0 0 0 0 0 0 0 0 0 386 748 594 366 531 524 357 404 360 303 261 246 245 234 95 52 22 66 65 46 93 52 68 70 118 18 2 4 3 0 0
0 0 0 0 0 0 0 0 0 0 0 0 0 0 0 0 0 0 45 200 381 439 297 334 167 193 225 208 137 106 110 64 16 5 16 20 4 3 0 5 25 83 109 2 1 0 0 22 0
0 0 0 0 0 0 0 0 0 0 0 0 0 0 0 0 0 0 0 0 144 350 142 75 58 125 118 67 71 36 3 0 2 1 2 3 2 4 3 2 5 34 63 1 2 1 0 1 0
0 0 0 0 0 0 0 0 0 0 0 0 0 0 0 0 0 0 0 0 92 195 53 0 17 35 61 26 40 0 1 1 2 2 4 4 30 6 6 2 20 11 1 2 3 3 0 0 0
0 0 0 0 0 0 0 0 0 0 0 0 0 0 0 0 0 0 0 0 20 45 46 3 2 12 17 100 39 0 0 0 0 11 4 16 3 36 11 13 1 4 2 3 3 3 0 1 6
0 0 0 0 0 0 0 0 0 0 0 0 0 0 0 0 0 0 0 0 0 14 38 26 1 0 0 13 3 2 0 0 6 10 12 35 42 28 10 10 3 1 1 2 2 1 0 6 11
0 0 0 0 0 0 0 0 0 0 0 0 0 0 0 0 0 0 0 0 0 0 12 42 16 0 0 0 0 0 0 1 2 0 15 38 64 33 5 3 1 2 1 0 1 1 0 7 9
0 0 0 0 0 0 0 0 0 0 0 0 0 0 0 0 0 0 0 0 0 0 0 56 49 0 0 0 1 2 0 0 0 0 0 33 64 49 27 0 1 0 1 2 1 0 2 0 0
0 0 0 0 0 0 0 0 0 0 0 0 0 0 0 0 0 0 0 0 0 0 0 9 100 14 5 2 1 0 0 0 0 0 1 9 7 34 60 1 2 1 0 0 0 0 0 1 0
0 0 0 0 0 0 0 0 0 0 0 0 0 0 0 0 0 0 0 0 0 0 0 57 108 14 1 0 0 0 0 0 0 2 2 0 0 2 5 9 2 2 1 0 0 0 0 0 0
0 0 0 0 0 0 0 0 0 0 0 0 0 0 0 0 0 0 0 0 0 0 1 83 77 1 1 1 0 0 0 0 2 2 0 0 0 0 7 1 2 2 2 1 0 0 0 0 0
0 0 0 0 0 0 0 0 0 0 0 0 0 0 0 0 0 0 0 0 0 8 54 85 38 1 1 2 0 0 0 0 0 0 0 0 1 3 10 7 3 2 2 3 2 0 0 0 0
0 0 0 0 0 0 0 0 0 0 0 0 0 0 0 0 0 0 0 0 1 12 113 113 29 0 2 3 1 0 1 0 0 0 0 0 0 1 10 15 7 1 3 2 2 0 0 0 0
0 0 0 0 0 0 0 0 0 0 0 0 0 0 0 0 0 0 0 0 13 68 223 89 29 4 2 3 0 2 0 0 0 0 0 1 1 0 4 14 2 0 0 2 2 3 1 0 0
0 0 0 0 0 0 0 0 0 0 0 0 0 0 0 0 0 0 0 0 24 95 119 51 34 8 2 3 3 4 0 0 0 0 2 1 2 1 2 0 0 1 0 1 2 2 0 0 0
0 0 0 0 0 0 0 0 0 3 15 0 0 0 0 1 35 0 0 0 0 54 93 55 5 2 2 3 2 2 0 0 0 0 2 1 0 0 0 0 0 0 2 2 2 1 0 0 2
0 0 0 0 0 0 0 0 18 25 28 11 0 0 0 0 6 13 0 0 0 7 20 1 0 1 3 2 3 4 0 0 0 0 1 1 0 0 0 0 1 0 1 2 1 1 1 0 0
0 0 0 0 0 0 0 0 32 0 4 9 3 1 0 0 4 4 2 6 5 3 3 1 1 1 1 3 3 3 2 0 0 0 0 1 1 0 0 0 1 1 1 2 3 2 1 3 1

GFSSGP_con_mlcape_102.txt.gz
CAPE
0 0 0 0 0 0 0 0 0 0 0 0 0 0 0 0 0 0 58 1129 1499 1363 1263 874 804 873 667 661 910 1420 1597 1691 1638 1536 1550 1609 1686 1759 1687 1621 1578 1517 1448 1478 1504 1470 1479 1309 1120
0 0 0 0 0 0 0 0 0 0 0 0 0 0 0 0 0 0 492 1065 1343 1238 1353 1296 877 842 587 629 922 1370 1703 1806 1796 1786 1808 1728 1738 1763 1605 1482 1443 1457 1484 1639 1545 1487 1487 1277 1040
0 0 0 0 0 0 0 0 0 0 0 0 0 0 0 0 0 0 289 879 1112 1131 1254 1494 917 865 593 506 759 1151 1665 1839 1884 1931 1940 1785 1797 1522 1401 1283 1312 1294 1138 1250 1169 1518 1385 1195 997
0 0 0 0 0 0 0 0 0 0 0 0 0 0 0 12 0 10 560 973 1021 1141 1209 1404 888 893 717 562 604 1003 1472 1721 1902 2000 1947 1846 1684 1094 969 799 642 698 829 877 1295 1396 1256 1063 886
0 0 0 0 0 0 0 0 0 0 0 0 0 0 0 65 392 313 645 1061 1088 1362 1374 1531 1020 1002 885 723 686 825 1272 1384 1722 1955 2012 1853 1293 836 422 506 377 437 431 665 900 977 972 946 738
0 0 0 0 0 0 0 0 0 0 0 0 0 0 0 148 615 543 838 1134 1561 1708 1702 1695 1154 1113 1042 897 783 844 1066 1322 1315 1884 1545 1071 909 489 203 352 173 139 174 305 436 426 670 776 566
0 0 0 0 0 0 0 0 0 0 0 0 0 0 0 20 681 1085 1112 1287 1645 1962 1926 1876 1634 1453 1188 1102 1024 882 989 1096 1324 1435 1128 861 875 616 466 288 183 2 165 236 558 575 406 524 303
0 0 0 0 0 0 0 0 0 0 0 0 0 0 0 33 1112 1433 1261 1358 1655 1938 1950 1957 1897 1796 1802 1645 1160 1080 1083 1041 909 1189 1179 859 755 637 347 318 122 338 261 195 105 328 310 268 201
0 0 0 0 0 0 0 0 0 0 0 0 0 0 0 0 1004 1502 1241 1058 1348 1630 1741 1844 1886 1933 1850 1853 1661 1263 1249 1244 999 854 687 564 844 655 439 296 385 487 282 128 118 96 72 112 112
0 0 0 0 0 0 0 0 0 0 0 0 0 0 0 14 580 1345 1270 793 1129 1438 1614 1728 1806 1815 1953 1784 2031 1869 1903 1618 1430 1089 812 590 608 670 359 266 320 385 153 49 51 36 23 86 151
0 0 0 0 0 0 0 0 0 0 0 0 0 0 0 0 1 383 1065 647 788 1189 1490 1650 1810 1791 1667 1426 1525 1493 1532 1385 1325 1111 1019 891 764 653 434 528 272 271 92 170 35 32 35 54 219
0 0 0 0 0 0 0 0 0 0 0 0 0 0 0 0 0 0 128 877 990 1035 1299 1520 1635 1671 1588 1194 1213 1183 879 965 1015 920 686 743 833 595 384 400 120 103 125 129 96 54 44 112 241
0 0 0 0 0 0 0 0 0 0 0 0 0 0 0 0 0 0 0 133 713 1128 1132 1285 1383 1449 1280 1152 831 764 655 581 879 602 384 529 581 357 75 72 63 237 385 99 66 21 39 220 176
0 0 0 0 0 0 0 0 0 0 0 0 0 0 0 0 0 0 0 0 405 873 1027 1424 1168 1166 1107 965 886 715 675 716 600 471 267 289 500 213 139 106 195 248 382 136 110 37 76 169 148
0 0 0 0 0 0 0 0 0 0 0 0 0 0 0 0 0 0 0 0 73 486 912 1206 1185 960 1012 929 926 607 366 739 372 233 207 259 233 292 205 133 116 194 185 38 13 2 26 38 91
0 0 0 0 0 0 0 0 0 0 0 0 0 0 0 0 0 0 0 0 0 94 569 956 964 781 638 804 811 512 335 539 418 214 123 124 206 272 171 83 5 49 77 13 0 1 15 35 55
0 0 0 0 0 0 0 0 0 0 0 0 0 0 0 0 0 0 0 0 0 4 317 732 900 684 401 538 649 533 373 246 374 228 213 202 229 181 117 84 6 21 0 2 2 2 0 8 50
0 0 0 0 0 0 0 0 0 0 0 0 0 0 0 0 0 0 0 0 0 0 206 546 666 745 303 260 674 479 177 105 81 26 243 146 122 189 124 122 1 1 2 1 2 1 2 20 64
0 0 0 0 0 0 0 0 0 0 0 0 0 0 0 0 0 0 0 0 0 0 82 387 566 745 248 388 514 333 51 11 101 19 44 113 163 100 53 24 2 2 3 0 1 2 1 3 45
0 0 0 0 0 0 0 0 0 0 0 0 0 0 0 0 0 0 0 0 0 0 0 215 424 691 442 547 459 190 131 14 34 4 58 118 152 66 37 15 6 2 3 3 2 1 3 1 23
0 0 0 0 0 0 0 0 0 0 0 0 0 0 0 0 0 0 0 0 0 0 0 93 300 633 544 615 460 212 156 16 16 8 3 9 88 31 16 7 2 3 1 2 3 1 8 1 0
0 0 0 0 0 0 0 0 0 0 0 0 0 0 0 0 0 0 0 0 0 0 0 9 168 503 521 621 417 89 6 0 0 7 1 2 5 15 23 23 6 1 1 1 3 3 0 0 0
0 0 0 0 0 0 0 0 0 0 0 0 0 0 0 0 0 0 0 0 0 0 0 26 143 404 474 614 398 181 164 69 1 4 3 2 12 27 25 14 8 4 2 2 1 2 2 0 0
0 0 0 0 0 0 0 0 0 0 0 0 0 0 0 0 0 0 0 0 0 0 0 126 201 423 509 527 386 277 212 42 0 0 2 7 9 10 12 30 3 2 2 2 2 0 0 0 0
0 0 0 1 0 0 0 0 0 0 0 0 0 0 1 0 0 0 0 0 0 0 52 246 304 442 457 273 295 250 64 30 0 0 0 1 0 10 11 21 17 3 2 2 2 1 0 0 0
0 0 0 0 0 0 0 0 0 1 5 1 2 1 0 0 0 0 0 0 0 0 246 337 356 397 212 143 234 139 3 60 0 0 0 0 4 13 15 16 20 8 3 2 2 3 2 1 0
3 1 0 0 0 0 0 0 0 0 16 30 9 0 0 0 0 3 63 0 0 91 354 450 358 348 109 21 28 2 109 18 0 0 0 1 5 3 2 15 9 1 3 4 3 3 2 2 1
1 1 0 0 0 0 0 0 20 28 19 24 12 4 0 0 0 0 145 25 0 226 504 467 343 325 8 11 1 19 66 1 1 1 0 4 7 4 4 1 12 2 0 0 2 2 1 2 2
0 0 0 2 0 2 0 19 13 3 0 2 11 8 7 2 4 2 1 162 55 239 472 333 229 82 3 4 2 56 44 2 2 2 2 3 8 3 3 4 8 2 1 1 1 2 1 1 2
7 3 0 5 0 3 1 0 0 0 0 2 13 16 4 0 0 2 3 0 133 277 355 158 32 3 3 3 2 39 14 2 2 4 5 4 2 2 2 1 9 2 3 4 3 2 2 2 1

GFSSGP_con_mlcape_105.txt.gz
CAPE
0 0 0 0 0 0 0 0 0 0 0 0 0 0 0 0 0 0 89 1113 1242 1125 1146 729 837 840 760 712 874 1248 1547 1644 1573 1379 1504 1442 1545 1663 1626 1602 1531 1578 1649 1550 1425 1296 1476 1420 1236
0 0 0 0 0 0 0 0 0 0 0 0 0 0 0 0 0 34 299 890 588 586 1259 1184 780 727 629 733 941 1270 1681 1823 1701 1504 1609 1376 1631 1682 1650 1653 1594 1448 1294 1505 1557 1421 1519 1384 1133
0 0 0 0 0 0 0 0 0 0 0 0 0 0 0 0 0 0 210 269 304 446 1028 1497 610 707 617 669 952 1413 1752 1902 1830 1677 1741 1633 1709 1634 1355 1531 1470 1203 1200 1009 1072 1062 1348 1189 1066
0 0 0 0 0 0 0 0 0 0 0 0 0 0 0 0 0 2 121 217 354 424 745 1297 607 746 669 701 930 1498 1857 1850 1820 1824 1908 1808 1646 1270 1270 1035 1303 1140 867 857 962 785 1033 1047 994
0 0 0 0 0 0 0 0 0 0 0 0 0 0 0 0 1 60 237 327 391 605 959 1600 795 794 681 633 798 1297 1662 1847 1863 1958 1941 1911 1462 1265 1091 897 907 957 805 602 755 942 1013 1009 929
0 0 0 0 0 0 0 0 0 0 0 0 0 0 0 0 97 159 421 525 709 1096 1340 1966 1007 897 808 685 686 1020 1314 1525 1784 1907 1873 1461 1291 1082 783 729 610 685 492 425 642 656 945 834 661
0 0 0 0 0 0 0 0 0 0 0 0 0 0 0 0 21 220 520 803 1313 1632 1888 2100 1539 1251 889 776 668 751 1023 1190 1369 1653 1577 1239 1042 873 554 560 304 348 365 429 471 328 539 567 374
0 0 0 0 0 0 0 0 0 0 0 0 0 0 0 90 340 1019 712 1025 1537 2007 2103 2146 1958 1705 1573 1259 854 766 781 901 1183 1270 1458 1245 938 650 392 375 223 174 3 408 194 411 259 250 185
0 0 0 0 0 0 0 0 0 0 0 0 0 0 0 0 107 1118 883 1094 1405 1805 1961 2022 1963 1833 1799 1648 1456 978 942 907 882 1218 1166 1048 1165 1006 749 518 410 100 98 361 262 271 118 63 109
0 0 0 0 0 0 0 0 0 0 0 0 0 0 0 0 56 851 950 999 972 1338 1590 1671 1800 1776 1761 1676 1962 1614 1521 1425 1319 1043 1176 1278 868 1026 903 725 352 160 308 294 180 35 36 23 24
0 0 0 0 0 0 0 0 0 0 0 0 0 0 0 0 0 142 634 762 683 860 1227 1383 1708 1783 1858 1743 1794 1718 1784 1802 1756 1465 1066 906 755 889 858 691 398 357 285 295 40 17 15 9 2
0 0 0 0 0 0 0 0 0 0 0 0 0 0 0 0 0 0 6 472 579 679 1089 1335 1573 1798 1838 1435 1748 1513 1705 1804 1558 1518 1387 996 905 781 768 593 616 498 423 261 180 90 17 0 6
0 0 0 0 0 0 0 0 0 0 0 0 0 0 0 0 0 0 0 0 157 436 841 1386 1501 1815 1774 1663 1430 1196 1186 1361 1371 1413 1269 1207 1121 1002 821 662 585 417 462 380 225 75 6 6 15
0 0 0 0 0 0 0 0 0 0 0 0 0 0 0 0 0 0 0 0 0 140 738 1391 1586 1657 1629 1542 1316 1121 956 870 1074 1125 1115 1164 1006 896 846 625 527 305 296 342 313 113 28 20 12
0 0 0 0 0 0 0 0 0 0 0 0 0 0 0 0 0 0 0 0 0 0 248 1454 1705 1649 1595 1472 1443 1247 953 755 761 730 1037 1035 977 828 648 374 154 226 426 373 243 102 56 46 52
0 0 0 0 0 0 0 0 0 0 0 0 0 0 0 0 0 0 0 0 0 0 13 896 1648 1706 1550 1385 1370 1214 747 695 776 580 919 868 848 794 647 441 380 373 307 185 102 83 30 22 80
0 0 0 0 0 0 0 0 0 0 0 0 0 0 0 0 0 0 0 0 0 0 0 437 1509 1740 1501 1385 1355 1263 847 648 445 416 570 630 638 669 497 372 358 322 222 34 18 42 35 30 52
0 0 0 0 0 0 0 0 0 0 0 0 0 0 0 0 0 0 0 0 0 0 0 102 1262 1732 1528 1230 1294 1187 969 763 427 496 484 482 577 587 329 227 312 260 52 4 2 5 5 20 41
0 0 0 0 0 0 0 0 0 0 0 0 0 0 0 0 0 0 0 0 0 0 0 166 821 1544 1401 789 944 1046 983 254 294 274 441 534 409 305 254 165 2 2 0 0 1 1 0 12 33
0 0 0 0 0 0 0 0 0 0 0 0 0 0 0 0 0 0 0 0 0 0 0 64 583 1077 1316 754 762 979 882 235 339 330 306 260 119 206 235 102 3 2 2 2 1 1 1 2 6
1 0 0 0 0 0 0 0 0 0 0 0 0 0 0 0 0 0 0 0 0 0 0 0 250 685 1205 760 869 1007 768 346 242 193 241 189 164 199 245 90 5 2 2 2 1 1 2 8 0
0 0 0 0 0 0 0 0 0 0 0 0 0 0 0 0 0 0 0 0 0 0 0 0 9 378 879 959 912 959 759 523 283 347 63 181 106 134 139 8 1 2 2 2 1 3 2 1 0
0 0 0 0 0 0 0 0 0 0 0 0 0 0 0 0 0 0 0 0 0 0 0 0 0 135 617 1114 987 1078 818 631 402 297 106 31 72 49 70 11 13 0 2 2 0 3 13 1 0
0 2 2 0 0 0 0 0 0 0 0 0 3 3 7 11 15 16 8 0 0 0 0 0 0 59 469 1011 1020 1081 819 638 549 395 85 5 22 23 44 22 8 2 2 2 2 3 11 17 2
4 21 22 15 13 0 0 0 0 10 11 0 3 16 25 25 30 21 14 36 1 0 0 0 4 75 392 935 1024 1020 798 804 658 331 28 26 3 5 28 41 14 8 2 2 0 2 2 1 1
32 18 3 4 1 0 0 0 13 18 32 0 20 14 18 12 7 3 8 116 60 0 0 0 1 201 317 877 984 979 921 881 574 290 29 20 5 5 4 8 25 17 8 2 1 3 0 1 2
4 9 1 1 1 1 1 36 95 48 38 5 10 25 20 13 2 0 0 0 149 51 0 0 138 342 403 933 919 947 942 733 576 288 17 18 11 1 4 10 17 18 6 5 2 2 2 1 1
20 25 12 10 5 5 0 12 60 18 6 1 2 29 4 2 1 0 0 0 0 11 11 331 567 498 721 432 445 831 715 801 506 186 25 18 1 1 9 6 8 29 11 4 3 2 2 2 2
51 24 32 30 46 33 16 52 32 0 1 4 20 24 1 2 1 0 1 0 0 7 489 745 702 648 272 143 196 448 607 694 391 91 4 2 0 0 2 6 1 1 0 1 5 2 2 1 1
57 71 36 6 11 3 30 27 7 0 0 11 42 10 0 1 0 0 1 0 1 0 490 403 355 308 174 91 58 305 686 509 288 39 1 2 0 0 2 5 1 3 2 1 0 0 1 1 1

GFSSGP_con_mlcape_108.txt.gz
CAPE
0 0 0 0 0 0 0 0 0 0 0 0 0 0 0 0 0 40 695 945 1480 963 401 535 568 651 763 723 779 973 1246 1369 1332 1255 1178 1090 1143 1293 1515 1615 1558 1719 1359 1578 1469 1410 1412 1191 1040
0 0 0 0 0 0 0 0 0 0 0 0 0 0 0 0 0 107 648 891 1232 1100 596 753 646 592 631 707 900 1171 1457 1591 1469 1320 1319 1212 1337 1362 1384 1521 1536 1453 1272 1156 1116 1446 1506 1240 1045
0 0 0 0 0 0 0 0 0 0 0 0 0 0 0 0 0 42 575 395 610 1142 1074 890 635 600 603 687 1018 1322 1634 1747 1651 1443 1495 1393 1440 1271 1419 1469 1564 1396 1193 1175 1045 1152 1386 1134 1012
0 0 0 0 0 0 0 0 0 0 0 0 0 0 0 0 0 121 196 203 369 874 1348 651 593 570 606 726 1035 1378 1620 1746 1731 1563 1587 1583 1355 1196 1358 1438 1598 1248 1048 1045 998 1157 1124 1033 1006
0 0 0 0 0 0 0 0 0 0 0 0 0 0 0 0 0 59 92 216 385 1174 1364 853 547 579 583 684 983 1406 1591 1714 1710 1693 1729 1686 1417 1342 1272 1361 1381 1173 998 1109 919 1065 1047 960 944
0 0 0 0 0 0 0 0 0 0 0 0 0 0 0 0 0 68 191 456 633 1544 1745 1064 658 617 544 605 790 1171 1482 1635 1591 1581 1749 1803 1524 1307 1139 1104 1250 1185 906 809 797 904 911 880 864
0 0 0 0 0 0 0 0 0 0 0 0 0 0 0 0 2 84 463 690 1154 1553 2193 1402 970 797 598 507 510 806 1149 1377 1412 1490 1708 1662 1413 1320 1134 1005 1059 1075 849 566 758 919 780 488 581
0 0 0 0 0 0 0 0 0 0 0 0 0 0 0 0 6 288 723 1114 1630 1958 2393 1925 1447 1119 883 674 498 552 752 931 1167 1427 1580 1496 1360 1159 981 787 643 661 590 511 564 494 235 291 142
0 0 0 0 0 0 0 0 0 0 0 0 0 0 0 0 545 616 637 1277 1932 2158 2207 2422 2024 1603 1435 1283 733 563 565 701 890 1156 1281 1320 1277 1030 786 568 411 292 230 393 555 385 262 69 44
0 0 0 0 0 0 0 0 0 0 0 0 0 0 0 0 26 864 742 1063 1702 2090 2197 2307 2151 1929 1934 1451 1357 951 865 779 798 1093 1166 1290 1228 1158 920 596 411 194 11 83 352 209 135 44 41
0 0 0 0 0 0 0 0 0 0 0 0 0 0 0 0 0 149 684 979 1453 1756 1921 1919 2096 2049 2013 1392 1693 1441 1347 1252 1194 1093 1198 1110 1079 1053 1022 940 470 312 186 351 228 99 37 18 10
0 0 0 0 0 0 0 0 0 0 0 0 0 0 0 0 0 0 118 644 929 1212 1510 1627 1877 2120 1745 1538 1962 1828 1635 1663 1524 1466 1274 1039 941 718 854 845 747 574 423 339 175 70 36 3 0
0 0 0 0 0 0 0 0 0 0 0 0 0 0 0 0 0 0 0 18 499 836 1216 1433 1762 1883 2139 2007 1802 1537 1501 1714 1702 1335 1401 1132 984 835 861 770 726 641 600 390 183 135 34 3 0
0 0 0 0 0 0 0 0 0 0 0 0 0 0 0 0 0 0 0 0 0 310 908 1342 1531 1992 2071 1652 1928 1510 1433 1386 1112 1179 994 1301 1064 889 769 715 606 569 521 395 329 195 45 9 3
0 0 0 0 0 0 0 0 0 0 0 0 0 0 0 0 0 0 0 0 0 0 536 1382 1568 2036 1965 1844 1774 1371 1169 853 847 859 837 1054 1185 895 648 650 606 584 445 454 280 164 53 5 13
0 0 0 0 0 0 1 0 0 0 0 0 0 0 0 0 0 0 0 0 0 0 0 1559 1777 1795 1927 1880 1768 1388 1395 960 654 644 750 706 923 989 728 578 433 315 284 238 188 124 136 35 22
0 0 0 0 0 0 0 0 0 0 0 0 0 0 0 0 0 0 0 0 0 0 0 1708 1695 1857 1836 1911 1643 1477 1312 1038 946 502 346 605 826 790 719 526 385 332 255 199 208 155 79 24 34
0 0 0 0 0 0 0 0 0 0 0 0 0 0 0 0 0 0 0 0 0 0 0 1511 1789 1953 1834 1799 1651 1498 1314 787 743 610 628 543 566 755 764 602 397 171 219 98 80 33 39 14 25
0 0 0 0 0 0 0 0 0 0 0 0 0 0 0 0 0 0 0 0 0 0 0 500 1902 1970 1831 1652 1604 1460 1288 976 641 537 419 299 414 541 680 410 229 175 58 30 1 2 12 25 38
0 0 0 0 0 0 0 1 1 0 0 0 0 0 0 0 0 0 0 0 0 0 0 14 1765 2001 1806 1672 1488 1394 1304 928 526 327 303 436 435 635 514 277 77 0 2 1 2 3 7 11 13
0 0 0 0 0 0 0 0 0 0 0 0 0 0 0 0 0 0 0 0 0 0 0 0 232 1989 1747 1569 1165 1092 1005 538 327 363 209 280 476 321 334 185 5 0 1 1 1 0 0 2 7
0 0 8 0 0 0 0 0 0 0 0 0 0 0 0 0 0 0 0 0 0 1 3 0 2 648 1620 1443 924 807 914 674 371 418 195 283 197 277 234 108 0 0 2 0 1 1 0 1 3
0 1 2 0 0 0 0 0 0 0 0 0 0 0 0 0 0 0 0 0 0 0 0 11 6 147 1107 1429 1014 857 1181 745 269 365 236 163 353 170 230 78 7 1 1 0 1 0 0 0 2
0 0 0 0 0 0 0 0 0 0 0 1 23 0 2 12 8 9 5 11 4 0 0 0 11 32 431 1373 1150 1044 1185 889 583 514 314 128 178 150 87 69 3 0 1 1 1 1 1 0 5
0 0 0 0 0 0 0 0 0 5 17 73 27 34 13 12 4 0 1 0 2 46 87 0 0 17 116 1256 1222 1148 1345 1046 723 563 406 148 83 45 66 29 33 7 1 1 0 1 3 0 0
0 0 0 0 0 0 0 0 0 3 112 82 108 93 9 1 0 0 0 0 0 0 0 0 0 0 62 767 1427 1123 1541 1023 828 689 412 99 63 22 11 72 16 1 1 2 1 2 0 0 1
0 0 0 0 0 10 0 56 2 29 103 134 100 53 4 0 0 0 0 0 0 0 0 0 0 0 40 417 1381 1150 1367 909 1078 688 357 253 130 4 0 20 65 10 3 3 2 2 2 1 0
18 0 0 0 2 0 1 2 4 14 24 43 66 10 0 0 0 0 0 0 0 0 0 0 1 0 125 573 1174 1303 1204 1043 1028 578 442 182 131 6 0 0 10 28 10 3 1 1 2 0 0
1 0 1 0 0 0 1 4 6 1 0 32 2 0 0 0 0 0 0 0 0 0 0 0 445 401 626 1014 1106 1122 1054 1034 902 597 274 252 30 0 0 3 8 15 18 6 1 1 1 1 0
0 0 0 2 0 8 1 0 2 6 28 6 0 0 0 0 0 1 0 0 0 1 2 2 4 395 489 590 514 728 817 814 763 414 272 92 2 0 0 4 0 6 1 1 1 1 1 0 1

GFSSGP_con_mlcape_111.txt.gz
CAPE
0 0 0 0 0 0 0 0 0 0 0 0 0 0 0 0 1 102 876 652 334 257 747 865 703 676 639 661 868 971 1045 1116 1087 974 751 818 1022 1085 1157 1329 1533 1717 1818 1601 1371 1380 1371 1315 1016
0 0 0 0 0 0 0 0 0 0 0 0 0 0 0 0 365 953 981 794 452 197 431 546 546 681 706 712 770 948 1131 1189 1121 1128 942 1059 1125 1047 1251 1390 1490 1278 1378 1648 1529 1644 1438 1040 924
0 0 0 0 0 0 0 0 0 0 0 0 0 0 0 0 394 506 1140 1032 217 250 443 495 480 596 687 758 873 1047 1245 1307 1258 1210 1148 1183 1136 1111 1259 1321 1416 1315 1219 1364 1495 1572 1381 945 932
0 0 0 0 0 0 0 0 0 0 0 0 0 0 0 0 308 678 979 864 278 555 521 466 475 584 663 793 965 1266 1363 1494 1408 1323 1371 1263 1167 1175 1331 1251 1429 1348 1237 1283 1421 1275 1245 961 903
0 0 0 0 0 0 0 0 0 0 0 0 0 0 0 0 266 255 538 878 921 1120 407 451 441 504 621 819 1003 1304 1368 1507 1516 1405 1478 1336 1244 1246 1281 1247 1474 1277 1201 1199 1362 1298 1089 977 940
0 0 0 0 0 0 0 0 0 0 0 0 0 0 0 2 27 56 315 1025 1204 1089 490 449 481 506 599 807 997 1201 1373 1507 1540 1517 1552 1427 1296 1191 1182 1349 1471 1205 1056 1097 1180 1107 1024 976 884
0 0 0 0 0 0 0 0 0 0 0 0 0 0 0 0 0 100 577 1127 1276 1120 715 375 554 569 558 671 854 1019 1197 1301 1253 1287 1509 1623 1341 1164 1109 1310 1365 1185 921 926 965 929 894 818 701
0 0 0 0 0 0 0 0 0 0 0 0 0 0 0 0 3 384 879 1191 1414 1416 974 438 460 544 449 507 600 746 1000 1107 901 1114 1362 1609 1388 1188 998 1015 1187 1202 865 771 756 671 601 422 439
0 0 0 0 0 0 0 0 0 0 0 0 0 0 76 216 207 520 1044 1334 1615 1743 1500 754 510 501 408 389 445 567 727 915 1042 1127 1399 1429 1332 1202 961 766 861 846 832 679 613 390 298 208 120
0 0 0 0 0 0 0 0 0 0 0 0 0 0 6 239 469 605 978 1321 1604 1859 1827 1487 768 618 566 519 439 380 467 633 740 1007 1079 1176 1105 1038 839 637 556 455 461 504 434 335 121 86 19
0 0 0 0 0 0 0 0 0 0 0 0 0 0 0 0 13 674 944 1295 1569 1928 2167 1982 1587 1178 1100 1128 801 436 394 410 491 693 738 931 1068 955 745 476 392 200 44 75 323 192 119 31 0
0 0 0 0 0 0 0 0 0 0 0 0 0 0 0 0 0 21 777 1140 1644 2006 1992 2137 1910 1745 1597 1259 1073 920 674 556 490 454 676 750 751 834 694 561 354 225 108 59 83 53 46 12 0
0 0 0 0 0 0 0 0 0 0 0 0 0 0 0 0 0 0 0 483 1397 1743 1869 1894 1952 1885 1688 1422 1377 1266 1069 971 989 939 875 917 710 647 669 734 393 365 190 86 4 10 0 0 0
0 0 0 0 0 0 0 0 0 0 0 0 0 0 0 0 0 0 0 0 503 1482 1620 1752 1804 1876 1700 1501 1544 1478 1413 1423 1323 1158 1146 903 739 572 493 533 608 491 436 181 39 2 0 0 0
0 0 0 0 0 0 0 0 0 0 0 0 0 0 0 0 0 0 0 0 0 331 1352 1511 1662 1891 1759 1635 1683 1542 1180 1296 1262 1135 1028 867 850 717 571 513 446 436 443 315 67 1 0 0 0
0 0 0 0 0 0 0 0 0 0 0 0 0 0 0 0 0 0 0 0 0 0 632 1363 1629 1793 1899 1663 1645 1508 1132 906 889 620 677 535 725 699 547 516 438 376 368 224 101 12 17 0 0
0 0 0 0 0 0 0 0 0 0 0 0 0 0 0 0 0 0 0 0 0 0 0 1252 1557 1755 1844 1702 1392 1253 1112 904 658 504 510 451 548 778 526 399 407 330 255 181 78 44 12 0 2
0 0 0 0 0 0 0 0 0 0 0 0 0 0 0 0 0 0 0 0 0 0 0 795 1413 1801 1842 1730 1454 1273 1069 892 650 479 368 354 314 530 476 380 341 245 196 135 53 3 1 22 3
0 0 0 0 0 0 0 0 0 0 0 0 0 0 0 0 0 0 0 0 0 0 0 841 1320 1768 1828 1800 1500 1394 1111 938 743 547 280 158 281 431 424 398 286 212 216 158 37 19 23 13 13
0 0 0 0 0 0 4 0 0 0 0 0 0 0 0 0 0 0 0 0 0 0 0 623 1367 1690 1763 1813 1461 1300 1099 660 574 410 377 248 264 340 478 471 284 205 107 41 0 6 3 4 5
0 0 0 0 0 1 2 0 0 0 0 0 0 0 0 0 0 0 0 0 0 0 0 40 1265 1737 1710 1622 1479 1162 1035 786 426 323 289 284 251 264 351 324 168 39 11 0 0 0 1 3 15
0 0 0 0 0 11 0 0 0 0 0 0 0 0 0 0 0 0 0 0 0 0 0 106 1376 1789 1670 1554 1484 1243 1067 894 703 353 206 254 285 267 444 279 76 3 0 0 1 0 3 6 9
0 0 0 3 21 0 0 0 0 0 0 0 0 0 5 1 0 0 0 0 0 0 0 0 25 1744 1603 1495 1317 1187 872 628 460 356 323 120 126 197 218 95 19 0 0 0 2 3 1 4 1
0 1 100 7 0 0 0 0 0 0 0 7 34 15 1 0 0 0 0 0 0 0 0 0 0 10 1145 1214 1148 1006 900 550 456 359 336 176 152 122 187 68 11 0 0 1 0 2 2 1 1
3 53 3 0 0 0 0 0 0 6 198 183 77 9 0 0 0 0 0 0 0 0 0 0 0 0 0 946 973 826 661 589 492 356 280 192 183 150 155 90 8 0 0 0 1 2 1 0 1
1 0 0 0 0 0 0 0 0 6 147 83 1 0 0 0 0 0 0 0 0 0 0 0 0 0 0 525 982 796 681 599 598 331 216 184 132 145 113 98 21 2 0 0 1 2 2 0 0
0 0 5 3 1 0 0 0 4 128 180 24 0 0 0 0 0 0 0 0 0 0 0 0 0 0 0 17 889 876 898 811 610 460 315 231 125 67 99 102 62 3 0 0 2 2 2 0 0
0 0 0 0 0 2 0 0 24 1 10 1 0 0 0 0 0 0 0 0 0 0 0 2 2 0 37 0 824 932 1020 920 650 472 326 224 135 63 78 88 33 2 0 0 2 0 3 1 0
3 0 6 17 1 1 0 1 5 1 7 4 3 2 1 1 0 0 0 0 0 0 0 3 3 3 24 78 860 942 936 799 648 569 425 261 102 24 33 40 75 34 2 1 2 1 1 1 1
3 18 0 9 0 0 0 0 5 3 3 2 2 2 1 1 0 0 2 1 2 2 1 2 7 5 2 1 343 648 624 608 551 465 248 136 49 15 15 3 0 8 1 6 3 0 0 0 0

GFSSGP_con_mlcape_114.txt.gz
CAPE
0 0 0 0 0 0 0 0 0 0 0 0 0 0 0 0 0 2 634 608 434 448 684 839 910 972 878 806 824 867 857 870 713 546 601 733 911 1037 1215 1419 1586 1681 1619 1463 1392 1414 1417 1185 1116
0 0 0 0 0 0 0 0 0 0 0 0 0 0 0 3 532 621 731 730 498 467 699 743 724 802 890 927 870 906 1038 1030 910 725 755 804 879 993 1205 1353 1537 1630 1651 1537 1558 1550 1321 1003 924
0 0 0 0 0 0 0 0 0 0 0 0 0 0 0 23 818 787 623 437 458 491 776 788 740 702 692 788 905 975 1125 1102 1035 885 906 869 997 1086 1235 1310 1161 1308 1716 1720 1854 1701 1136 899 943
0 0 0 0 0 0 0 0 0 0 0 0 0 0 0 334 695 861 521 262 103 343 537 717 772 700 693 747 840 971 1112 1114 1105 1054 1030 998 1116 1201 1253 1240 1136 1227 1556 1639 1847 1591 1028 896 980
0 0 0 0 0 0 0 0 0 0 0 0 0 0 0 371 753 734 361 50 0 147 350 641 673 636 723 808 898 990 928 1210 1187 1207 1075 1121 1197 1224 1237 1257 1278 1296 1384 1429 1560 1308 989 866 913
0 0 0 0 0 0 0 0 0 0 0 0 0 0 0 141 807 706 65 0 57 44 362 590 681 645 693 764 930 945 952 1094 1295 1285 1229 1183 1203 1210 1281 1283 1372 1241 1264 1289 1212 1130 1003 885 907
0 0 0 0 0 0 0 0 0 0 0 0 0 0 0 451 706 595 679 683 466 154 296 452 653 690 705 717 879 1042 1077 1227 1302 1331 1368 1235 1104 1127 1206 1311 1403 1142 1083 1127 1119 1015 959 893 896
0 0 0 0 0 0 0 0 0 0 0 0 0 0 0 149 272 975 1037 1044 831 286 212 314 447 647 737 858 866 1021 1107 1052 1023 1275 1391 1307 1105 1060 1089 1258 1353 1095 1016 1063 991 870 874 848 750
0 0 0 0 0 0 0 0 0 0 0 0 0 0 4 4 809 1119 1177 1265 971 607 233 297 364 391 488 693 926 1010 1060 921 784 973 1109 1456 1200 1084 999 1049 1267 1116 857 851 812 729 661 547 514
0 0 0 0 0 0 0 0 0 0 0 0 0 1 38 400 856 901 1028 1053 1119 860 567 342 380 321 345 488 758 841 993 875 725 855 1041 1300 1218 1033 939 820 969 1034 848 717 674 546 464 300 187
0 0 0 0 0 0 0 0 0 0 0 0 0 2 187 608 805 730 758 750 781 1196 1031 652 368 403 355 362 384 470 663 668 693 787 951 1126 1040 991 829 612 618 503 645 585 540 408 205 69 26
0 0 0 0 0 0 0 0 0 0 0 0 0 50 162 333 503 706 824 957 1205 1506 1399 1229 679 437 466 449 266 304 322 335 351 532 733 805 843 757 653 427 294 210 119 328 303 191 91 30 0
0 0 0 0 0 0 0 0 0 0 0 0 0 0 40 88 350 686 918 1071 1278 1520 1784 1573 1265 799 617 629 473 348 275 268 232 278 479 535 628 648 575 361 214 118 20 13 3 0 0 5 0
0 0 0 0 0 0 0 0 0 0 0 0 0 0 0 0 0 37 555 1042 1439 1570 1760 1898 1741 1488 1188 1005 897 635 543 409 338 296 321 532 488 504 549 355 250 147 72 25 4 1 0 0 0
0 0 0 0 0 0 0 0 0 0 0 0 0 0 0 0 0 0 0 32 1271 1650 1728 1971 1961 1767 1587 1344 1274 1096 962 822 805 758 701 691 679 482 456 484 422 321 144 59 20 0 0 0 0
0 0 0 0 0 0 0 0 0 0 0 0 0 0 0 0 0 0 0 0 0 715 1740 1917 2144 1872 1689 1543 1494 1343 1149 1262 1181 1037 952 913 817 615 438 349 325 253 191 114 38 11 0 0 0
0 0 0 0 0 0 0 0 0 0 0 0 0 0 0 0 0 0 0 0 0 0 290 1541 1949 1909 1832 1659 1522 1443 1253 1384 1260 1162 1095 1020 776 565 527 391 275 228 188 171 100 30 4 1 1
0 0 0 0 0 0 0 0 0 0 0 0 0 0 0 0 0 0 0 0 0 0 0 262 1497 1741 1862 1717 1479 1329 1189 1029 1071 1041 875 722 591 490 478 390 314 263 228 119 72 52 11 1 2
0 0 0 0 0 0 0 0 0 0 0 0 0 0 0 0 0 0 0 0 0 0 0 0 624 1470 1844 1715 1451 1401 1442 1076 840 783 600 413 385 393 395 377 258 186 176 126 133 93 41 3 1
0 0 0 0 0 0 0 0 0 0 0 0 0 0 0 0 0 0 0 0 0 0 0 0 133 1096 1700 1696 1571 1317 1122 811 724 538 483 333 307 275 296 361 200 173 147 117 125 56 38 10 7
0 0 0 0 0 0 0 0 0 0 0 0 0 0 0 0 0 0 0 0 0 0 0 0 463 841 1617 1755 1393 1023 671 487 651 692 585 346 299 207 284 331 218 152 158 115 67 39 9 6 4
1 0 0 0 0 0 37 0 0 0 0 0 0 0 0 0 0 0 0 0 0 0 0 0 584 1504 1687 1692 1379 1208 1054 822 847 771 499 344 171 166 300 291 213 166 126 61 23 11 0 0 1
0 1 0 0 0 0 0 2 0 0 0 0 0 0 0 0 0 0 0 0 0 0 0 0 0 100 1431 1337 1339 1295 1159 931 639 462 392 345 199 190 247 179 171 111 39 0 0 0 0 0 1
1 4 13 17 0 0 0 0 0 0 24 2 0 0 0 0 0 0 0 0 0 0 0 0 0 0 0 406 1170 1092 1071 964 642 456 321 240 197 163 201 142 145 76 20 0 0 0 0 1 3
0 1 0 0 4 0 0 0 0 6 18 0 0 0 0 0 0 0 0 0 0 0 0 0 0 0 0 0 255 996 941 764 680 520 429 280 161 152 241 158 101 51 7 0 0 0 2 2 1
0 2 0 0 0 0 0 0 0 44 1 2 1 2 0 0 0 0 0 0 0 0 0 0 0 0 0 0 0 645 914 751 529 396 405 351 290 193 86 114 61 21 0 0 0 1 3 6 2
9 0 1 0 3 0 0 7 22 1 4 2 3 0 1 1 0 0 0 0 0 0 0 0 0 0 1 0 0 8 723 671 510 395 308 247 181 142 81 70 46 18 0 0 0 1 4 4 1
4 21 0 4 0 0 2 0 1 1 1 1 5 3 5 3 2 0 1 1 0 0 0 0 2 3 4 3 0 5 415 598 542 294 336 311 184 59 57 53 47 41 4 0 0 0 3 1 0
0 3 4 0 0 1 1 0 0 0 1 0 1 5 3 2 2 2 1 1 1 1 1 3 4 6 6 5 1 165 495 543 439 398 384 334 143 93 96 75 77 43 13 0 0 0 1 3 1
2 2 0 0 0 0 2 0 0 0 0 2 1 5 3 2 3 2 2 2 2 2 3 3 4 5 7 6 4 4 286 415 355 349 311 236 174 110 111 56 52 42 33 3 0 1 2 1 2

GFSSGP_con_mlcape_117.txt.gz
CAPE
0 0 0 0 0 0 0 0 0 0 0 0 0 0 0 0 0 0 353 629 440 613 805 902 873 852 780 726 642 605 571 422 419 541 740 811 977 1157 1285 1385 1498 1603 1582 1508 1475 1422 1357 1170 1020
0 0 0 0 0 0 0 0 0 0 0 0 0 0 0 0 381 538 619 631 642 674 841 952 918 906 886 852 786 746 741 613 521 573 733 907 1108 1294 1436 1541 1637 1654 1625 1596 1584 1535 1294 1127 1019
0 0 0 0 0 0 0 0 0 0 0 0 0 0 0 0 611 587 695 692 611 682 847 951 995 999 966 885 865 854 854 738 606 606 712 969 1134 1300 1511 1578 1650 1698 1640 1771 1693 1479 1104 907 978
0 0 0 0 0 0 0 0 0 0 0 0 0 0 0 278 495 694 871 684 562 618 725 838 924 1029 1024 888 873 901 873 803 702 672 724 1004 1111 1293 1384 1333 1442 1651 1712 1803 1703 1190 845 864 939
0 0 0 0 0 0 0 0 0 0 0 0 0 0 0 492 701 737 798 557 142 536 644 681 706 782 922 914 931 957 901 832 822 761 819 1042 1164 1259 1236 1101 1195 1426 1659 1635 1549 1055 804 878 953
0 0 0 0 0 0 0 0 0 0 0 0 0 0 0 477 672 616 458 299 369 295 558 661 747 709 812 831 920 947 906 855 898 858 863 1041 1148 1222 1200 1171 1203 1272 1376 1446 1245 955 796 846 955
0 0 0 0 0 0 0 0 0 0 0 0 0 0 0 549 744 483 232 206 258 307 452 652 707 802 818 840 886 829 823 936 975 1015 912 1002 1111 1188 1212 1253 1235 1200 1194 1139 1023 878 815 822 940
0 0 0 0 0 0 0 0 0 0 0 0 0 0 0 205 853 567 242 147 101 262 366 463 618 762 815 922 918 761 763 1029 1050 1091 1041 980 1055 1154 1238 1245 1267 1100 1069 956 901 799 822 867 818
0 0 0 0 0 0 0 0 0 0 0 0 0 0 0 395 1078 422 140 133 56 208 374 478 541 586 617 873 1068 1009 1042 1138 1139 1144 1164 1031 989 1044 1154 1222 1277 1031 976 803 783 723 783 707 425
0 0 0 0 0 0 0 0 0 0 0 0 0 0 61 950 1102 655 342 72 6 33 210 428 490 485 567 732 1055 1193 1247 1148 1008 1141 1171 1096 947 924 966 1090 1238 1005 895 696 639 581 653 447 229
0 0 0 0 0 0 0 0 0 0 0 0 0 0 284 872 1090 865 899 538 77 30 141 308 368 430 527 634 782 868 1076 1007 836 861 895 1128 1013 901 843 784 1009 940 732 567 518 468 336 235 114
0 0 0 0 0 0 0 0 0 0 0 0 0 0 40 900 1015 987 966 983 842 498 166 270 376 354 444 436 485 564 670 756 691 747 803 931 881 769 680 551 597 718 565 403 319 217 123 46 9
0 0 0 0 0 0 0 0 0 0 0 0 0 0 0 22 1127 1138 980 988 1172 896 745 471 406 300 312 295 339 329 408 519 529 609 776 906 760 623 577 486 382 266 258 323 155 61 31 0 0
0 0 0 0 0 0 0 0 0 0 0 0 0 0 0 0 226 841 1038 1148 1278 1188 1243 1007 475 312 324 313 223 199 250 295 313 385 618 762 628 553 491 439 335 163 32 47 35 0 10 0 0
0 0 0 0 0 0 0 0 0 0 0 0 0 0 0 0 0 43 641 1115 1167 1440 1661 1503 1122 671 364 293 268 213 212 242 228 235 384 560 554 505 452 410 327 178 28 0 0 0 0 0 0
0 0 0 0 0 0 0 0 0 0 0 0 0 0 0 0 0 0 10 742 1092 1531 1803 1955 1840 1388 908 580 498 407 357 312 263 261 256 390 474 429 415 414 319 159 67 22 7 0 0 0 0
0 0 0 0 0 0 0 0 0 0 0 0 0 0 0 0 0 0 0 0 396 1276 1640 1898 2044 1886 1643 1278 1034 935 810 655 602 510 474 433 515 572 441 400 313 215 235 106 35 12 0 0 0
0 0 0 0 0 0 0 0 0 0 0 0 0 0 0 0 0 0 0 0 0 0 385 1039 1666 1888 1908 1725 1314 1312 1104 1048 942 777 913 837 759 729 625 428 301 264 210 164 65 44 2 1 1
0 0 0 0 0 0 0 0 0 0 0 0 0 0 0 0 0 0 0 0 0 0 0 282 634 1310 1896 1769 1582 1479 1355 1234 1095 1088 1091 1079 990 839 595 399 344 229 304 181 89 70 34 1 2
0 0 0 0 0 0 0 0 0 0 0 0 0 0 0 0 0 0 0 0 0 0 0 0 210 591 1387 1772 1691 1547 1474 1105 1103 998 985 1055 1001 815 486 403 364 310 324 125 83 106 57 33 4
0 0 0 0 0 0 0 0 0 0 0 0 0 0 0 0 0 0 0 0 0 0 0 0 2 452 1244 1866 1658 1218 915 769 659 783 1043 957 756 592 470 343 293 268 256 115 63 54 78 39 18
0 0 0 0 2 0 0 0 0 0 0 0 0 0 0 0 0 0 0 0 0 0 0 0 0 546 1404 1762 1618 1202 1362 1242 1003 902 889 722 539 378 373 290 248 211 176 157 76 47 28 30 13
0 0 0 0 1 2 0 0 0 0 0 1 0 0 0 0 0 0 0 0 0 0 0 0 0 0 38 853 1573 1318 1222 1011 680 724 694 632 477 361 298 251 152 203 185 174 93 34 2 9 8
0 0 7 6 9 0 0 0 0 42 66 2 3 2 0 0 0 0 0 0 0 0 0 0 0 0 0 0 123 1267 1272 1048 737 619 527 463 333 274 247 196 129 172 155 113 57 20 3 1 1
0 0 0 0 0 0 1 0 0 2 4 5 5 4 3 1 2 1 1 0 0 0 0 0 0 0 0 0 0 0 983 1062 954 440 134 136 418 302 201 97 115 111 96 68 32 12 0 0 0
0 0 1 0 0 0 4 11 0 3 4 5 5 4 1 2 1 2 2 3 4 2 1 0 0 0 0 0 0 0 0 876 961 264 138 403 381 304 162 81 66 58 36 46 28 1 0 0 0
0 0 0 0 0 1 0 1 0 1 1 1 5 5 5 4 1 1 1 3 2 4 4 4 0 0 0 1 0 0 0 90 880 727 439 402 303 221 160 105 71 23 24 31 21 0 0 0 0
1 7 1 0 0 0 1 0 0 2 1 1 2 1 4 3 2 2 2 1 1 1 2 4 4 5 3 3 3 1 2 0 515 565 505 437 311 187 135 125 44 4 17 11 0 0 0 0 1
4 0 0 0 3 0 0 0 0 1 1 1 1 2 2 4 4 4 3 2 2 1 2 3 4 5 5 6 6 4 1 0 241 456 363 266 143 115 109 148 52 12 3 5 0 0 0 0 2
13 0 1 0 0 13 0 0 0 0 0 0 1 2 3 2 2 3 3 4 4 3 2 3 5 6 5 3 7 9 7 2 247 399 249 71 41 32 86 98 58 25 2 1 3 0 0 1 1

GFSSGP_con_mlcape_120.txt.gz
CAPE
0 0 0 0 0 0 0 0 0 0 0 0 0 0 0 0 0 0 240 438 203 466 741 775 842 749 584 454 361 293 333 382 439 757 937 1042 1018 1100 1250 1400 1409 1450 1588 1553 1467 1328 1210 1043 939
0 0 0 0 0 0 0 0 0 0 0 0 0 0 0 0 55 263 472 445 470 672 807 836 913 845 728 632 570 462 434 430 481 525 689 890 1017 1117 1220 1319 1338 1462 1588 1639 1614 1503 1297 1073 1005
0 0 0 0 0 0 0 0 0 0 0 0 0 0 0 0 341 482 452 533 635 808 816 891 977 904 849 757 744 666 506 435 520 619 756 902 1047 1193 1293 1360 1452 1540 1587 1670 1577 1425 1121 964 973
0 0 0 0 0 0 0 0 0 0 0 0 0 0 0 0 379 534 667 664 640 788 851 945 965 940 918 874 870 866 594 432 476 665 816 988 1190 1301 1360 1489 1494 1519 1557 1492 1415 1206 829 844 939
0 0 0 0 0 0 0 0 0 0 0 0 0 0 0 0 725 768 822 772 665 799 875 989 978 994 983 987 973 928 729 530 500 667 806 970 1159 1265 1319 1436 1527 1538 1540 1519 1225 764 677 818 971
0 0 0 0 0 0 0 0 0 0 0 0 0 0 0 16 807 894 884 686 731 751 891 1036 1082 1063 1035 1035 1058 944 795 664 600 648 777 954 1056 1115 1110 1158 1388 1450 1563 1479 998 624 697 845 925
0 0 0 0 0 0 0 0 0 0 0 0 0 0 0 0 556 853 801 655 696 746 831 913 1083 1110 1081 1029 1048 913 832 785 698 708 776 879 939 1003 997 1055 1140 1260 1215 1211 815 619 664 852 880
0 0 0 0 0 0 0 0 0 0 0 0 0 0 0 0 593 713 711 608 626 716 742 757 824 917 958 1054 1019 941 856 834 857 795 810 843 917 964 991 1050 1079 1106 1082 974 715 633 638 785 781
0 0 0 0 0 0 0 0 0 0 0 0 0 0 0 0 346 714 571 446 470 632 729 772 804 861 855 989 1017 965 954 949 1003 977 905 906 937 1009 1038 1084 1087 1015 933 813 684 603 632 672 668
0 0 0 0 0 0 0 0 0 0 0 0 0 0 0 203 598 738 406 111 67 212 471 673 764 766 856 921 1029 940 936 1159 1128 1127 1029 932 873 950 1034 1066 1127 964 816 715 634 541 613 393 265
0 0 0 0 0 0 0 0 0 0 0 0 0 0 0 230 1105 843 455 0 0 28 226 531 616 683 812 799 957 874 979 1063 1037 1025 1062 961 852 900 942 974 1124 884 825 613 570 483 419 229 81
0 0 0 0 0 0 0 0 0 0 0 0 0 0 0 0 25 1261 643 97 9 1 46 403 601 610 760 758 794 838 851 967 888 888 995 1002 828 783 719 748 927 828 667 465 356 288 220 99 40
0 0 0 0 0 0 0 0 0 0 0 0 0 0 0 0 0 13 1176 1102 655 33 91 289 563 557 653 622 612 738 768 831 778 746 861 986 973 773 636 583 616 705 523 373 215 100 45 32 24
0 0 0 0 0 0 0 0 0 0 0 0 0 0 0 0 0 0 383 1244 1291 740 73 295 451 467 506 500 416 452 592 625 557 570 681 828 888 785 594 538 453 417 507 428 219 49 0 9 3
0 0 0 0 0 0 0 0 0 0 0 0 0 0 0 0 0 0 0 682 1370 1467 943 295 375 489 402 316 293 256 231 347 345 377 564 711 757 685 535 484 399 297 217 216 75 0 0 0 0
0 0 0 0 0 0 0 0 0 0 0 0 0 0 0 0 0 0 0 137 1154 1580 1586 1216 774 550 447 372 314 247 233 212 181 226 383 587 680 593 389 409 391 233 140 70 28 0 0 0 0
0 0 0 0 0 0 0 0 0 0 0 0 0 0 0 0 0 0 0 0 673 1381 1753 1828 1565 1047 582 475 419 251 211 238 223 240 266 405 526 544 467 429 314 267 180 68 26 1 0 0 0
0 0 0 0 0 0 0 0 0 0 0 0 0 0 0 0 0 0 0 0 0 912 1540 1795 1912 1801 1293 804 682 522 402 326 311 277 271 266 396 440 405 358 304 289 266 126 49 39 2 2 1
0 0 0 0 0 0 0 0 0 0 0 0 0 0 0 0 0 0 0 0 0 0 2 1342 1990 1978 1769 1471 1203 987 840 631 520 526 423 355 359 345 336 349 323 318 331 195 116 118 41 4 0
0 0 0 0 0 0 0 0 0 0 0 0 0 0 0 0 0 0 0 0 0 0 0 0 737 1939 1923 1808 1628 1497 1321 1111 991 825 721 671 608 596 496 507 424 369 357 304 207 96 39 34 13
0 0 0 0 0 0 0 0 0 0 0 0 0 0 0 0 0 0 0 0 0 0 0 0 0 475 1757 1966 1770 1348 1195 972 1052 961 900 900 942 904 734 613 543 310 350 314 219 78 54 13 1
0 0 0 0 0 0 0 0 0 0 0 0 0 0 0 0 0 0 0 0 0 0 0 0 0 0 816 1854 1753 1542 1537 1406 1272 1164 975 925 1047 1084 885 716 585 333 325 382 197 109 59 39 5
0 0 0 0 0 0 0 0 0 0 1 3 3 4 4 3 2 0 0 1 0 0 0 0 0 0 0 645 1612 1590 1484 1420 1016 1020 977 930 429 516 793 639 459 325 255 255 189 128 77 45 37
0 0 0 0 0 0 0 0 0 0 2 2 5 5 5 4 2 2 1 0 0 0 0 0 0 0 0 0 124 800 1359 1300 1172 996 924 709 517 405 497 460 357 238 199 192 192 123 78 44 46
0 0 0 0 0 0 0 0 0 0 0 1 2 5 5 3 3 3 2 3 2 2 1 0 0 0 0 0 0 0 67 478 1141 1087 920 639 400 410 372 135 220 185 165 157 126 90 61 36 34
0 0 0 0 0 0 0 0 0 0 0 1 1 5 5 4 3 4 3 2 2 3 3 2 3 1 2 0 0 0 0 0 125 797 676 642 554 363 181 72 185 146 106 64 51 55 44 44 15
0 0 0 0 0 0 0 0 0 0 1 1 1 1 2 4 4 4 4 2 2 2 3 3 3 2 2 2 2 0 0 0 1 135 496 421 334 43 0 16 129 92 65 29 12 26 37 13 8
0 0 0 0 0 0 0 0 0 0 1 1 0 2 1 3 3 3 3 3 2 2 1 2 3 4 3 3 5 5 4 3 1 1 336 454 411 71 18 50 108 60 52 12 17 19 6 7 1
0 0 0 0 0 0 0 0 0 1 0 0 1 1 2 2 1 2 3 2 2 1 1 2 3 7 6 4 6 5 5 5 1 3 11 234 180 184 147 104 71 59 32 12 7 9 2 4 0
12 0 0 0 0 1 0 0 0 0 0 0 1 1 2 2 2 0 2 2 2 2 2 2 2 4 4 3 6 7 7 7 9 3 1 59 69 27 12 30 57 25 8 5 1 1 0 0 0

GFSSGP_con_mlcape_123.txt.gz
CAPE
0 0 0 0 0 0 0 0 0 0 0 0 0 0 0 0 0 0 290 352 428 802 863 888 778 703 514 361 335 462 706 749 894 931 896 843 1037 1152 1129 1183 1283 1382 1445 1449 1253 1193 1128 993 896
0 0 0 0 0 0 0 0 0 0 0 0 0 0 0 0 0 0 350 544 576 938 919 1097 786 695 579 454 450 507 752 850 889 919 958 1124 1162 1211 1267 1267 1324 1397 1513 1489 1421 1400 1254 997 902
0 0 0 0 0 0 0 0 0 0 0 0 0 0 0 0 59 513 645 634 753 989 1001 1182 854 739 629 519 512 522 558 776 884 1033 1182 1143 1148 1261 1276 1222 1251 1363 1480 1509 1594 1523 1134 912 902
0 0 0 0 0 0 0 0 0 0 0 0 0 0 0 0 5 660 747 747 884 1084 1119 1059 934 845 717 667 642 606 502 497 641 818 1003 1101 1148 1215 1168 1142 1208 1361 1450 1352 1336 1271 903 851 891
0 0 0 0 0 0 0 0 0 0 0 0 0 0 0 0 369 858 886 913 933 1153 1178 1170 1044 1000 875 851 821 671 523 514 594 761 933 1098 1149 1166 1113 1177 1302 1334 1375 1333 1210 941 689 730 836
0 0 0 0 0 0 0 0 0 0 0 0 0 0 0 0 4 955 1040 1073 1265 1294 1267 1359 1183 1157 1054 992 946 732 559 576 707 853 1006 1131 1205 1174 1220 1283 1358 1347 1353 1276 871 594 591 707 805
0 0 0 0 0 0 0 0 0 0 0 0 0 0 0 0 0 323 1041 1088 1158 1225 1283 1363 1494 1348 1174 1108 1048 869 682 625 698 860 988 1112 1188 1191 1233 1337 1399 1487 1459 1123 566 514 608 708 728
0 0 0 0 0 0 0 0 0 0 0 0 0 0 0 0 0 326 988 1043 1184 1202 1292 1328 1489 1579 1520 1427 1151 1007 855 721 697 816 951 1019 1070 1163 1056 1193 1348 1364 1297 979 565 485 622 690 638
0 0 0 0 0 0 0 0 0 0 0 0 0 0 0 0 128 512 846 1046 1031 1070 1297 1383 1387 1441 1554 1454 1386 1139 1035 893 791 852 941 1028 1341 1368 1153 1205 1140 1117 1057 789 567 482 572 626 601
0 0 0 0 0 0 0 0 0 0 0 0 0 0 0 0 199 87 839 1214 889 840 1014 1269 1404 1397 1376 1250 1328 1530 1448 1309 1200 1176 1207 1417 1482 1514 1412 1258 1038 1068 933 731 562 513 456 537 711
0 0 0 0 0 0 0 0 0 0 0 0 0 0 0 0 0 14 147 869 843 875 1033 1136 1224 1319 1172 1122 1172 1373 1457 1321 1345 1329 1365 1365 1331 1363 1402 1531 1307 1351 992 1012 745 658 723 421 354
0 0 0 0 0 0 0 0 0 0 0 0 0 0 0 0 0 0 0 303 738 424 667 1028 1164 1155 1147 1148 1107 1114 1028 1088 1115 1171 1200 1119 1097 1241 1339 1365 1490 1443 1262 1121 930 806 416 571 394
0 0 0 0 0 0 0 0 0 0 0 0 0 0 0 0 0 0 0 0 929 713 346 722 862 995 957 1109 1087 1062 893 956 1091 1141 1221 1146 1030 997 1134 1245 1297 1345 1222 1013 665 503 495 441 243
0 0 0 0 0 0 0 0 0 0 0 0 0 0 0 0 0 0 0 0 582 984 522 562 739 958 1036 1089 996 890 909 911 1002 1070 1168 1228 1176 965 910 1017 1079 1095 1098 920 750 393 371 395 204
0 0 0 0 0 0 0 0 0 0 0 0 0 0 0 0 0 0 0 0 0 489 1221 560 553 906 1018 1077 960 778 808 792 905 862 1067 1162 1098 957 768 792 916 960 915 836 576 176 73 265 36
0 0 0 0 0 0 0 0 0 0 0 0 0 0 0 0 0 0 0 0 0 16 1525 1241 705 706 920 1107 1072 749 707 675 634 532 648 814 906 868 760 686 771 766 617 494 282 74 80 216 162
0 0 0 0 0 0 0 0 0 0 0 0 0 0 0 0 0 0 0 0 0 0 1035 1535 1221 757 682 1033 1077 937 653 483 467 456 462 567 754 723 647 674 622 581 570 410 256 89 112 14 0
0 0 0 0 0 0 0 0 0 0 0 0 0 0 0 0 0 0 0 0 0 0 638 1655 1614 1330 841 962 1047 897 733 672 651 476 481 501 601 608 744 652 471 471 466 391 268 186 29 22 1
0 0 0 0 0 0 0 0 0 0 0 0 0 0 0 0 0 0 0 0 0 0 1 1604 1967 1656 1325 986 948 819 486 538 598 625 643 613 664 625 787 638 474 396 414 354 252 158 59 36 18
0 0 0 0 0 0 0 0 0 0 0 0 0 0 0 0 0 0 0 0 0 0 0 3 1130 2123 1736 1505 1428 1231 1096 932 761 676 654 680 673 568 572 544 405 314 390 331 218 139 74 49 36
0 0 0 0 0 0 0 0 0 0 0 0 0 0 0 0 0 0 0 0 0 0 0 0 0 617 2064 2105 1988 1557 1572 1307 1087 892 715 674 708 649 561 524 428 329 385 354 235 178 237 123 30
0 0 0 0 0 0 0 0 0 0 0 3 3 2 3 4 2 1 0 0 1 0 1 0 0 0 391 1718 2156 1883 1691 1592 1562 1326 1061 846 844 866 702 525 481 414 466 457 354 299 393 168 42
0 0 0 0 0 0 0 0 0 0 1 0 1 4 4 3 3 4 3 2 1 1 1 1 0 0 0 333 1520 1857 1770 1977 1880 1522 1256 1087 969 989 806 648 512 510 511 476 297 299 311 125 51
0 0 0 0 0 0 0 0 0 1 0 0 0 1 3 3 4 4 2 1 2 1 1 1 1 1 2 1 46 658 1585 1790 1576 1583 1414 1192 1022 774 750 608 569 471 384 401 267 415 318 131 52
0 0 0 0 0 0 0 0 0 0 0 0 0 0 0 2 4 5 5 4 3 4 4 2 2 2 3 1 1 1 16 114 661 1566 1405 1155 943 690 678 576 436 520 523 448 306 259 330 204 92
0 0 0 0 0 0 0 0 0 0 0 0 1 1 0 0 3 5 6 4 4 4 4 4 5 4 4 1 3 0 1 5 5 25 318 934 805 759 497 396 441 479 434 370 267 200 169 153 136
0 0 0 0 0 0 0 0 0 0 0 1 1 1 1 0 1 4 5 4 3 4 5 6 5 4 5 3 5 6 5 3 1 3 0 100 671 692 618 400 372 365 275 119 155 157 114 20 13
0 0 0 0 0 0 0 0 0 0 1 0 0 1 2 1 1 2 3 3 3 2 3 3 3 4 4 3 4 6 7 2 4 4 2 3 151 434 372 443 398 353 225 73 98 57 23 2 12
0 0 0 2 0 1 0 0 0 0 0 0 0 1 1 1 2 1 1 2 1 1 1 2 3 4 4 5 5 5 6 6 6 8 6 3 5 256 207 227 149 144 71 38 34 4 22 7 9
0 1 1 0 0 3 0 0 0 0 0 0 1 1 1 1 1 1 2 1 2 2 1 2 3 3 3 2 4 6 6 3 7 9 8 7 1 57 85 91 85 121 51 29 13 16 5 2 7

GFSSGP_con_mlcape_126.txt.gz
CAPE
0 0 0 0 0 0 0 0 0 0 0 0 0 0 0 0 0 0 598 887 966 946 1406 1007 647 395 435 625 759 990 1167 1262 1163 914 925 957 923 951 1091 1169 1221 1281 1364 1296 1205 1180 1109 1043 1006
0 0 0 0 0 0 0 0 0 0 0 0 0 0 0 0 0 0 248 1056 1017 1165 1534 1339 777 475 374 526 630 772 971 1229 1236 1083 1089 1086 1128 1169 1147 1138 1232 1344 1395 1346 1304 1332 1231 983 975
0 0 0 0 0 0 0 0 0 0 0 0 0 0 0 0 0 0 823 1176 1056 1308 1512 1579 949 617 398 451 605 800 973 1158 1292 1199 1191 1227 1294 1283 1227 1217 1356 1427 1462 1471 1502 1429 1114 844 895
0 0 0 0 0 0 0 0 0 0 0 0 0 0 0 0 0 239 977 1285 1148 1367 1495 1561 1035 789 567 513 603 825 1018 1159 1210 1195 1240 1399 1411 1394 1307 1237 1358 1448 1557 1616 1607 1367 877 765 809
0 0 0 0 0 0 0 0 0 0 0 0 0 0 0 0 0 64 1416 1416 1302 1561 1668 1745 1078 910 755 680 616 711 968 1064 1107 1248 1437 1442 1474 1449 1299 1244 1293 1454 1390 1351 1397 1112 765 689 755
0 0 0 0 0 0 0 0 0 0 0 0 0 0 0 0 0 3 1090 1743 1626 1862 1918 1912 1278 1023 878 819 730 597 665 942 1156 1327 1322 1386 1431 1344 1287 1235 1282 1423 1328 1266 1195 836 665 638 713
0 0 0 0 0 0 0 0 0 0 0 0 0 0 0 0 0 218 941 1907 2053 2117 2221 2151 1724 1352 1013 966 819 634 591 682 905 1087 1214 1342 1316 1220 1268 1303 1373 1424 1313 1186 944 601 584 655 684
0 0 0 0 0 0 0 0 0 0 0 0 0 0 0 0 0 43 1144 1708 2109 2266 2329 2392 2062 1863 1704 1521 1017 781 682 710 888 1060 1178 1294 1277 1281 1327 1401 1426 1522 1375 1044 558 536 586 659 575
0 0 0 0 0 0 0 0 0 0 0 0 0 0 0 0 0 0 75 1286 1902 2105 2278 2417 2304 2113 2078 1962 1688 1050 832 778 912 1137 1254 1370 1408 1552 1549 1474 1465 1496 1447 980 575 565 603 601 473
0 0 0 0 0 0 0 0 0 0 0 0 0 0 0 0 0 0 0 1 1093 2031 2123 2231 2270 2238 2242 2032 2048 1749 1580 1231 1221 1332 1527 1458 1435 1558 1408 1394 1431 1245 1143 965 608 566 583 590 842
0 0 0 0 0 0 0 0 0 0 0 0 0 0 0 0 0 0 0 0 4 1563 1821 1982 2224 2199 2115 1876 1887 1852 1764 1623 1537 1542 1619 1525 1682 1695 1536 1613 1392 1341 1064 1080 779 690 785 818 940
0 0 0 0 0 0 0 0 0 0 0 0 0 0 0 0 0 0 0 0 0 203 1563 1740 1939 2133 2090 1802 1708 1825 1778 1754 1723 1682 1830 1713 1808 1791 1575 1608 1434 1431 1330 1131 964 923 844 1087 1032
0 0 0 0 0 0 0 0 0 0 0 0 0 0 0 0 0 0 0 0 0 0 842 1357 1707 1899 1914 1876 1614 1613 1650 1757 1657 1626 1740 1858 1663 1743 1751 1733 1597 1541 1498 1376 1147 977 1138 888 822
0 0 0 0 0 0 0 0 0 0 0 0 0 0 0 0 0 0 0 0 0 0 94 1315 1464 1642 1673 1626 1641 1677 1607 1460 1551 1494 1559 1601 1639 1645 1689 1778 1748 1711 1718 1471 1211 1043 973 786 674
0 0 0 0 0 0 0 0 0 0 0 0 0 0 0 0 0 0 0 0 0 0 0 544 1333 1593 1538 1408 1630 1630 1429 1451 1383 1523 1526 1583 1713 1688 1629 1684 1715 1513 1609 1585 1382 1137 940 773 688
0 0 0 0 0 0 0 0 0 0 0 0 0 0 0 0 0 0 0 0 0 0 0 0 1014 1349 1593 1473 1418 1467 1412 1319 1393 1467 1588 1517 1733 1675 1487 1387 1489 1595 1561 1543 1331 1129 779 821 747
0 0 0 0 0 0 0 0 0 0 0 0 0 0 0 0 0 0 0 0 0 0 0 0 498 1393 1472 1536 1437 1395 1399 1268 1243 1315 1304 1437 1463 1686 1453 1250 1189 1448 1116 944 1019 888 857 744 856
0 0 0 0 0 0 0 0 0 0 0 0 0 0 0 0 0 0 0 0 0 0 0 0 63 1563 1570 1549 1481 1359 1372 1243 1137 1043 956 1044 1213 1331 1220 1110 1055 1056 1215 877 844 620 504 856 797
0 0 0 0 0 0 0 0 0 0 0 0 0 0 0 0 0 0 0 0 0 0 0 0 0 1312 1810 1575 1257 1231 1237 1351 1110 1172 1123 1169 983 997 1112 1096 934 872 1115 945 899 675 555 583 674
0 0 0 0 0 0 0 0 0 0 3 1 0 0 0 0 0 0 0 0 0 0 0 0 5 521 1841 1810 1311 1106 1135 1165 1226 1285 1216 1247 1297 1135 979 1091 941 844 1016 962 799 705 438 432 396
0 0 0 0 0 0 0 0 0 0 9 0 0 0 3 4 2 1 1 0 0 0 0 0 0 1102 1799 2121 1821 1397 1287 1363 1420 1455 1379 1360 1312 1339 1166 1221 1412 1093 973 855 651 549 448 340 282
0 0 0 0 0 0 0 0 0 0 0 0 2 5 5 6 7 8 5 4 3 1 0 1 2 0 1328 2095 2028 1894 1880 1967 2071 2067 1865 1641 1388 1290 1346 1262 1308 1212 944 875 701 511 495 443 220
0 0 0 0 0 0 0 0 14 0 0 0 6 3 5 1 3 4 8 6 3 3 0 0 0 0 0 956 1214 1648 2091 2188 2325 2156 2059 1637 1402 1359 1391 1392 1397 1302 877 918 647 453 555 736 818
0 0 0 0 0 0 0 1 2 2 1 2 6 8 8 2 0 3 6 5 3 3 1 0 0 1 2 2 57 700 1330 2355 2154 2279 2103 1571 1298 1245 1337 1691 1484 1091 840 785 797 630 700 751 807
0 0 0 0 3 0 0 0 1 2 0 0 0 1 3 3 0 0 3 5 5 6 4 3 2 4 2 4 3 3 51 429 924 1100 1388 1641 1319 1269 1272 1279 1053 889 857 772 810 779 501 562 770
0 0 0 0 0 0 0 0 2 0 3 5 1 2 3 2 1 1 2 3 3 5 6 3 3 4 3 4 5 4 5 6 5 2 7 224 794 1325 1187 1033 932 845 802 878 1053 1075 828 801 968
2 0 0 0 0 2 2 0 0 0 0 0 1 2 1 1 1 0 1 2 2 5 3 3 4 3 3 3 2 5 5 4 5 6 4 5 1 203 1069 975 732 578 599 804 1070 803 598 711 891
0 2 9 6 1 0 6 0 1 1 2 1 0 0 1 0 0 1 1 1 2 3 5 3 2 3 3 3 1 3 4 2 4 4 8 7 4 1 40 786 696 491 496 559 582 537 586 490 465
11 7 9 12 10 9 4 1 3 1 0 0 1 1 1 1 1 1 2 1 1 1 1 2 2 3 2 2 3 3 5 1 2 7 7 7 8 4 1 436 552 559 495 506 481 447 418 330 247
9 11 10 7 18 15 3 1 1 1 2 2 2 2 1 0 1 2 2 1 1 2 2 2 2 3 2 0 1 4 5 3 7 8 6 6 6 5 6 7 318 295 429 528 371 247 164 85 79

GFSSGP_con_mlcape_129.txt.gz
CAPE
0 0 0 0 0 0 0 0 0 0 0 0 0 0 0 0 0 0 49 1203 1268 904 1913 1284 757 712 847 1084 1216 1234 1133 989 906 832 884 1037 1022 1078 1278 1293 1322 1408 1444 1357 1304 1241 1169 1256 1120
0 0 0 0 0 0 0 0 0 0 0 0 0 0 0 0 0 0 1 706 1105 1110 1955 1639 874 717 871 1062 1232 1279 1386 1298 1145 1067 1092 1145 1127 1144 1267 1317 1272 1376 1477 1381 1380 1303 1203 1038 986
0 0 0 0 0 0 0 0 0 0 0 0 0 0 0 0 0 0 76 679 1063 1346 1900 1650 882 712 832 943 1127 1348 1507 1449 1362 1210 1255 1257 1217 1183 1247 1266 1311 1434 1502 1496 1573 1512 1083 865 919
0 0 0 0 0 0 0 0 0 0 0 0 0 0 0 0 0 0 204 1520 1433 1574 1772 1619 911 718 799 909 1030 1121 1215 1399 1421 1276 1413 1402 1379 1332 1238 1235 1406 1529 1556 1631 1678 1442 863 768 833
0 0 0 0 0 0 0 0 0 0 0 0 0 0 0 0 0 0 286 1755 1627 1743 1860 1956 1055 819 773 801 921 1020 1086 1227 1398 1416 1501 1504 1482 1402 1275 1328 1521 1624 1654 1722 1646 1105 805 723 780
0 0 0 0 0 0 0 0 0 0 0 0 0 0 0 0 0 1 507 1435 1705 1874 2102 2516 1347 1051 748 765 831 981 1068 1217 1422 1478 1532 1610 1539 1399 1318 1341 1430 1589 1432 1443 1350 903 750 695 727
0 0 0 0 0 0 0 0 0 0 0 0 0 0 0 0 0 0 525 1470 2461 2192 2454 2735 1821 1428 880 769 719 850 1082 1208 1326 1460 1599 1654 1521 1367 1304 1318 1378 1548 1375 1259 1199 791 665 636 708
0 0 0 0 0 0 0 0 0 0 0 0 0 0 0 0 0 0 0 882 2136 2685 2621 2641 2137 1787 1492 1233 762 731 875 1147 1316 1524 1590 1543 1458 1369 1316 1317 1395 1546 1391 1295 959 662 581 623 662
0 0 0 0 0 0 0 0 0 0 0 0 0 0 0 0 0 0 0 0 655 2286 2621 2529 2460 2172 1893 1807 1393 816 763 865 1033 1313 1468 1537 1508 1599 1578 1419 1486 1557 1431 1200 603 528 602 603 548
0 0 0 0 0 0 0 0 0 0 0 0 0 0 0 0 0 0 0 0 0 230 2401 2617 2586 2493 2308 2062 2054 1490 1347 1152 1239 1367 1636 1544 1424 1629 1501 1362 1567 1381 1443 1100 602 528 572 542 716
0 0 0 0 0 0 0 0 0 0 0 0 0 0 0 0 0 0 0 0 0 0 891 2567 2564 2606 2579 2268 2132 2012 1821 1551 1523 1591 1716 1584 1576 1854 1698 1723 1729 1687 1447 1267 743 674 786 714 872
0 0 0 0 0 0 0 0 0 0 0 0 0 0 0 0 0 0 0 0 0 0 0 2063 2384 2526 2710 2252 1948 1928 1920 1940 1788 1744 1982 1845 1800 1855 1771 1562 1723 1574 1429 1126 1034 918 835 836 1046
0 0 0 0 0 0 0 0 0 0 0 0 0 0 0 0 0 0 0 0 0 0 0 0 2166 2360 2615 2597 1987 1932 1947 1801 1751 1779 1997 2010 1720 1985 1986 1868 1551 1508 1536 1309 1167 1021 926 1085 956
0 0 0 0 0 0 0 0 0 0 0 0 0 0 0 0 0 0 0 0 0 0 0 0 727 2241 2350 2453 2380 2079 1974 1805 2068 2055 1908 2236 1946 2016 1941 1793 1768 1638 1693 1529 1289 1141 1024 1173 959
0 0 0 0 0 0 0 0 0 0 0 0 0 0 0 0 0 0 0 0 0 0 0 0 101 1792 2304 2397 2195 2048 1759 1870 2083 1888 1966 2128 2183 2011 1776 1916 1828 1758 1832 1571 1294 1156 1113 1052 922
0 0 0 0 0 0 0 0 0 0 0 0 0 0 0 0 0 0 0 0 0 0 0 0 0 1096 2262 2217 2089 1938 1746 1844 1641 1664 1716 1733 1988 1944 2001 1874 1899 1894 1917 1792 1703 1428 1328 1134 911
0 0 0 0 0 0 0 0 0 0 0 0 0 0 0 0 0 0 0 0 0 0 0 0 0 0 1872 2221 2114 2035 1906 1824 1633 1561 1649 1886 1750 1952 2119 1680 1751 2097 1809 1812 1824 1658 1477 1098 991
0 0 0 0 0 0 0 0 0 0 0 0 0 0 0 0 0 0 0 0 0 0 0 0 0 0 869 2119 2066 1936 1893 1753 1686 1519 1525 1785 1871 1778 2133 1677 1575 1682 1697 1801 1538 1301 1275 1119 887
0 0 0 0 0 0 0 0 0 0 0 0 0 0 0 0 0 0 0 0 0 0 0 0 0 0 0 1910 1803 1986 1661 1666 1736 1590 1427 1527 1722 1682 1775 1707 1418 1282 1547 1387 1216 1122 1045 1190 1086
0 0 0 0 0 0 0 0 0 0 0 0 0 0 0 0 0 0 0 0 0 1 4 0 0 0 0 1189 1960 1834 1832 1659 1707 1447 1329 1327 1429 1652 1616 1502 1363 1160 1066 1240 1113 970 908 1112 1039
0 0 0 0 0 0 0 0 0 0 3 0 0 0 0 0 1 6 3 2 1 3 0 0 0 0 0 23 1683 1939 1982 1648 1542 1293 1281 1508 1548 1507 1334 1190 1446 1175 1102 1266 1062 931 824 774 664
0 0 0 0 0 0 0 0 0 0 0 0 0 0 0 2 2 5 8 4 3 6 3 1 1 3 0 4 151 1806 1424 1554 1411 1322 1430 1467 1694 1713 1665 1344 1392 1389 1304 1227 1341 961 750 661 496
0 0 0 0 0 0 0 0 1 0 0 0 0 1 4 5 8 0 6 3 4 2 2 0 3 1 0 0 4 1239 1294 1639 1391 1426 1452 1702 1864 1935 1895 1703 1470 1688 1767 1509 1510 931 746 666 688
0 0 0 0 0 0 2 0 1 1 3 3 2 2 8 9 10 8 3 4 2 2 1 1 1 1 1 0 2 273 1468 1264 1176 1086 1499 2078 1853 1760 1828 1810 1818 1772 1837 1732 1236 1397 737 845 782
0 0 0 0 2 2 3 0 0 2 2 2 4 6 4 5 4 9 5 1 1 2 1 3 1 2 2 2 2 3 2 255 118 0 1 1314 1593 1415 1560 1531 1581 1895 1918 1742 1389 1321 949 819 1021
0 0 0 0 0 0 0 21 1 0 0 3 3 3 1 2 4 6 6 2 2 1 2 2 5 3 2 2 2 3 3 4 3 0 7 13 271 828 1750 1907 1528 1406 1297 1166 1140 1255 1096 1050 943
3 0 3 0 0 0 17 0 0 0 1 0 1 0 2 0 1 3 5 1 1 1 1 3 8 5 3 3 2 2 1 2 3 1 2 3 1 0 50 762 1275 1127 963 958 906 1039 1145 1273 1168
0 4 7 1 1 2 49 0 0 1 2 0 2 2 2 0 0 2 2 1 1 0 0 1 3 5 5 2 3 6 3 2 2 2 6 5 5 4 4 3 646 970 850 733 585 728 1004 1118 1158
13 1 3 11 7 9 12 0 3 1 2 2 2 3 0 0 0 0 1 1 0 0 1 1 1 2 4 3 2 3 2 2 2 3 3 3 3 6 6 6 2 433 765 722 491 562 698 663 861
7 8 12 9 7 32 50 1 1 1 1 1 0 4 2 1 0 1 1 1 0 0 0 1 2 3 1 2 1 2 2 2 2 1 3 2 3 3 4 5 6 7 6 5 3 48 554 614 706

GFSSGP_con_mlcape_132.txt.gz
CAPE
0 0 0 0 0 0 0 0 0 0 0 0 0 0 0 0 0 12 237 386 1169 2112 1333 857 760 815 893 1093 1206 1180 1195 1035 746 683 716 788 816 914 1093 1253 1535 1616 1594 1377 1364 1316 1292 1465 912
0 0 0 0 0 0 0 0 0 0 0 0 0 0 0 0 0 0 1 610 954 1790 1823 1188 873 855 966 1157 1285 1294 1210 1065 900 812 856 954 958 1037 1161 1257 1410 1487 1568 1374 1395 1308 1250 1186 907
0 0 0 0 0 0 0 0 0 0 0 0 0 0 0 0 0 0 49 1069 1280 1293 2184 1874 994 911 1074 1268 1358 1340 1232 1127 1083 1024 1061 1123 1073 1119 1189 1292 1326 1524 1571 1529 1533 1503 1020 917 905
0 0 0 0 0 0 0 0 0 0 0 0 0 0 0 0 0 0 185 1376 1580 1603 2273 1753 1199 989 1111 1373 1456 1463 1447 1339 1266 1271 1184 1234 1212 1196 1223 1267 1343 1501 1599 1685 1731 1395 802 794 855
0 0 0 0 0 0 0 0 0 0 0 0 0 0 0 0 0 0 563 1295 1733 2218 2067 1747 1303 933 1114 1249 1432 1536 1534 1477 1439 1417 1304 1363 1335 1291 1200 1220 1351 1493 1616 1698 1709 1070 720 679 748
0 0 0 0 0 0 0 0 0 0 0 0 0 0 0 0 0 0 786 1360 2191 2647 2586 1735 1210 851 1027 1164 1223 1257 1331 1384 1451 1453 1456 1484 1435 1371 1240 1296 1473 1514 1653 1697 1529 917 713 645 701
0 0 0 0 0 0 0 0 0 0 0 0 0 0 0 0 0 0 0 1525 2379 2402 3067 2515 1726 1042 901 976 1020 1124 1218 1282 1368 1454 1531 1536 1487 1417 1329 1389 1488 1537 1452 1401 1248 833 673 593 646
0 0 0 0 0 0 0 0 0 0 0 0 0 0 0 0 0 0 0 0 2146 2722 2791 2657 2065 1476 1103 983 876 1045 1172 1294 1485 1513 1522 1465 1518 1445 1373 1376 1437 1506 1393 1280 1116 753 591 530 567
0 0 0 0 0 0 0 0 0 0 0 0 0 0 0 0 0 0 0 0 0 1936 2691 2487 2207 2026 1662 1424 1027 906 1105 1291 1436 1558 1588 1577 1629 1491 1441 1376 1344 1462 1423 1301 879 566 501 490 513
0 0 0 0 0 0 0 0 0 0 0 0 0 0 0 0 0 0 0 0 0 0 452 2765 2506 2346 2093 1786 1689 1006 1082 1261 1535 1715 1705 1744 1702 1753 1606 1418 1411 1417 1401 1215 663 463 486 430 514
0 0 0 0 0 0 0 0 0 0 0 0 0 0 0 0 0 0 0 0 0 0 0 2418 2846 2413 2366 2105 2151 1541 1472 1212 1343 1567 1825 1743 1698 1811 1371 1508 1316 1567 1355 1207 673 466 514 503 868
0 0 0 0 0 0 0 0 0 0 0 0 0 0 0 0 0 0 0 0 0 0 0 0 2968 2603 2650 2408 2529 2253 1764 1634 1575 1638 1916 1699 1854 1938 1509 1804 1678 1790 1476 1387 1008 784 665 879 753
0 0 0 0 0 0 0 0 0 0 0 0 0 0 0 0 0 0 0 0 0 0 0 0 55 2781 2514 2539 2691 2536 2101 2080 1917 1860 1946 2153 1778 1962 1921 1825 1921 1716 1714 1217 1254 1063 872 849 893
0 0 0 0 0 0 0 0 0 0 0 0 0 0 0 0 0 0 0 0 0 0 0 0 0 0 2412 2021 2453 2426 2242 2215 2094 2116 2135 2165 1930 1915 2143 1991 1949 1737 1572 1477 1330 1132 1147 994 857
0 0 0 0 0 0 0 0 0 0 0 0 0 0 0 0 0 0 0 0 0 0 0 0 0 0 917 2336 1988 2083 2186 1728 2271 2180 2261 2183 2047 2134 2159 2098 2012 1906 1701 1526 1441 925 1073 929 1015
0 0 0 0 0 0 0 0 0 0 0 0 0 0 0 0 0 0 0 0 0 0 0 0 0 0 0 2193 2105 1743 2035 2069 1993 2087 2008 2285 2226 2128 2265 2146 1821 2040 1878 1736 1527 1145 915 938 964
0 0 0 0 0 0 0 0 0 0 0 0 0 0 0 0 0 0 0 0 0 0 0 0 0 0 0 0 1062 1833 1880 2070 1893 2313 1948 1894 2015 2316 2324 2040 2125 1864 1988 2028 1838 1531 1272 1179 964
0 0 0 0 0 0 0 0 0 0 0 0 0 0 0 0 0 0 0 0 0 0 0 0 0 0 0 0 0 1284 1830 2001 2112 1850 1943 2087 1894 1621 2073 2181 1971 2298 1914 1914 1988 1874 1785 1378 1048
0 0 0 0 0 0 0 0 0 0 0 0 0 0 0 0 0 0 0 0 0 0 0 0 0 0 0 0 0 1 1121 1328 1423 1618 1818 1902 1880 1555 1708 2329 1889 1633 2145 1869 1918 1882 1624 1434 1120
0 0 0 0 0 0 0 0 0 0 0 0 0 0 0 0 0 0 0 0 0 0 0 0 0 0 0 0 0 1 0 1049 1377 1649 1537 1661 2091 1679 1524 2180 1786 1293 1207 1680 1612 1319 1129 924 1017
0 0 0 0 0 0 0 0 0 0 0 0 0 0 0 0 0 0 1 1 0 0 1 1 0 0 0 0 0 1 1 228 1082 1342 1420 1584 1695 2014 1628 1642 1802 1238 1154 983 1196 1099 951 844 789
0 0 0 0 0 0 0 0 0 0 0 0 0 0 0 0 0 0 0 0 0 0 0 0 0 0 0 0 3 3 4 3 838 1189 1450 1284 1344 1800 1686 1370 1290 1550 987 769 899 1114 926 824 574
0 0 0 0 0 0 0 0 0 0 0 0 0 0 0 0 0 2 3 1 0 0 1 1 1 1 1 1 1 5 2 0 516 1104 1223 1243 1195 1344 1754 1302 1187 1640 1202 847 1352 1271 1063 908 626
0 0 0 0 0 0 0 0 0 0 1 1 0 1 1 0 1 0 3 1 2 1 2 1 2 3 0 0 2 1 0 2 590 697 963 1039 1344 1515 1665 1441 1213 1249 1671 1315 984 1423 1165 892 642
0 0 0 0 0 0 0 0 0 0 0 1 2 1 1 0 1 2 1 2 3 2 2 3 2 3 0 0 1 2 0 1 8 82 0 7 111 509 677 1521 1587 1497 1732 1908 1918 1380 1209 983 697
0 0 0 0 0 0 0 0 0 0 0 2 1 2 1 0 1 2 5 2 2 1 2 2 2 3 1 0 1 2 3 6 5 3 4 0 1 0 0 3 966 1312 1649 1560 1660 1583 1320 1095 770
0 0 0 0 0 0 0 0 0 0 0 0 0 2 1 1 1 1 2 0 1 1 2 1 1 1 4 4 2 2 3 7 7 8 7 4 0 2 1 4 0 225 1138 1511 1540 1415 1362 1286 1153
0 0 0 1 0 0 1 8 1 1 2 1 1 1 1 1 1 1 1 1 1 1 1 0 0 0 2 3 2 3 4 3 5 5 9 8 6 6 6 5 2 4 1 213 844 846 1009 1035 1189
0 0 1 3 5 8 0 0 0 2 1 1 1 1 2 1 1 1 1 1 0 0 0 0 0 0 1 5 5 2 2 3 2 4 4 3 6 6 4 5 5 6 5 5 1 0 146 491 696
7 14 24 7 1 8 17 0 0 0 1 0 1 1 1 1 0 1 1 1 0 0 0 0 0 0 0 3 4 1 1 2 3 2 3 2 3 2 3 2 4 3 6 4 5 2 3 2 7